     2              OBSERVATION DATA    GPS                 RINEX VERSION / TYPE
ASRINEXO V2.8.2 VM                                          PGM / RUN BY / DATE
                                                            COMMENT
BIT 2 OF LLI (+4) FLAGS DATA COLLECTED UNDER "AS" CONDITION COMMENT
Original Marker Name: 1108                                  COMMENT
Campaign Name: hpgn ca 1991                                 COMMENT
4-Character Station Name: 1108                              COMMENT
6-Character Antenna Code: ASHL12                            COMMENT
Vertical Measurement Point: BAS                             COMMENT
Vertical Offset to Rinex Ref. Point: 0.0000                 COMMENT
Radial Measurement Point: RRP                               COMMENT
Radial Offset to Rinex Ref. Point: 0.0000                   COMMENT
Antenna Height from Field Measurement: 2.2200 m             COMMENT
Additional Antenna Identification Info.:                    COMMENT
Original Ashtech L1/L2                                      COMMENT
Original XYZ: -2435444.5900 -4779829.1300 3438447.6000      COMMENT
New XYZ position is based on association with SCEC monument COMMENT
E1D0G6B4+0011. Position of that monument is believed to be  COMMENT
valid to within 1 m horizontally; vertical accuracy         COMMENT
should be no worse than 3-times this value.                 COMMENT
                                                            COMMENT
Revised Rinex header created by UCSD GPS archive for        COMMENT
GSAC on 12-Apr-1999 (1999:102) 04:42:21 GMT                 COMMENT
For assistance contact dagnew@ucsd.edu or hjohnson@ucsd.edu COMMENT
                                                            COMMENT
HPGN CA 11-08 1990                                          MARKER NAME
PTD CALIF DEPT TRANSPORTATION                               OBSERVER / AGENCY
619 ASHTECH L-XII3 6A                                       REC # / TYPE / VERS
617 ASHTECH GEODETIC L                                      ANT # / TYPE
 -2399263.0000 -4771787.0000  3476135.0000                  APPROX POSITION XYZ
        2.2200        0.0000        0.0000                  ANTENNA: DELTA H/E/N
     1     2     0                                          WAVELENGTH FACT L1/2
     3    C1    L1    L2                                    # / TYPES OF OBSERV
     0                                                      INTERVAL
  1991     4     5    20    22   15.000000                  TIME OF FIRST OBS
  1991     4     6     3    29   45.000000                  TIME OF LAST OBS
     0                                                      # OF SATELLITES
                                                            END OF HEADER
 91  4  5 20 22 15.0000000  0  2 18 19
  20276031.488           0.275 4         0.308 3
  21089482.654           0.773 3         0.097 2
 91  4  5 20 22 30.0000000  0  2 18 19
  20274737.293       -6783.741 4     -5285.942 3
  21086808.199      -14075.932 3    -10968.743 2
 91  4  5 20 22 45.0000000  0  3 18 19 14
  20273487.159      -13352.518 4    -10404.463 3
  21084161.332      -27991.100 3    -21811.717 2
  23029273.271           0.287 2         0.442 1
 91  4  5 20 23  0.0000000  0  3 18 19 14
  20272279.586      -19698.024 4    -15349.013 3
  21081546.557      -41736.517 3    -32522.403 2
  23038925.091       50702.940 2     39509.236 1
 91  4  5 20 23 15.0000000  0  3 18 19 14
  20271122.689      -25791.606 4    -20097.263 3
  21078960.836      -55283.863 3    -43078.767 2
  23048602.388      101589.716 2     79161.516 1
 91  4  5 20 23 30.0000000  0  3 18 19 14
  20270006.573      -31648.317 4    -24660.936 3
  21076424.900      -68648.632 3    -53492.848 2
  23058317.466      152644.951 2    118944.601 1
 91  4  5 20 23 45.0000000  0  3 18 19 14
  20268940.801      -37244.002 4    -29021.214 3
  21073914.739      -81806.655 3    -63745.844 2
  23068067.914      203892.090 2    158877.205 1
 91  4  5 20 24  0.0000000  0  3 18 19 14
  20267929.596      -42562.789 4    -33165.723 3
  21071457.033      -94742.408 3    -73825.627 2
  23077861.832      255346.372 2    198971.206 1
 91  4  5 20 24 15.0000000  0  3 18 19 14
  20266973.569      -47596.002 4    -37087.701 3
  21069038.904     -107447.159 3    -83725.420 2
  23087698.921      307016.442 2    239233.825 1
 91  4  5 20 24 30.0000000  0  3 18 19 14
  20266066.087      -52350.453 4    -40792.483 3
  21066662.760     -119928.197 3    -93450.884 2
  23097560.894      358894.387 2    279657.998 1
 91  4  5 20 24 45.0000000  0  3 18 19 14
  20265218.879      -56822.998 4    -44277.585 3
  21064329.771     -132182.489 3   -102999.675 2
  23107487.921      410982.993 2    320246.275 1
 91  4  5 20 25  0.0000000  0  3 18 19 14
  20264421.736      -61015.525 4    -47544.498 3
  21062042.658     -144212.284 3   -112373.528 2
  23117438.035      463279.981 2    360997.422 1
 91  4  5 20 25 15.0000000  0  3 18 19 14
  20263679.439      -64903.066 4    -50573.754 3
  21059801.108     -155992.774 3   -121553.099 2
  23127429.821      515809.716 2    401929.471 1
 91  4  5 20 25 30.0000000  0  3 18 19 14
  20262990.521      -68514.289 4    -53387.697 3
  21057601.228     -167552.683 3   -130560.824 2
  23137467.169      568542.975 2    443020.533 1
 91  4  5 20 25 45.0000000  0  3 18 19 14
  20262356.468      -71853.528 4    -55989.709 3
  21055441.816     -178896.593 3   -139400.208 2
  23147540.795      621474.927 2    484266.005 1
 91  4  5 20 26  0.0000000  0  3 18 19 14
  20261773.962      -74924.460 4    -58382.637 3
  21053325.279     -190028.135 3   -148074.134 2
  23157654.296      674601.570 2    525663.165 1
 91  4  5 20 26 15.0000000  0  4 18 19 11 14
  20261237.630      -77728.181 4    -60567.368 3
  21051245.632     -200948.777 3   -156583.700 2
  24634135.437           0.162 2         0.062 1
  23167793.867      727921.188 2    567211.117 1
 91  4  5 20 26 30.0000000  0  4 18 19 11 14
  20260754.363      -80265.662 4    -62544.625 3
  21049214.235     -211659.836 3   -164929.962 2
  24626353.128      -40914.803 2    -31881.975 1
  23177977.517      781431.998 2    608908.096 1
 91  4  5 20 26 45.0000000  0  4 18 19 11 14
  20260322.366      -82542.217 4    -64318.585 3
  21047209.519     -222166.846 3   -173117.234 2
  24618601.393      -81640.174 2    -63616.263 1
  23188199.541      835128.188 2    650749.078 1
 91  4  5 20 27  0.0000000  0  4 18 19 11 14
  20259939.229      -84556.973 4    -65888.523 3
  21045249.476     -232469.053 3   -181144.905 2
  24610885.343     -122174.640 2    -95201.335 1
  23198450.654      889010.310 2    692735.380 1
 91  4  5 20 27 15.0000000  0  4 18 19 11 14
  20259604.673      -86317.321 4    -67260.223 3
  21043325.711     -242574.404 3   -189019.188 2
  24603211.243     -162525.775 2   -126643.555 1
  23208729.635      943070.110 2    734860.138 1
 91  4  5 20 27 30.0000000  0  4 18 19 11 14
  20259316.570      -87828.941 4    -68438.112 3
  21041440.913     -252488.175 3   -196744.198 2
  24595568.344     -202698.357 1   -157946.664 1
  23219054.178      997301.957 2    777118.505 1
 91  4  5 20 27 45.0000000  0  4 18 19 11 14
  20259074.937      -89095.078 4    -69424.720 3
  21039585.798     -262213.934 3   -204322.683 2
  24587961.410     -242695.650 2   -189113.634 1
  23229408.719     1051701.846 2    819508.241 1
 91  4  5 20 28  0.0000000  0  4 18 19 11 14
  20258881.868      -90113.743 4    -70218.486 3
  21037775.652     -271750.067 3   -211753.430 2
  24580376.062     -282515.488 2   -220142.271 1
  23239795.333     1106271.052 2    862029.470 1
 91  4  5 20 28 15.0000000  0  4 18 19 11 14
  20258731.970      -90889.406 4    -70822.915 3
  21035993.392     -281101.379 3   -219040.140 2
  24572841.076     -322162.128 2   -251035.970 1
  23250209.815     1161004.720 2    904679.306 1
 91  4  5 20 28 30.0000000  0  4 18 19 11 14
  20258633.638      -91427.050 4    -71241.869 3
  21034247.986     -290273.055 3   -226186.884 2
  24565331.881     -361640.090 2   -281797.812 1
  23260653.979     1215897.184 2    947452.435 1
 91  4  5 20 28 45.0000000  0  4 18 19 11 14
  20258574.273      -91726.771 4    -71475.424 3
  21032536.783     -299265.154 3   -233193.706 2
  24557839.159     -400949.161 2   -312428.011 1
  23271126.326     1270948.171 2    990349.509 1
 91  4  5 20 29  0.0000000  0  4 18 19 11 14
  20258558.690      -91791.655 4    -71526.000 3
  21030861.544     -308080.815 3   -240063.020 2
  24550386.921     -440092.146 2   -342929.234 1
  23281638.564     1326153.974 2   1033367.254 1
 91  4  5 20 29 15.0000000  0  4 18 19 11 14
  20258594.969      -91621.764 4    -71393.608 3
  21029215.378     -316720.237 3   -246795.036 2
  24542979.042     -479068.857 2   -373300.900 1
  23292175.058     1381514.015 2   1076504.716 1
 91  4  5 20 29 30.0000000  0  4 18 19 11 14
  20258673.215      -91221.048 4    -71081.374 3
  21027607.288     -325187.887 3   -253393.171 2
  24535593.359     -517882.741 2   -403545.364 1
  23302734.656     1437023.803 2   1119759.339 1
 91  4  5 20 29 45.0000000  0  4 18 19 11 14
  20258790.429      -90589.336 4    -70589.137 3
  21026024.082     -333483.641 3   -259857.388 2
  24528234.358     -556533.697 2   -433663.147 1
  23313323.029     1492682.813 2   1163130.222 1
 91  4  5 20 30  0.0000000  0  4 18 19 11 14
  20258953.518      -89729.279 4    -69918.976 3
  21024481.361     -341610.448 3   -266189.948 2
  24520910.729     -595023.821 2   -463655.266 1
  23323942.569     1548488.047 2   1206614.585 1
 91  4  5 20 30 15.0000000  0  4 18 19 11 14
  20259158.872      -88642.745 4    -69072.333 3
  21022963.209     -349570.322 3   -272392.432 2
  24513616.468     -633354.789 2   -493523.772 1
  23334585.195     1604437.200 2   1250211.572 1
 91  4  5 20 30 30.0000000  0  4 18 19 11 14
  20259408.603      -87334.609 4    -68053.011 3
  21021481.930     -357368.430 3   -278468.868 2
  24506355.502     -671531.196 2   -523271.868 1
  23345261.116     1660524.449 2   1293916.123 1
 91  4  5 20 30 45.0000000  0  4 18 19 11 14
  20259702.691      -85804.741 4    -66860.920 3
  21020026.739     -365004.767 3   -284419.235 2
  24499117.012     -709552.663 2   -552898.852 1
  23355961.310     1716749.671 2   1337728.225 1
 91  4  5 20 31  0.0000000  0  4 18 19 11 14
  20260032.465      -84054.287 4    -65496.940 3
  21018609.013     -372480.536 3   -290244.495 2
  24491912.410     -747419.959 2   -582405.995 1
  23366683.387     1773111.463 2   1381646.737 1
 91  4  5 20 31 15.0000000  0  4 18 19 11 14
  20260409.006      -82087.726 4    -63964.558 3
  21017211.984     -379800.419 3   -295948.282 2
  24484733.880     -785137.406 2   -611796.006 1
  23377438.131     1829604.484 2   1425667.521 1
 91  4  5 20 31 30.0000000  0  4 18 19 11 14
  20260823.623      -79902.277 4    -62261.623 3
  21015856.032     -386961.793 3   -301528.554 2
  24477585.014     -822701.865 2   -641066.845 1
  23388215.368     1886231.409 2   1469792.633 1
 91  4  5 20 31 45.0000000  0  4 18 19 11 14
  20261281.412      -77498.914 4    -60388.879 3
  21014518.054     -393965.810 3   -306986.231 2
  24470460.456     -860114.011 2   -670218.945 1
  23399020.787     1942990.504 2   1514020.254 1
 91  4  5 20 32  0.0000000  0  4 18 19 11 14
  20261778.761      -74886.974 4    -58353.614 3
  21013210.352     -400822.389 3   -312328.991 2
  24463370.067     -897383.136 2   -699260.047 1
  23409833.116     1999871.654 2   1558343.412 1
 91  4  5 20 32 15.0000000  0  4 18 19 11 14
  20262309.387      -72099.676 4    -56181.706 3
  21011928.442     -407564.496 3   -317582.560 2
  24456308.749     -934541.713 2   -728214.539 1
  23420674.500     2056841.654 2   1602735.389 1
 91  4  5 20 32 30.0000000  0  4 18 19 11 14
  20262882.295      -69092.116 4    -53838.167 3
  21010679.216     -414147.433 3   -322712.116 2
  24449255.231     -971544.630 2   -757047.780 1
  23431552.181     2113944.689 2   1647231.503 1
 91  4  5 20 32 45.0000000  0  4 18 19 11 14
  20263496.281      -65875.832 4    -51331.975 3
  21009449.464     -420583.203 3   -327726.977 2
  24442239.197    -1008403.399 2   -785769.142 1
  23442441.832     2171168.643 2   1691821.809 1
 91  4  5 20 33  0.0000000  0  4 18 19 11 14
  20264144.120      -62454.980 4    -48666.388 3
  21008250.285     -426876.057 3   -332630.490 2
  24435264.519    -1045121.611 2   -814380.493 1
  23453349.789     2228508.731 2   1736502.620 1
 91  4  5 20 33 15.0000000  0  4 18 19 11 14
  20264835.742      -58828.311 4    -45840.429 3
  21007081.993     -433024.876 3   -337421.752 2
  24428298.235    -1081697.953 2   -842881.368 1
  23464289.505     2285965.672 2   1781274.510 1
 91  4  5 20 33 30.0000000  0  4 18 19 11 14
  20265565.737      -54997.767 4    -42855.599 3
  21005940.696     -439031.502 3   -342102.238 2
  24421365.246    -1118133.680 2   -871272.623 1
  23475250.824     2343537.530 2   1826135.881 1
 91  4  5 20 33 45.0000000  0  4 18 19 11 14
  20266331.104      -50966.745 4    -39714.552 3
  21004822.766     -444899.676 3   -346674.830 2
  24414458.624    -1154432.295 2   -899557.061 1
  23486212.126     2401219.956 2   1871083.451 1
 91  4  5 20 34  0.0000000  0  4 18 19 11 14
  20267137.845      -46731.993 4    -36414.747 3
  21003738.706     -450626.662 3   -351137.399 2
  24407573.292    -1190590.324 2   -927731.992 1
  23497215.116     2459015.590 2   1916118.779 1
 91  4  5 20 34 15.0000000  0  4 18 19 11 14
  20267985.960      -42263.650 4    -32932.936 3
  21002676.843     -456182.557 3   -355466.657 2
  24400729.927    -1226577.163 2   -955773.453 1
  23508248.680     2516954.209 2   1961265.524
 91  4  5 20 34 30.0000000  0  4 18 19 11 14
  20268878.452      -37588.702 4    -29290.129 3
  21001645.866     -461594.500 3   -359683.739 2
  24393908.445    -1262419.619 2   -983702.435 1
  23519291.840     2575008.206 2   2006502.558 1
 91  4  5 20 34 45.0000000  0  4 18 19 11 14
  20269804.500      -32721.416 4    -25497.453 3
  21000640.367     -466876.938 3   -363799.925 2
  24387098.062    -1298131.757 2  -1011529.880 1
  23530355.680     2633162.823 2   2051818.034 1
 91  4  5 20 35  0.0000000  0  4 18 19 11 14
  20270763.843      -27659.358 4    -21553.008 3
  20999666.331     -472027.529 3   -367813.353 2
  24380332.350    -1333710.773 2  -1039253.609 1
  23541446.497     2691419.937 2   2097212.951 1
 91  4  5 20 35 15.0000000  0  4 18 19 11 14
  20271765.154      -22404.570 4    -17458.380 3
  20998704.894     -477048.533 3   -371725.810 2
  24373598.102    -1369158.496 2  -1066875.419 1
  23552552.008     2749777.090 2   2142686.275 1
 91  4  5 20 35 30.0000000  0  4 18 19 11 14
  20272803.337      -16953.847 4    -13211.074 3
  20997776.734     -481936.962 3   -375534.955 2
  24366877.360    -1404471.308 2  -1094391.831 1
  23563674.009     2808237.153 2   2188239.731 1
 91  4  5 20 35 45.0000000  0  4 18 19 11 14
  20273876.281      -11309.067 4     -8812.560 3
  20996871.364     -486694.657 3   -379242.243 2
  24360181.799    -1439650.933 2  -1121804.696 1
  23574812.204     2866797.609 2   2233871.493 1
 91  4  5 20 36  0.0000000  0  4 18 19 11 14
  20274987.913       -5471.614 4     -4263.912 3
  20995991.769     -491323.283 3   -382848.949 2
  24353504.229    -1474698.382 2  -1149114.251 1
  23585983.362     2925456.345 2   2279579.813 1
 91  4  5 20 36 15.0000000  0  5 18 19 02 11 14
  20276135.823         554.280 4       431.573 3
  20995130.182     -495827.445 4   -386358.671 2
  24894831.970           0.029 2         0.398 1
  24346868.015    -1509617.680 2  -1176323.993 1
  23597152.129     2984208.592 2   2325361.014 1
 91  4  5 20 36 30.0000000  0  4 18 19 11 14
  20277317.604        6767.467 4      5272.999 3
  20994298.243     -500208.262 4   -389772.281 2
  24340245.902    -1544409.431 2  -1203434.406 1
  23608358.677     3043053.020 2   2371214.018 1
 91  4  5 20 36 45.0000000  0  5 18 19 02 11 14
  20278538.351       13168.618 4     10260.905 3
  20993485.516     -504465.110 3   -393089.299 2
  24877294.711       -5974.820 2     -4655.211 1
  24333652.268    -1579072.639 2  -1230444.491 1
  23619582.011     3101989.922 2   2417139.048 1
 91  4  5 20 37  0.0000000  0  4 18 19 11 14
  20279791.190       19756.581 4     15394.363 3
  20992701.251     -508599.456 4   -396310.852 2
  24327072.122    -1613608.474 2  -1257355.330 1
  23630806.532     3161017.372 2   2463134.705 1
 91  4  5 20 37 15.0000000  0  5 18 19 02 11 14
  20281077.306       26525.527 4     20668.849 3
  20991935.884     -512617.346 4   -399441.661 2
  24859850.077         329.51312       257.362 1
  24320525.254    -1648022.225 2  -1284171.067 1
  23642053.546     3220129.104 2   2509196.006 1
 91  4  5 20 37 30.0000000  0  4 18 19 11 14
  20282401.184       33480.744 4     26088.486 3
  20991198.700     -516513.706 3   -402477.785 2
  24314005.957    -1682308.363 2  -1310887.375 1
  23653320.349     3279330.047 2   2555326.819 1
 91  4  5 20 37 45.0000000  0  5 18 19 02 11 14
  20283758.340       40622.293 4     31653.312 3
  20990477.099     -520288.459 4   -405419.130 2
  24842480.706       -5589.664 2     -4354.754 1
  24307501.668    -1716466.547 2  -1337504.068 1
  23664604.236     3338619.660 2   2601526.720 1
 91  4  5 20 38  0.0000000  0  5 18 19 02 11 14
  20285152.682       47946.342 4     37360.350 3
  20989781.568     -523945.819 3   -408269.013 2
  24833831.698      -51079.082 2    -39801.270 1
  24301025.857    -1750500.279 2  -1364023.641 1
  23675900.408     3397993.548 2   2647792.335 1
 91  4  5 20 38 15.0000000  0  5 18 19 02 11 14
  20286583.286       55453.642 4     43210.176 3
  20989107.640     -527484.697 4   -411026.576 2
  24825194.677      -96468.118 2    -75169.398 1
  24294573.709    -1784408.172 2  -1390445.274 1
  23687212.790     3457452.400 2   2694124.072 1
 91  4  5 20 38 30.0000000  0  5 18 19 02 11 14
  20288043.886       63143.613 4     49202.352 3
  20988458.300     -530906.017 3   -413692.533 2
  24816573.240     -141757.474 2   -110459.966 1
  24288143.164    -1818190.736 2  -1416769.269 1
  23698549.132     3516994.855 2   2740520.548 1
 91  4  5 20 38 45.0000000  0  5 18 19 02 11 14
  20289544.640       71015.999 4     55336.662 3
  20987827.527     -534210.331 4   -416267.303 2
  24807975.501     -186947.291 2   -145672.948 1
  24281739.004    -1851848.025 2  -1442995.964 1
  23709892.681     3576619.852 2   2786981.825 1
 91  4  5 20 39  0.0000000  0  5 18 19 02 11 14
  20291075.687       79068.336 4     61611.193 3
  20987228.252     -537400.565 3   -418753.187 2
  24799395.438     -232040.180 2   -180810.448 1
  24275358.227    -1885382.284 2  -1469126.457 1
  23721253.017     3636324.542 2   2833505.071 1
 91  4  5 20 39 15.0000000  0  5 18 19 02 11 14
  20292639.401       87299.319 4     68024.933 3
  20986634.962     -540478.032 4   -421151.209 2
  24790839.963     -277037.163 2   -215873.149 1
  24268999.316    -1918794.406 2  -1495161.731
  23732628.937     3696107.431 2   2880089.383 1
 91  4  5 20 39 30.0000000  0  5 18 19 02 11 14
  20294246.287       95708.299 4     74577.373 3
  20986070.744     -543443.206 3   -423461.725 2
  24782289.286     -321938.748 2   -250861.444 1
  24262667.399    -1952084.604 2  -1521102.009 1
  23744025.552     3755967.567 2   2926733.855 1
 91  4  5 20 39 45.0000000  0  5 18 19 02 11 14
  20295876.260      104293.877 4     81267.424 3
  20985525.722     -546297.708 3   -425686.007 2
  24773761.382     -366746.126 2   -285776.056 1
  24256363.369    -1985254.055 2  -1546948.219 1
  23755429.949     3815902.835 2   2973436.767 1
 91  4  5 20 40  0.0000000  0  5 18 19 02 11 14
  20297544.902      113059.791 4     88097.996 3
  20985004.990     -549037.891 4   -427821.202 2
  24765251.766     -411455.503 2   -320614.688 1
  24250065.027    -2018298.525 2  -1572697.025 1
  23766851.152     3875916.641 2   3020200.572 1
 91  4  5 20 40 15.0000000  0  5 18 19 02 11 14
  20299246.228      122004.259 4     95067.684 3
  20984507.920     -551666.071 3   -429869.131 2
  24756763.753     -456068.907 2   -355378.487 1
  24243804.168    -2051219.802 2  -1598349.802 1
  23778289.141     3936006.507 2   3067024.007 1
 91  4  5 20 40 30.0000000  0  5 18 19 02 11 14
  20300982.315      131124.216 4    102174.130 3
  20984029.453     -554185.072 3   -431831.981 2
  24748280.522     -500588.979 2   -390069.556 1
  24237557.094    -2084020.225 2  -1623908.377 1
  23789733.116     3996169.159 2   3113904.178 1
 91  4  5 20 40 45.0000000  0  5 18 19 02 11 14
  20302748.400      140420.345 4    109417.857 3
  20983569.570     -556594.566 4   -433709.504 2
  24739831.179     -545015.071 2   -424687.456 1
  24231338.500    -2116699.120 2  -1649372.327 1
  23801199.864     4056404.558 2   3160841.051 1
 91  4  5 20 41  0.0000000  0  5 18 19 02 11 14
  20304553.747      149890.190 4    116796.941 3
  20983130.976     -558897.103 3   -435503.677 2
  24731391.416     -589349.456 2   -459233.969 1
  24225143.882    -2149258.424 2  -1674743.026 1
  23812672.335     4116710.067 2   3207832.593 1
 91  4  5 20 41 15.0000000  0  5 18 19 02 11 14
  20306387.573      159535.883 4    124313.055 3
  20982710.077     -561090.763 4   -437213.004 2
  24722968.737     -633589.738 2   -493707.104 1
  24218970.553    -2181695.865 2  -1700019.003 1
  23824160.075     4177087.131 2   3254879.815 1
 91  4  5 20 41 30.0000000  0  5 18 19 02 11 14
  20308257.992      169358.644 4    131967.139 3
  20982317.342     -563174.203 3   -438836.454 2
  24714575.758     -677734.738 2   -528105.821 1
  24212821.219    -2214009.655 2  -1725198.353 1
  23835662.822     4237536.583 2   3301983.532 1
 91  4  5 20 41 45.0000000  0  5 18 19 02 11 14
  20310158.373      179355.813 4    139757.131 3
  20981940.504     -565150.498 3   -440376.424 2
  24706185.466     -721786.935 2   -562431.990 1
  24206693.749    -2246202.357 2  -1750283.504 1
  23847190.139     4298055.106 2   3349140.817 1
 91  4  5 20 42  0.0000000  0  5 18 19 02 11 14
  20312095.330      189525.296 4    147681.388 3
  20981586.143     -567022.038 3   -441834.743 2
  24697818.855     -765748.588 2   -596687.883 1
  24200582.788    -2278275.817 2  -1775275.562 1
  23858716.549     4358640.298 2   3396349.910 1
 91  4  5 20 42 15.0000000  0  5 18 19 02 11 14
  20314066.768      199869.261 4    155741.611 3
  20981245.584     -568786.676 3   -443209.777 2
  24689492.117     -809617.192 1   -630871.457 1
  24194515.277    -2310227.450 2  -1800172.881 1
  23870254.075     4419293.904 2   3443612.658 1
 91  4  5 20 42 30.0000000  0  5 18 19 02 11 14
  20316065.184      210383.934 4    163934.850 3
  20980931.097     -570448.294 3   -444504.537 2
  24681143.200       22368.25512     17428.894 1
  24188453.176    -2342060.738 2  -1824978.195 1
  23881807.463     4480011.527 2   3490925.212 1
 91  4  5 20 42 45.0000000  0  5 18 19 02 11 14
  20318098.379      221072.612 4    172263.669 3
  20980633.710     -572003.563 3   -445716.422 2
  24672836.251      -21318.271 2    -16612.683 1
  24182418.053    -2373771.678 2  -1849688.098 1
  23893372.263     4540796.288 2   3538290.184 1
 91  4  5 20 43  0.0000000  0  5 18 19 02 11 14
  20320166.334      231933.641 4    180726.789 3
  20980358.206     -573454.225 3   -446846.804 2
  24664541.900      -64913.492 2    -50583.173 1
  24176405.424    -2405361.757 2  -1874303.581 1
  23904960.743     4601646.144 2   3585705.870 1
 91  4  5 20 43 15.0000000  0  5 18 19 02 11 14
  20322265.491      242964.993 4    189322.632 3
  20980104.270     -574802.560 3   -447897.444 2
  24656259.224     -108419.422 2    -84484.025 1
  24170411.065    -2436832.863 2  -1898826.333 1
  23916548.019     4662558.560 2   3633170.191 1
 91  4  5 20 43 30.0000000  0  5 18 19 02 11 14
  20324397.611      254164.559 4    198049.550 3
  20979871.345     -576050.887 3   -448870.150 2
  24647992.445     -151838.005 2   -118316.909 1
  24164450.890    -2468186.653 2  -1923257.718 1
  23928152.379     4723530.775 2   3680680.778 1
 91  4  5 20 43 45.0000000  0  5 18 19 02 11 14
  20326559.117      265533.250 4    206908.257 3
  20979648.890     -577198.364 3   -449764.293 2
  24639750.847     -195168.195 2   -152080.831 1
  24158508.411    -2499421.993 2  -1947596.784 1
  23939759.444     4784563.219 2   3728238.601 1
 91  4  5 20 44  0.0000000  0  5 18 19 02 11 14
  20328755.087      277073.924 4    215900.970 3
  20979453.133     -578242.221 3   -450577.673 2
  24631525.146     -238407.183 2   -185773.330 1
  24152582.421    -2530535.722 2  -1971841.153 1
  23951388.705     4845658.177 2   3775844.853 1
 91  4  5 20 44 15.0000000  0  5 18 19 02 11 14
  20330983.759      288784.216 4    225025.854 3
  20979271.459     -579185.013 3   -451312.314 2
  24623313.231     -281557.313 2   -219396.977 1
  24146690.896    -2561529.779 2  -1995992.205 1
  23963029.937     4906812.940 2   3823498.023 1
 91  4  5 20 44 30.0000000  0  5 18 19 02 11 14
  20333244.487      300662.895 4    234281.948 3
  20979107.758     -580028.188 3   -451969.320 2
  24615118.713     -324619.576 2   -252952.201 1
  24140806.875    -2592405.164 2  -2020050.843 1
  23974672.077     4968025.911 2   3871196.624 1
 91  4  5 20 44 45.0000000  0  5 18 19 02 11 14
  20335536.992      312707.721 4    243667.513 2
  20978964.771     -580774.071 3   -452550.516 2
  24606936.777     -367596.189 2   -286440.622 1
  24134956.410    -2623163.868 2  -2044018.516 1
  23986340.898     5029294.331 2   3918938.407 1
 91  4  5 20 45  0.0000000  0  5 18 19 02 11 14
  20337859.791      324920.145 4    253183.669 2
  20978849.652     -581421.291 3   -453054.837 2
  24598777.317     -410485.557 2   -319861.088 1
  24129132.644    -2653804.170 2  -2067893.923 1
  23998000.435     5090619.161 2   3966724.181 1
 91  4  5 20 45 15.0000000  0  5 18 19 02 11 14
  20340215.867      337296.854 4    262827.838 3
  20978736.924     -581972.929 3   -453484.665 2
  24590630.753     -453290.439 2   -353215.705 1
  24123324.165    -2684328.539 2  -2091678.970 1
  24009689.935     5151997.068 2   4014551.273 1
 91  4  5 20 45 30.0000000  0  5 18 19 02 11 14
  20342601.608      349841.758 4    272603.070 3
  20978655.675     -582425.600 3   -453837.388 2
  24582501.290     -496007.195 2   -386501.258 1
  24117536.975    -2714732.995 2  -2115370.581 1
  24021383.047     5213431.167 2   4062422.159 1
 91  4  5 20 45 45.0000000  0  5 18 19 02 11 14
  20345017.940      362553.591 4    282508.373 3
  20978582.821     -582780.643 3   -454114.031 2
  24574381.407     -538636.958 2   -419719.440 1
  24111769.573    -2745018.572 2  -2138969.603 1
  24033079.753     5274919.666 2   4110335.444 1
 91  4  5 20 46  0.0000000  0  5 18 19 02 11 14
  20347471.737      375432.144 4    292543.584 3
  20978537.258     -583038.389 4   -454314.858 2
  24566283.720     -581179.861 2   -452869.519 1
  24106031.837    -2775185.217 2  -2162475.933 1
  24044787.244     5336461.965 2   4158290.669 1
 91  4  5 20 46 15.0000000  0  5 18 19 02 11 14
  20349955.811      388474.488 4    302706.428 3
  20978505.185     -583202.052 3   -454442.383 2
  24558218.108     -623638.795 2   -485954.609 1
  24100313.296    -2805235.474 2  -2185891.579 1
  24056512.115     5398054.688 2   4206285.154 1
 91  4  5 20 46 30.0000000  0  5 18 19 02 11 14
  20352469.584      401681.635 4    312997.693 3
  20978499.793     -583270.410 3   -454495.640 2
  24550144.991     -666012.487 2   -518973.254 1
  24094617.841    -2835167.875 2  -2209215.394 1
  24068244.193     5459698.354 2   4254319.340 1
 91  4  5 20 46 45.0000000  0  5 18 19 02 11 14
  20355010.022      415054.391 4    323418.004 3
  20978495.291     -583243.057 3   -454474.309 2
  24542107.560     -708300.025 2   -551924.729 1
  24088943.065    -2864981.394 2  -2232446.529 1
  24079976.882     5521393.426 2   4302393.570 1
 91  4  5 20 47  0.0000000  0  5 18 19 02 11 14
  20357587.942      428589.656 4    333964.944 3
  20978519.581     -583122.834 3   -454380.600 2
  24534071.910     -750504.367 2   -584811.420
  24083292.877    -2894678.574 2  -2255587.037 1
  24091726.637     5583136.454 2   4350505.194 1
 91  4  5 20 47 15.0000000  0  5 18 19 02 11 14
  20360193.434      442286.303 4    344637.633 3
  20978556.750     -582911.318 3   -454215.775 2
  24526049.765     -792626.538 2   -617634.073 1
  24077663.088    -2924260.188 2  -2278637.459 1
  24103482.709     5644925.988 2   4398653.075 1
 91  4  5 20 47 30.0000000  0  5 18 19 02 11 14
  20362832.501      456146.526 4    355437.791 3
  20978619.100     -582606.539 3   -453978.282 2
  24518054.006     -834664.456 2   -650391.060 1
  24072054.570    -2953724.043 2  -2301596.122 1
  24115254.661     5706763.410 2   4446838.225 1
 91  4  5 20 47 45.0000000  0  5 18 19 02 11 14
  20365500.953      470171.609 4    366366.412 2
  20978695.846     -582207.002 3   -453666.940 2
  24510070.531     -876616.267 2   -683080.605 1
  24066470.623    -2983068.257 2  -2324461.637 1
  24127027.799     5768650.188 2   4495061.806 1
 91  4  5 20 48  0.0000000  0  5 18 19 02 11 14
  20368199.682      484361.719 4    377423.613 2
  20978790.880     -581712.862 3   -453281.886 2
  24502103.844     -918482.114 2   -715703.526 1
  24060912.170    -3012292.597 2  -2347233.829 1
  24138812.350     5830585.415 2   4543323.232 1
 91  4  5 20 48 15.0000000  0  5 18 19 02 11 14
  20370933.799      498713.918 4    388607.129 3
  20978900.310     -581127.197 3   -452825.509 2
  24494139.564     -960264.645 2   -748261.588 1
  24055371.115    -3041399.650 2  -2369914.870 1
  24150612.484     5892565.734 2   4591619.731 1
 91  4  5 20 48 30.0000000  0  5 18 19 02 11 14
  20373693.987      513225.083 4    399914.513 3
  20979028.028     -580453.215 3   -452300.311 2
  24486217.549    -1001966.936 2   -780756.641 1
  24049857.631    -3070392.186 2  -2392506.350 1
  24162405.411     5954587.816 2   4639948.785 1
 91  4  5 20 48 45.0000000  0  5 18 19 02 11 14
  20376487.750      527896.824 4    411347.014 3
  20979171.329     -579689.048 3   -451704.823 2
  24478291.329    -1043586.871 2   -813187.518 1
  24044360.935    -3099267.935 2  -2415006.818 1
  24174221.739     6016653.169 2   4688311.517 1
 91  4  5 20 49  0.0000000  0  5 18 19 02 11 14
  20379307.007      542728.805 4    422904.387 3
  20979337.106     -578835.539 3   -451039.748 2
  24470391.493    -1085125.070 2   -845554.731 1
  24038879.525    -3128027.148 2  -2437416.805 1
  24186044.645     6078760.738 2   4736707.219 1
 91  4  5 20 49 15.0000000  0  5 18 19 02 11 14
  20382161.915      557717.945 4    434584.213 2
  20979514.279     -577895.940 3   -450307.582 2
  24462506.665    -1126584.488 2   -877860.908 1
  24033431.096    -3156672.516 2  -2459737.774 1
  24197872.368     6140906.586 2   4785132.717 1
 91  4  5 20 49 30.0000000  0  5 18 19 02 11 14
  20385043.836      572865.085 4    446387.164 2
  20979712.147     -576869.439 3   -449507.708 2
  24454616.130    -1167963.998 2   -910104.907 1
  24028002.752    -3185202.817 2  -2481969.025 1
  24209707.576     6203091.429 2   4833588.569 1
 91  4  5 20 49 45.0000000  0  5 18 19 02 11 14
  20387956.905      588172.040 4    458314.637 3
  20979920.206     -575754.385 3   -448638.822 2
  24446762.450    -1209261.810 2   -942284.798 1
  24022598.402    -3213616.005 2  -2504108.979 1
  24221549.364     6265316.675 2   4882075.946 1
 91  4  5 20 50  0.0000000  0  5 18 19 02 11 14
  20390899.082      603634.123 4    470362.993 2
  20980154.946     -574555.299 3   -447704.445 2
  24438925.278    -1250482.350 2   -974404.503 1
  24017210.839    -3241916.252 2  -2526160.950 1
  24233395.671     6327577.440 2   4930590.954 1
 91  4  5 20 50 15.0000000  0  5 18 19 02 11 14
  20393870.610      619253.068 4    482533.580 3
  20980392.984     -573270.566 3   -446703.342 2
  24431092.312    -1291623.611 2  -1006462.837 1
  24011850.534    -3270101.432 2  -2548123.343 1
  24245253.059     6389875.150 2   4979134.747 1
 91  4  5 20 50 30.0000000  0  5 18 19 02 11 14
  20396870.337      635026.923 4    494824.881 2
  20980652.295     -571902.350 3   -445637.201 2
  24423285.712    -1332687.701 2  -1038460.612 1
  24006508.848    -3298173.424 2  -2569997.509 1
  24257114.042     6452207.116 2   5027705.335 1
 91  4  5 20 50 45.0000000  0  5 18 19 02 11 14
  20399904.843      650959.300 4    507239.706 3
  20980929.910     -570447.128 3   -444503.240 2
  24415474.018    -1373670.832 2  -1070395.272 1
  24001187.526    -3326128.133 2  -2591780.171 1
  24268980.434     6514576.896 2   5076305.266 1
 91  4  5 20 51  0.0000000  0  5 18 19 02 11 14
  20402963.918      667048.006 4    519776.336 3
  20981224.295     -568906.981 3   -443303.113 2
  24407707.292    -1414574.877 2  -1102268.784 1
  23995888.994    -3353967.408 2  -2613472.953 1
  24280848.013     6576981.562 2   5124932.298 1
 91  4  5 20 51 15.0000000  0  5 18 19 02 11 14
  20406058.383      683289.458 4    532431.995 3
  20981530.389     -567285.825 3   -442039.859 2
  24399938.176    -1455403.555 2  -1134083.585 1
  23990607.249    -3381694.540 2  -2635078.326 1
  24292740.180     6639416.899 2   5173583.009 1
 91  4  5 20 51 30.0000000  0  5 18 19 02 11 14
  20409176.824      699686.131 4    545208.598 3
  20981861.368     -565581.259 3   -440711.610 2
  24392179.251    -1496154.229 2  -1165837.111 1
  23985355.781    -3409306.618 2  -2656593.998 1
  24304617.670     6701885.236 2   5222259.747 1
 91  4  5 20 51 45.0000000  0  5 18 19 02 11 14
  20412325.838      716237.133 4    558105.460 3
  20982197.721     -563794.135 3   -439319.029 2
  24384438.299    -1536827.424 2  -1197530.316 1
  23980127.696    -3436804.137 2  -2678020.613 1
  24316522.122     6764385.248 2   5270961.217 1
 91  4  5 20 52  0.0000000  0  5 18 19 02 11 14
  20415504.535      732939.858 4    571120.550 3
  20982554.473     -561927.458 3   -437864.468 2
  24376711.151    -1577425.706 2  -1229165.587 1
  23974918.509    -3464189.433 2  -2699360.051
  24328417.289     6826914.209 2   5319685.212 1
 91  4  5 20 52 15.0000000  0  5 18 19 02 11 14
  20418711.413      749798.299 4    584256.976 2
  20982925.028     -559977.231 3   -436344.783 2
  24368999.586    -1617945.305 2  -1260739.531 1
  23969728.500    -3491458.351 2  -2720608.476 1
  24340331.338     6889475.268 2   5368434.280 1
 91  4  5 20 52 30.0000000  0  5 18 19 02 11 14
  20421948.272      766810.942 4    597513.558 3
  20983314.151     -557944.766 3   -434761.023 2
  24361301.527    -1658387.221 2  -1292252.482 1
  23964561.875    -3518611.824 2  -2741766.879 1
  24352231.305     6952066.673 2   5417206.888 1
 91  4  5 20 52 45.0000000  0  5 18 19 02 11 14
  20425218.408      783977.947 4    610890.427 3
  20983711.387     -555830.471 3   -433113.512 2
  24353612.141    -1698751.206 2  -1323705.175 1
  23959415.945    -3545649.535 2  -2762835.029 1
  24364148.949     7014688.095 2   5466003.013 1
 91  4  5 20 53  0.0000000  0  5 18 19 02 11 14
  20428512.241      801297.271 4    624385.986 3
  20984133.787     -553636.424 3   -431403.853 2
  24345962.646    -1739039.217 2  -1355098.210 1
  23954296.086    -3572573.112 2  -2783814.290 1
  24376072.298     7077336.933 2   5514820.336 1
 91  4  5 20 53 15.0000000  0  5 18 19 02 11 14
  20431835.443      818768.223 4    637999.687 2
  20984561.894     -551363.121 3   -429632.428 2
  24338305.944    -1779252.015 2  -1386433.064 1
  23949185.231    -3599382.906 2  -2804704.867 1
  24388005.839     7140012.176 2   5563657.981 1
 91  4  5 20 53 30.0000000  0  5 18 19 02 11 14
  20435190.108      836389.176 4    651730.280 2
  20985012.772     -549012.006 3   -427800.372 2
  24330669.624    -1819390.433 2  -1417709.511 1
  23944108.544    -3626079.854 2  -2825507.471 1
  24399935.768     7202712.458 2   5612515.374 1
 91  4  5 20 53 45.0000000  0  5 18 19 02 11 14
  20438570.564      854164.432 4    665581.116 2
  20985474.453     -546579.238 3   -425904.704 2
  24323040.511    -1859450.516 2  -1448925.211 1
  23939053.443    -3652659.724 2  -2846218.858 1
  24411867.808     7265441.125 2   5661394.986 1
 91  4  5 20 54  0.0000000  0  5 18 19 02 11 14
  20441983.111      872086.848 4    679546.608 3
  20985952.920     -544072.067 3   -423951.045 2
  24315428.482    -1899439.504 2  -1480085.393 1
  23934014.221    -3679129.318 2  -2866844.375 1
  24423805.851     7328190.515 2   5710290.701 1
 91  4  5 20 54 15.0000000  0  5 18 19 02 11 14
  20445422.933      890161.134 4    693630.441 2
  20986443.394     -541485.867 3   -421935.811 2
  24307832.035    -1939352.231 2  -1511186.448 1
  23928994.806    -3705483.385 2  -2887379.877 1
  24435754.381     7390964.989 2   5759205.966 1
 91  4  5 20 54 30.0000000  0  5 18 19 02 11 14
  20448890.623      908385.021 4    707830.847 2
  20986955.732     -538822.745 3   -419860.643 2
  24300245.798    -1979190.755 2  -1542229.212 1
  23924002.054    -3731723.725 2  -2907826.794 1
  24447709.212     7453762.164 2   5808138.590 1
 91  4  5 20 54 45.0000000  0  5 18 19 02 11 14
  20452388.606      926756.285 4    722146.088 2
  20987468.978     -536085.113 3   -417727.407 2
  24292682.926    -2018957.128 2  -1573216.114 1
  23919024.606    -3757852.288 2  -2928186.553 1
  24459655.334     7516579.437 2   5857087.119 1
 91  4  5 20 55  0.0000000  0  5 18 19 02 11 14
  20455912.974      945276.557 4    736577.456 2
  20988004.106     -533271.397 3   -415534.882 2
  24285129.354    -2058649.801 2  -1604145.244 1
  23914077.435    -3783867.201 2  -2948457.762 1
  24471617.057     7579417.743 2   5906052.171 1
 91  4  5 20 55 15.0000000  0  5 18 19 02 11 14
  20459465.804      963951.638 4    751129.434 2
  20988553.631     -530376.143 3   -413278.831 2
  24277588.976    -2098262.892 2  -1635012.728 1
  23909150.331    -3809762.425 2  -2968635.716 1
  24483578.466     7642282.648 2   5955037.898 1
 91  4  5 20 55 30.0000000  0  5 18 19 02 11 14
  20463045.035      982774.919 4    765796.906 2
  20989121.426     -527405.952 3   -410964.393 2
  24270067.182    -2137802.792 2  -1665822.812 1
  23904246.331    -3835544.085 2  -2988725.143 1
  24495544.080     7705167.040 2   6004038.838 1
 91  4  5 20 55 45.0000000  0  5 18 19 02 11 14
  20466657.230     1001745.535 4    780579.181 3
  20989698.540     -524361.948 3   -408592.429 2
  24262554.392    -2177270.438 2  -1696576.996 1
  23899363.917    -3861212.930 2  -3008726.692 1
  24507519.589     7768069.646 2   6053053.976 1
 91  4  5 20 56  0.0000000  0  5 18 19 02 11 14
  20470297.014     1020865.184 4    795477.579 2
  20990299.909     -521242.032 3   -406161.304 2
  24255065.264    -2216663.743 2  -1727273.263 1
  23894500.088    -3886766.590 2  -3028638.531 1
  24519488.815     7830991.920 2   6102084.424 1
 91  4  5 20 56 15.0000000  0  5 18 19 02 11 14
  20473961.071     1040134.558 4    810492.661 2
  20990902.500     -518045.796 3   -403670.735 2
  24247581.546    -2255981.911 2  -1757911.046 1
  23889653.342    -3912204.085 2  -3048459.837 1
  24531470.623     7893934.194 2   6151130.477 1
 91  4  5 20 56 30.0000000  0  5 18 19 02 11 14
  20477656.312     1059550.502 4    825621.947 2
  20991529.661     -514776.354 3   -401123.109 2
  24240113.412    -2295227.896 2  -1788492.574 1
  23884842.265    -3937528.146 2  -3068192.750 1
  24543456.619     7956892.775 2   6200189.218 1
 91  4  5 20 56 45.0000000  0  5 18 19 02 11 14
  20481379.438     1079113.142 4    840865.547 2
  20992159.526     -511433.556 3   -398518.326 2
  24232664.175    -2334401.432 2  -1819017.611 1
  23880048.289    -3962738.360 2  -3087836.940 1
  24555430.924     8019867.542 2   6249260.555 1
 91  4  5 20 57  0.0000000  0  5 18 19 02 11 14
  20485129.542     1098825.421 4    856225.745 2
  20992813.386     -508014.773 3   -395854.338 2
  24225218.534    -2373499.738 2  -1849483.633 1
  23875268.098    -3987831.438 2  -3107389.838 1
  24567420.236     8082860.935 2   6298346.458 1
 91  4  5 20 57 15.0000000  0  5 18 19 02 11 14
  20488908.422     1118684.186 4    871700.088 2
  20993471.731     -504523.068 3   -393133.525 2
  24217788.179    -2412525.579 2  -1879893.610 1
  23870510.698    -4012810.145 2  -3126853.689 1
  24579417.923     8145869.558 2   6347444.199 1
 91  4  5 20 57 30.0000000  0  5 18 19 02 11 14
  20492716.984     1138693.456 4    887291.704 3
  20994159.147     -500954.321 3   -390352.679 2
  24210382.097    -2451474.430 2  -1910243.115 1
  23865779.368    -4037669.868 2  -3146224.880 1
  24591408.718     8208897.287 2   6396556.781 1
 91  4  5 20 57 45.0000000  0  5 18 19 02 11 14
  20496552.839     1158850.520 4    902998.468 2
  20994850.769     -497311.447 3   -387514.067 2
  24202979.331    -2490349.130 2  -1940534.843 1
  23861070.531    -4062413.177 2  -3165505.213 1
  24603406.109     8271940.743 2   6445681.667
 91  4  5 20 58  0.0000000  0  5 18 19 02 11 14
  20500418.062     1179156.585 4    918821.372 2
  20995555.880     -493593.544 3   -384616.999 2
  24195588.535    -2529148.439 2  -1970768.228 1
  23856385.061    -4087038.802 2  -3184693.823 1
  24615399.016     8335000.643 2   6494819.431 1
 91  4  5 20 58 15.0000000  0  5 18 19 02 11 14
  20504310.263     1199612.013 4    934760.647 2
  20996277.185     -489800.189 3   -381661.132 2
  24188228.330    -2567871.734 2  -2000942.376 1
  23851722.991    -4111545.697 2  -3203790.016 1
  24627406.895     8398077.188 2   6543970.073 1
 91  4  5 20 58 30.0000000  0  5 18 19 02 11 14
  20508227.645     1220217.638 4    950816.963 2
  20997015.573     -485930.554 3   -378645.834 2
  24180877.723    -2606518.193 2  -2031056.261 1
  23847086.712    -4135932.684 2  -3222792.727 1
  24639410.289     8461170.571 2   6593133.864 1
 91  4  5 20 58 45.0000000  0  5 18 19 02 11 14
  20512180.119     1240970.521 4    966988.007 3
  20997763.559     -481987.792 3   -375573.552 2
  24173533.415    -2645090.580 2  -2061112.900 1
  23842464.202    -4160202.597 2  -3241704.329 1
  24651424.781     8524277.650 2   6642308.336 1
 91  4  5 20 59  0.0000000  0  5 18 19 02 11 14
  20516158.054     1261874.361 4    983276.692 2
  20998531.316     -477968.251 3   -372441.434 2
  24166209.174    -2683585.096 2  -2091108.404 1
  23837867.186    -4184351.359 2  -3260521.389 1
  24663437.162     8587401.640 2   6691495.864 1
 91  4  5 20 59 15.0000000  0  5 18 19 02 11 14
  20520163.594     1282922.449 4    999677.778 2
  20999306.281     -473878.285 3   -369254.440 2
  24158897.236    -2722008.135 2  -2121048.214 1
  23833295.351    -4208385.063 2  -3279248.809 1
  24675450.136     8650535.691 2   6740691.463 1
 91  4  5 20 59 30.0000000  0  5 18 19 02 11 14
  20524195.188     1304117.454 4   1016193.344 2
  21000104.331     -469715.342 3   -366010.587 2
  24151601.196    -2760356.831 2  -2150930.497 1
  23828742.712    -4232300.484 2  -3297884.066 1
  24687470.928     8713682.115 2   6789896.525 1
 91  4  5 20 59 45.0000000  0  5 18 19 02 11 14
  20528258.890     1325460.387 4   1032824.179 2
  21000903.883     -465478.868 3   -362709.431 2
  24144313.845    -2798630.100 2  -2180753.629 1
  23824212.548    -4256096.551 2  -3316426.333 1
  24699489.905     8776841.440 2   6839111.781 1
 91  4  5 21  0  0.0000000  0  5 18 19 02 11 14
  20532347.755     1346952.569 4   1049571.315 2
  21001725.614     -461167.513 3   -359349.924 2
  24137043.264    -2836826.665 2  -2210516.959 1
  23819710.863    -4279771.644 2  -3334874.398 1
  24711507.085     8840014.559 2   6888337.780 1
 91  4  5 21  0 15.0000000  0  5 18 19 02 11 14
  20536463.895     1368590.910 4   1066432.331 2
  21002559.926     -456784.364 3   -355934.495 2
  24129792.489    -2874949.413 2  -2240223.189 1
  23815226.855    -4303328.437 2  -3353230.248 1
  24723531.454     8903198.171 2   6937571.740 1
 91  4  5 21  0 30.0000000  0  5 18 19 02 11 14
  20540611.532     1390379.423 4   1083410.368 2
  21003414.341     -452325.265 3   -352459.864 2
  24122547.700    -2912993.909 2  -2269868.018 1
  23810769.546    -4326762.467 2  -3371490.349 1
  24735556.731     8966395.906 2   6986816.789 1
 91  4  5 21  0 45.0000000  0  5 18 19 02 11 14
  20544786.148     1412315.127 4   1100503.103 2
  21004271.740     -447793.544 3   -348928.644 2
  24115326.905    -2950963.127 2  -2299454.255 1
  23806331.711    -4350076.433 2  -3389656.940 1
  24747583.211     9029604.565 2   7036070.499
 91  4  5 21  1  0.0000000  0  5 18 19 02 11 14
  20548986.834     1434394.811 4   1117708.040 2
  21005147.741     -443192.183 3   -345343.161 2
  24108117.190    -2988860.183 2  -2328984.632 1
  23801916.073    -4373273.141 2  -3407732.225 1
  24759610.285     9092820.489 2   7085329.808 1
 91  4  5 21  1 15.0000000  0  5 18 19 02 11 14
  20553216.907     1456618.384 4   1135025.082 2
  21006036.917     -438521.432 3   -341703.614 2
  24100913.182    -3026684.963 2  -2358458.275 1
  23797525.319    -4396352.350 2  -3425715.955 1
  24771647.847     9156042.886 2   7134594.201 1
 91  4  5 21  1 30.0000000  0  4 18 19 02 11
  20557473.957     1478989.455 4   1152457.060 2
  21006937.505     -433777.810 3   -338007.270 2
  24093733.150    -3064433.669 2  -2387872.664 1
  23793159.432    -4419310.073 2  -3443604.928 1
 91  4  5 21  1 45.0000000  0  4 18 19 02 11
  20561756.485     1501502.783 4   1169999.882 2
  21007854.270     -428966.327 3   -334258.050 2
  24086562.716    -3102111.363 2  -2417231.708 1
  23788811.256    -4442151.113 2  -3461403.017 1
 91  4  5 21  2  0.0000000  0  4 18 19 02 11
  20566070.510     1524158.280 4   1187653.485 3
  21008782.429     -424087.341 3   -330456.239 2
  24079407.272    -3139718.305 2  -2446535.574 1
  23784485.539    -4464875.390 2  -3479110.095 1
 91  4  5 21  2 15.0000000  0  4 18 19 02 11
  20570407.011     1546960.039 4   1205421.068 2
  21009724.375     -419136.685 3   -326598.581 2
  24072264.723    -3177249.899 2  -2475780.772 1
  23780183.223    -4487478.252 2  -3496722.567 1
 91  4  5 21  2 30.0000000  0  4 18 19 02 11
  20574774.085     1569902.147 4   1223298.014 2
  21010684.311     -414120.413 3   -322689.784 2
  24065135.960    -3214712.080 2  -2504971.905 1
  23775910.886    -4509965.472 2  -3514245.058 1
 91  4  5 21  2 45.0000000  0  4 18 19 02 11
  20579166.043     1592984.338 4   1241284.113 2
  21011643.934     -409038.707 3   -318729.997 2
  24058026.968    -3252104.838 2  -2534108.885 1
  23771652.632    -4532336.667 2  -3531677.081 1
 91  4  5 21  3  0.0000000  0  4 18 19 02 11
  20583585.887     1616210.231 4   1259382.190 2
  21012624.863     -403888.097 3   -314716.523 2
  24050912.898    -3289424.645 2  -2563189.043 1
  23767420.465    -4554588.192 2  -3549015.750 1
 91  4  5 21  3 15.0000000  0  4 18 19 02 11
  20588033.005     1639580.125 4   1277592.470 3
  21013618.373     -398668.086 3   -310648.962 2
  24043823.416    -3326670.706 2  -2592211.753 1
  23763204.772    -4576719.104 2  -3566260.443 1
 91  4  5 21  3 30.0000000  0  4 18 19 02 11
  20592505.601     1663090.261 4   1295912.017 2
  21014627.781     -393382.581 3   -306530.377 2
  24036761.505    -3363846.690 2  -2621179.885 1
  23759014.276    -4598732.759 2  -3583413.788 1
 91  4  5 21  3 45.0000000  0  4 18 19 02 11
  20597006.692     1686744.655 4   1314343.987 2
  21015646.176     -388027.711 3   -302357.731 2
  24029693.591    -3400948.617 2  -2650090.272 1
  23754849.852    -4620624.962 2  -3600472.558 1
 91  4  5 21  4  0.0000000  0  4 18 19 02 11
  20601537.449     1710541.520 4   1332886.968 2
  21016678.653     -382605.513 3   -298132.633 2
  24022654.470    -3437977.977 2  -2678944.551 1
  23750711.533    -4642397.277 2  -3617437.942 1
 91  4  5 21  4 15.0000000  0  4 18 19 02 11
  20606091.607     1734479.160 4   1351539.646 2
  21017721.042     -377117.115 3   -293855.949 2
  24015610.846    -3474936.031 2  -2707742.891 1
  23746586.685    -4664050.625 2  -3634310.558 1
 91  4  5 21  4 30.0000000  0  4 18 19 02 11
  20610674.226     1758558.197 4   1370302.510 2
  21018778.996     -371562.336 3   -289527.528 2
  24008595.091    -3511822.479 2  -2736485.421 1
  23742486.111    -4685584.270 2  -3651089.859 1
 91  4  5 21  4 45.0000000  0  4 18 19 02 11
  20615283.230     1782779.572 4   1389176.275 2
  21019849.567     -365940.260 3   -285146.674 2
  24001591.638    -3548635.991 2  -2765171.028 1
  23738416.737    -4706996.845 2  -3667774.845 1
 91  4  5 21  5  0.0000000  0  4 18 19 02 11
  20619918.025     1807143.854 4   1408161.407 3
  21020932.719     -360250.347 3   -280712.957 2
  23994604.379    -3585375.920 2  -2793799.337 1
  23734360.242    -4728287.718 2  -3684365.110 1
 91  4  5 21  5 15.0000000  0  4 18 19 02 11
  20624581.003     1831647.554 4   1427255.166 2
  21022024.859     -354496.059 3   -276229.085 2
  23987617.713    -3622045.407 2  -2822372.772 1
  23730328.335    -4749459.632 2  -3700862.582 1
 91  4  5 21  5 30.0000000  0  4 18 19 02 11
  20629270.348     1856291.394 4   1446458.129 2
  21023134.378     -348676.640 3   -271694.462 2
  23980654.745    -3658643.602 2  -2850890.661 1
  23726332.409    -4770511.410 2  -3717266.396 1
 91  4  5 21  5 45.0000000  0  4 18 19 02 11
  20633987.892     1881075.587 4   1465770.457 2
  21024252.606     -342791.883 3   -267108.920 2
  23973707.045    -3695170.348 2  -2879352.845 1
  23722344.860    -4791442.644 2  -3733576.303 1
 91  4  5 21  6  0.0000000  0  4 18 19 02 11
  20638730.896     1905998.734 4   1485191.059 2
  21025386.434     -336843.052 3   -262473.451 2
  23966761.160    -3731626.567 2  -2907760.130 1
  23718378.007    -4812254.290 2  -3749793.037 1
 91  4  5 21  6 15.0000000  0  4 18 19 02 11
  20643500.599     1931062.101 4   1504720.936 2
  21026527.434     -330828.890 3   -257787.068 2
  23959841.940    -3768011.174 2  -2936111.541 1
  23714445.932    -4832944.711 2  -3765915.302 1
 91  4  5 21  6 30.0000000  0  4 18 19 02 11
  20648298.780     1956268.407 4   1524362.183 2
  21027685.238     -324746.957 3   -253047.885 2
  23952930.537    -3804321.175 2  -2964404.859 1
  23710529.736    -4853510.878 2  -3781940.844 1
 91  4  5 21  6 45.0000000  0  4 18 19 02 11
  20653118.845     1981615.262 4   1544112.943 2
  21028857.125     -318599.549 3   -248257.684 2
  23946042.203    -3840558.703 2  -2992641.666 1
  23706641.130    -4873954.751 2  -3797871.004 1
 91  4  5 21  7  0.0000000  0  4 18 19 02 11
  20657970.389     2007102.698 4   1563973.260 2
  21030044.002     -312386.379 3   -243416.229 2
  23939151.775    -3876723.251 2  -3020821.634 1
  23702769.607    -4894275.802 2  -3813705.450 1
 91  4  5 21  7 15.0000000  0  4 18 19 02 11
  20662836.609     2032667.079 4   1583893.528 2
  21031223.095     -306171.483 3   -238573.431 2
  23932270.927    -3912878.784 2  -3048994.579 1
  23698921.171    -4914537.569 2  -3829493.669 1
 91  4  5 21  7 30.0000000  0  4 18 19 02 11
  20667722.042     2058346.271 4   1603903.271 2
  21032413.270     -299916.753 3   -233699.618 2
  23925401.492    -3948986.986 2  -3077130.645 1
  23695080.832    -4934701.627 2  -3845205.771 1
 91  4  5 21  7 45.0000000  0  4 18 19 02 11
  20672637.437     2084173.732 4   1624028.529 2
  21033612.135     -293589.050 3   -228768.920 2
  23918551.531    -3985014.608 2  -3105204.365 1
  23691268.675    -4954734.488 2  -3860815.622 1
 91  4  5 21  8  0.0000000  0  4 18 19 02 11
  20677585.498     2110177.192 4   1644290.942 2
  21034839.775     -287160.434 3   -223759.595 2
  23911715.356    -4020933.461 2  -3133192.941 1
  23687485.590    -4974607.788 2  -3876301.276 1
 91  4  5 21  8 15.0000000  0  4 18 19 02 11
  20682559.665     2136324.672 4   1664665.566 2
  21036077.327     -280662.976 3   -218696.636 2
  23904894.188    -4056775.311 2  -3161121.444 1
  23683725.591    -4994353.126 2  -3891687.111 1
 91  4  5 21  8 30.0000000  0  4 18 19 02 11
  20687564.702     2162617.654 4   1685153.575 2
  21037332.259     -274095.035 3   -213578.731 2
  23898087.696    -4092538.399 2  -3188988.610 1
  23679989.884    -5013968.634 2  -3906971.808 1
 91  4  5 21  8 45.0000000  0  4 18 19 02 11
  20692594.012     2189051.618 4   1705751.437 2
  21038586.895     -267461.136 3   -208409.450 2
  23891297.100    -4128227.127 2  -3216797.785 1
  23676293.142    -5033458.544 2  -3922158.595 1
 91  4  5 21  9  0.0000000  0  4 18 19 02 11
  20697653.004     2215627.749 4   1726460.086 2
  21039865.508     -260760.215 3   -203187.953 2
  23884517.900    -4163840.300 2  -3244548.167 1
  23672591.899    -5052821.255 2  -3937246.263 1
 91  4  5 21  9 15.0000000  0  5 18 19 02 11 16
  20702735.101     2242337.281 4   1747272.676 2
  21041146.825     -254001.001 3   -197921.021 2
  23877749.781    -4199386.400 2  -3272246.221 1
  23668932.937    -5072065.000 2  -3952241.339 1
  24894077.981           0.703 2         0.292 1
 91  4  5 21  9 30.0000000  0  4 18 19 02 11
  20707842.658     2269186.020 4   1768193.742 2
  21042446.709     -247177.878 3   -192604.299 2
  23871006.546    -4234859.759 2  -3299887.626 1
  23665302.751    -5091184.012 2  -3967139.174 1
 91  4  5 21  9 45.0000000  0  5 18 19 02 11 16
  20712980.508     2296175.336 4   1789224.343 2
  21043759.210     -240289.298 3   -187236.564 2
  23864260.623    -4270258.515 2  -3327471.313 1
  23661686.961    -5110176.245 2  -3981938.187 1
  24885312.964         241.85912       188.424 1
 91  4  5 21 10  0.0000000  0  4 18 19 02 11
  20718147.430     2323334.762 4   1810387.506 2
  21045088.794     -233305.686 3   -181794.788 2
  23857554.260    -4305552.731 2  -3354973.123 1
  23658098.446    -5129011.688 2  -3996615.041 1
 91  4  5 21 10 15.0000000  0  5 18 19 02 11 16
  20723341.627     2350628.535 4   1831655.348 2
  21046427.959     -226263.119 3   -176307.074 2
  23850852.103    -4340778.698 2  -3382421.742 1
  23654540.503    -5147726.189 2  -4011197.557 1
  24876651.653       18666.93712     14545.634 1
 91  4  5 21 10 30.0000000  0  5 18 19 02 11 16
  20728560.708     2378058.721 4   1853029.482 2
  21047778.832     -219158.969 3   -170771.369 2
  23844155.634    -4375933.701 2  -3409815.064 1
  23650999.052    -5166316.946 2  -4025683.853 1
  24872359.527       14175.931 2     11046.230 1
 91  4  5 21 10 45.0000000  0  5 18 19 02 11 16
  20733805.284     2405620.140 4   1874505.889 2
  21049138.990     -211998.439 3   -165191.723 2
  23837477.750    -4411022.555 2  -3437156.810 1
  23647485.485    -5184788.573 2  -4040077.232 1
  24868077.890       -8272.279 2     -6445.806 1
 91  4  5 21 11  0.0000000  0  5 18 19 02 11 16
  20739074.429     2433314.775 4   1896086.090 2
  21050515.323     -204779.695 3   -159566.720 2
  23830818.467    -4446043.257 2  -3464445.459 1
  23643998.897    -5203138.755 2  -4054375.965 1
  24863830.123      -30596.558 2    -23841.338 1
 91  4  5 21 11 15.0000000  0  5 18 19 02 11 16
  20744372.664     2461145.524 4   1917772.353 2
  21051900.678     -197499.782 3   -153894.058 2
  23824162.780    -4480992.732 2  -3491678.626 1
  23640532.097    -5221364.409 2  -4068577.651 1
  24859612.056      -52793.760 2    -41137.793 1
 91  4  5 21 11 30.0000000  0  5 18 19 02 11 16
  20749692.782     2489109.150 4   1939562.162 2
  21053298.912     -190162.154 3   -148176.420 2
  23817523.565    -4515874.346 2  -3518858.917 1
  23637081.491    -5239468.635 2  -4082684.868 1
  24855411.649      -74867.272 2    -58337.904 1
 91  4  5 21 11 45.0000000  0  5 18 19 02 11 16
  20755039.878     2517204.146 4   1961454.338 2
  21054703.131     -182768.105 3   -142414.811 2
  23810903.546    -4550689.015 2  -3545987.056 1
  23633660.253    -5257452.262 2  -4096697.920 1
  24851239.145      -96817.986 2    -75442.222 1
 91  4  5 21 12  0.0000000  0  5 18 19 02 11 16
  20760411.857     2545433.491 4   1983451.198 2
  21056124.155     -175314.935 3   -136607.140 2
  23804285.341    -4585434.007 2  -3573060.882 1
  23630261.213    -5275312.290 2  -4110614.719 1
  24847078.018     -118642.754 2    -92448.522 1
 91  4  5 21 12 15.0000000  0  5 18 19 02 11 16
  20765809.035     2573797.356 4   2005552.887 2
  21057552.664     -167802.448 3   -130753.254 2
  23797687.501    -4620109.057 2  -3600080.220 1
  23626885.852    -5293048.211 2  -4124434.734 1
  24842954.689     -140341.308 2   -109356.373 1
 91  4  5 21 12 30.0000000  0  5 18 19 02 11 16
  20771232.877     2602293.756 4   2027757.841 2
  21058992.866     -160232.353 3   -124854.467 2
  23791105.855    -4654715.442 2  -3627046.055 1
  23623538.970    -5310661.233 2  -4138159.069 1
  24838837.938     -161915.342 2   -126167.389 1
 91  4  5 21 12 45.0000000  0  5 18 19 02 11 16
  20776676.804     2630922.431 4   2050065.867 2
  21060445.055     -152604.843 3   -118910.945 2
  23784530.805    -4689253.409 2  -3653958.541 1
  23620206.467    -5328151.283 2  -4151787.595 1
  24834755.948     -183364.769 2   -142881.214 1
 91  4  5 21 13  0.0000000  0  5 18 19 02 11 16
  20782152.822     2659684.573 4   2072477.895 2
  21061908.640     -144918.931 3   -112921.922 2
  23777976.748    -4723721.708 2  -3680816.748 1
  23616898.866    -5345516.953 2  -4165319.272 1
  24830712.960     -204687.913 2   -159496.462 1
 91  4  5 21 13 15.0000000  0  5 18 19 02 11 16
  20787651.002     2688579.804 4   2094993.624 2
  21063379.728     -137174.507 3   -106887.295 2
  23771424.784    -4758120.245 2  -3707620.650 1
  23613616.741    -5362757.905 2  -4178753.635 1
  24826670.547     -225884.770 2   -176013.445 1
 91  4  5 21 13 30.0000000  0  5 18 19 02 11 16
  20793174.379     2717605.636 4   2117611.125 2
  21064864.899     -129374.296 3   -100809.206 2
  23764895.000    -4792451.484 2  -3734372.118 1
  23610366.377    -5379876.606 2  -4192092.754 1
  24822646.143     -246957.795 2   -192434.012 1
 91  4  5 21 13 45.0000000  0  5 18 19 02 11 16
  20798722.938     2746765.089 4   2140332.745 2
  21066361.761     -121515.249 3    -94685.254 2
  23758379.909    -4826712.205 2  -3761068.565 1
  23607128.332    -5396869.432 2  -4205333.841 1
  24818681.087     -267903.802 2   -208755.489 1
 91  4  5 21 14  0.0000000  0  5 18 19 02 11 16
  20804295.194     2776055.947 4   2163156.770 2
  21067867.314     -113599.621 3    -88517.232 2
  23751866.318    -4860904.540 2  -3787711.766 1
  23603918.748    -5413738.319 2  -4218478.380 1
  24814720.533     -288724.744 2   -224979.396 1
 91  4  5 21 14 15.0000000  0  5 18 19 02 11 16
  20809897.708     2805481.248 4   2186085.538 2
  21069383.964     -105624.291 3    -82302.677 2
  23745375.221    -4895025.165 2  -3814299.502 1
  23600731.954    -5430479.987 2  -4231523.702 1
  24810783.049     -309417.646 2   -241103.942 1
 91  4  5 21 14 30.0000000  0  5 18 19 02 11 16
  20815523.013     2835040.156 4   2209118.419 2
  21070913.511      -97590.045 3    -76042.210 2
  23738900.894    -4929074.625 2  -3840831.475 1
  23597574.547    -5447094.611 2  -4244470.035 1
  24806861.775     -329982.606 2   -257128.446 1
 91  4  5 21 14 45.0000000  0  5 18 19 02 11 16
  20821170.497     2864731.238 4   2232254.289 2
  21072454.138      -89498.420 3    -69737.042 2
  23732427.788    -4963054.546 2  -3867309.115 1
  23594432.112    -5463583.595 2  -4257318.504 1
  24802975.856     -350420.884 2   -273054.398 1
 91  4  5 21 15  0.0000000  0  5 18 19 02 11 16
  20826847.070     2894550.933 4   2255490.389 2
  21074005.567      -81352.704 3    -63389.716 2
  23725974.750    -4996967.990 2  -3893735.007 1
  23591324.769    -5479949.900 2  -4270071.401 1
  24799101.943     -370735.743 2   -288884.069 1
 91  4  5 21 15 15.0000000  0  5 18 19 02 11 16
  20832545.823     2924501.538 4   2278828.484 2
  21075560.591      -73150.563 3    -56998.426 2
  23719533.403    -5030812.447 2  -3920107.155 1
  23588231.508    -5496190.779 2  -4282726.534 1
  24795270.294     -390924.244 2   -304615.333 1
 91  4  5 21 15 30.0000000  0  5 18 19 02 11 16
  20838270.960     2954585.876 4   2302270.796 2
  21077136.608      -64889.357 3    -50561.115 2
  23713105.860    -5064585.194 2  -3946423.417 1
  23585160.427    -5512303.383 2  -4295281.632 1
  24791439.552     -410983.996 2   -320246.183 1
 91  4  5 21 15 45.0000000  0  5 18 19 02 11 16
  20844021.278     2984802.100 4   2325815.876 2
  21078716.812      -56571.012 3    -44079.283 2
  23706697.494    -5098287.940 2  -3972685.100 1
  23582117.842    -5528289.104 2  -4307737.922 1
  24787660.358     -430916.436 2   -335777.942 1
 91  4  5 21 16  0.0000000  0  5 18 19 02 11 16
  20849797.090     3015151.525 4   2349464.742 2
  21080312.303      -48193.872 3    -37551.627 2
  23700296.318    -5131918.900 2  -3998890.868 1
  23579105.830    -5544146.048 2  -4320093.891 1
  24783882.683     -450719.910 2   -351209.257 1
 91  4  5 21 16 15.0000000  0  5 18 19 02 11 16
  20855595.972     3045631.193 4   2373215.092 2
  21081917.985      -39761.100 3    -30980.622 2
  23693904.146    -5165480.999 2  -4025042.969 1
  23576110.290    -5559877.045 2  -4332351.769 1
  24780133.765     -470397.312 2   -366542.182 1
 91  4  5 21 16 30.0000000  0  5 18 19 02 11 16
  20861422.443     3076241.065 4   2397066.910 2
  21083536.876      -31272.741 3    -24366.315 2
  23687530.262    -5198974.095 2  -4051141.294 1
  23573141.153    -5575481.782 2  -4344511.178 1
  24776426.537     -489948.216 2   -381776.583 1
 91  4  5 21 16 45.0010000  0  5 18 19 02 11 16
  20867274.080     3106984.564 4   2421022.844 2
  21085156.050      -22726.600 3    -17706.975 2
  23681176.170    -5232398.715 2  -4077186.283 1
  23570200.498    -5590959.297 2  -4356571.454 1
  24772731.596     -509372.387 2   -396912.201 1
 91  4  5 21 17  0.0010000  0  5 18 19 02 11 16
  20873147.614     3137858.965 4   2445080.797 2
  21086797.121      -14122.318 3    -11002.333 2
  23674828.357    -5265748.569 2  -4103173.023 1
  23567277.814    -5606305.539 2  -4368529.474 1
  24769047.750     -528665.062 2   -411945.448
 91  4  5 21 17 15.0010000  0  5 18 19 02 11 16
  20879046.939     3168865.936 4   2469242.033 2
  21088444.474       -5459.871 3     -4252.365 2
  23668494.643    -5299026.363 2  -4129103.596 1
  23564379.123    -5621521.821 2  -4380386.200 1
  24765405.872     -547828.095 2   -426877.634 1
 91  4  5 21 17 30.0010000  0  5 18 19 02 11 16
  20884974.429     3200002.449 4   2493504.220 2
  21090106.520        3257.969 3      2540.761 2
  23662176.216    -5332234.655 2  -4154980.015 1
  23561507.410    -5636610.705 2  -4392143.725 1
  24761784.376     -566864.406 2   -441711.139
 91  4  5 21 17 45.0010000  0  5 18 19 02 11 16
  20890923.819     3231271.063 4   2517869.339 2
  21091774.272       12033.805 3      9379.071 2
  23655868.590    -5365371.081 2  -4180800.410 1
  23558659.378    -5651569.409 2  -4403799.690 1
  24758182.965     -585771.065 2   -456443.462 1
 91  4  5 21 18  0.0010000  0  5 18 19 02 11 16
  20896899.576     3262671.235 4   2542336.968 2
  21093456.997       20867.004 3     16262.097 2
  23649577.141    -5398435.948 2  -4206565.039 1
  23555840.138    -5666398.143 2  -4415354.473 1
  24754612.738     -604548.318 2   -471075.079 1
 91  4  5 21 18 15.0010000  0  5 18 19 02 11 16
  20902899.328     3294202.563 4   2566906.796 2
  21095145.427       29757.194 3     23189.531 2
  23643297.680    -5431429.658 2  -4232274.248 1
  23553041.577    -5681096.998 2  -4426808.032 1
  24751064.097     -623196.410 2   -485605.995 1
 91  4  5 21 18 30.0010000  0  5 18 19 02 11 16
  20908924.260     3325867.071 4   2591580.398 2
  21096852.757       38706.563 3     30163.060 2
  23637033.227    -5464349.683 2  -4257926.046 1
  23550271.494    -5695663.428 2  -4438158.425 1
  24747547.825     -641712.801 2   -500034.268 1
 91  4  5 21 18 45.0010000  0  5 18 19 02 11 16
  20914974.058     3357664.333 4   2616357.463 2
  21098564.867       47714.960 3     37182.580 2
  23630783.745    -5497196.262 2  -4283520.569 1
  23547520.590    -5710097.257 2  -4449405.424 1
  24744041.763     -660097.436 2   -514359.987 1
 91  4  5 21 19  0.0010000  0  5 18 19 02 11 16
  20921051.463     3389591.284 4   2641235.571 2
  21100286.576       56778.975 3     44245.459 2
  23624545.973    -5529972.408 2  -4309060.265 1
  23544802.980    -5724401.525 2  -4460551.535 1
  24740559.973     -678353.803 2   -528585.592 1
 91  4  5 21 19 15.0010000  0  5 18 19 02 11 16
  20927150.140     3421647.426 4   2666214.342 2
  21102020.569       65898.397 3     51351.505 2
  23618317.484    -5562678.182 2  -4334545.089 1
  23542106.642    -5738576.095 2  -4471596.537 1
  24737128.545     -696481.757 2   -542711.243 1
 91  4  5 21 19 30.0010000  0  5 18 19 02 11 16
  20933277.888     3453832.610 4   2691293.677 2
  21103772.571       75073.155 3     58500.673 2
  23612109.081    -5595313.731 2  -4359975.186 1
  23539431.594    -5752620.855 2  -4482540.433 1
  24733692.928     -714481.273 2   -556736.847 1
 91  4  5 21 19 45.0010000  0  5 18 19 02 11 16
  20939426.036     3486150.714 4   2716476.573 2
  21105524.852       84307.196 3     65696.033 2
  23605916.871    -5627874.942 2  -4385347.404 1
  23536787.729    -5766531.489 2  -4493379.789 1
  24730301.967     -732348.380 2   -570659.159 1
 91  4  5 21 20  0.0010000  0  5 18 19 02 11 16
  20945600.569     3518597.913 4   2741760.064 2
  21107295.124       93596.493 3     72934.462 2
  23599732.444    -5660365.467 2  -4410664.495 1
  23534162.745    -5780311.716 2  -4504117.533 1
  24726920.604     -750086.419 2   -584480.955 1
 91  4  5 21 20 15.0010000  0  5 18 19 02 11 16
  20951799.671     3551172.605 4   2767142.900 2
  21109068.991      102939.866 3     80215.014 2
  23593565.118    -5692786.518 2  -4435927.446 1
  23531564.146    -5793962.369 2  -4514754.259 1
  24723563.531     -767696.538 2   -598203.098 1
 91  4  5 21 20 30.0010000  0  5 18 19 02 11 16
  20958022.768     3583875.138 4   2792625.364 2
  21110861.460      112337.471 3     87537.827 2
  23587414.265    -5725137.755 2  -4461136.033 1
  23528990.413    -5807482.992 2  -4525289.805 1
  24720245.738     -785178.535 2   -611825.315
 91  4  5 21 20 45.0010000  0  5 18 19 02 11 16
  20964268.934     3616710.283 4   2818211.154 2
  21112660.804      121793.988 3     94906.543 2
  23581261.929    -5757414.385 2  -4486286.468 1
  23526442.489    -5820868.562 2  -4535720.045 1
  24716950.108     -802527.475 2   -625343.912 1
 91  4  5 21 21  0.0010000  0  5 18 19 02 11 16
  20970542.689     3649673.418 4   2843896.674 2
  21114477.250      131305.255 3    102317.937 2
  23575132.977    -5789620.329 2  -4511381.849 1
  23523922.119    -5834122.985 2  -4546048.032 1
  24713666.483     -819747.551 2   -638762.229 1
 91  4  5 21 21 15.0010000  0  5 18 19 02 11 16
  20976841.327     3682765.821 4   2869682.926 2
  21116289.490      140872.280 3    109772.771 2
  23569018.403    -5821754.490 2  -4536421.242 1
  23521423.353    -5847244.724 2  -4556272.650 1
  24710420.934     -836837.110 2   -652078.706 1
 91  4  5 21 21 30.0010000  0  5 18 19 02 11 16
  20983163.367     3715988.178 4   2895570.440 2
  21118123.926      150495.966 3    117271.746 2
  23562920.337    -5853816.010 2  -4561404.065 1
  23518951.564    -5860232.746 2  -4566393.191 1
  24707182.575     -853795.086 2   -665292.635 1
 91  4  5 21 21 45.0010000  0  5 18 19 02 11 16
  20989508.458     3749340.380 4   2921559.137 2
  21119964.349      160176.512 3    124815.043 2
  23556834.835    -5885804.521 2  -4586329.988 1
  23516505.567    -5873086.649 2  -4576409.095 1
  24703987.684     -870621.237 2   -678403.908 1
 91  4  5 21 22  0.0010000  0  5 18 19 02 11 16
  20995879.654     3782821.031 4   2947647.921 2
  21121816.462      169912.521 3    132401.553 2
  23550756.244    -5917721.160 2  -4611199.937 1
  23514086.531    -5885807.458 2  -4586321.313 1
  24700796.703     -887316.760 2   -691413.350 1
 91  4  5 21 22 15.0010000  0  5 18 19 02 11 16
  21002275.735     3816433.083 4   2973839.097 2
  21123681.175      179706.799 3    140033.458 2
  23544699.849    -5949563.015 2  -4636011.550 1
  23511691.192    -5898392.113 2  -4596127.448 1
  24697635.386     -903878.734 2   -704318.627 1
 91  4  5 21 22 30.0010000  0  5 18 19 02 11 16
  21008696.089     3850174.058 4   3000130.730 2
  21125557.580      189557.090 3    147709.022 2
  23538647.625    -5981332.195 2  -4660766.584 1
  23509320.440    -5910842.477 2  -4605828.976 1
  24694532.528     -920308.762 2   -717121.293 1
 91  4  5 21 22 45.0010000  0  5 18 19 02 11 16
  21015141.013     3884045.500 4   3026524.032 2
  21127439.376      199465.338 3    155429.736 2
  23532620.913    -6013026.665 2  -4685463.397 1
  23506980.855    -5923156.383 2  -4615424.128 1
  24691430.874     -936605.358 2   -729819.942 1
 91  4  5 21 23  0.0010000  0  5 18 19 02 11 16
  21021614.433     3918046.079 4   3053017.938 2
  21129336.459      209429.705 3    163194.187 2
  23526603.171    -6044648.106 2  -4710103.288 1
  23504666.764    -5935335.343 2  -4624914.135 1
  24688343.913     -952769.963 2   -742415.634 1
 91  4  5 21 23 15.0010000  0  5 18 19 02 11 16
  21028106.141     3952172.951 4   3079610.268 2
  21131238.952      219447.611 3    171000.354 2
  23520599.231    -6076199.128 2  -4734688.316 1
  23502366.459    -5947381.816 2  -4634300.866 1
  24685304.312     -968805.084 2   -754910.548 1
 91  4  5 21 23 30.0010000  0  5 18 19 02 11 16
  21034624.530     3986429.223 4   3106303.424 2
  21133161.512      229522.299 3    178850.772 2
  23514613.266    -6107676.073 2  -4759215.645 1
  23500100.914    -5959292.127 2  -4643581.567 1
  24682278.811     -984707.332 2   -767301.811 1
 91  4  5 21 23 45.0010000  0  5 18 19 02 11 16
  21041168.396     4020816.905 4   3133098.974 2
  21135088.889      239655.789 3    186747.018 2
  23508633.321    -6139076.804 2  -4783683.559 1
  23497860.865    -5971063.891 2  -4652754.332 1
  24679272.801    -1000474.367 2   -779587.776 1
 91  4  5 21 24  0.0010000  0  5 18 19 02 11 16
  21047735.350     4055332.609 4   3159994.285 2
  21137031.831      249845.014 3    194686.680 2
  23502673.146    -6170404.643 2  -4808094.671 1
  23495648.701    -5982699.963 2  -4661821.275 1
  24676290.751    -1016109.123 2   -791770.685 1
 91  4  5 21 24 15.0010000  0  5 18 19 02 11 16
  21054331.096     4089976.067 4   3186989.149 2
  21138973.900      260089.614 3    202669.493 2
  23496724.664    -6201659.718 2  -4832449.121 1
  23493459.920    -5994200.391 2  -4670782.517 1
  24673341.106    -1031611.631 2   -803850.543 1
 91  4  5 21 24 30.0010000  0  5 18 19 02 11 16
  21060946.002     4124748.774 4   3214084.716 2
  21140937.835      270391.080 3    210696.624 2
  23490792.357    -6232840.200 2  -4856745.416 1
  23491297.821    -6005563.387 2  -4679636.714 1
  24670420.830    -1046980.462 2   -815826.177 1
 91  4  5 21 24 45.0010000  0  5 18 19 02 11 16
  21067588.811     4159650.166 4   3241280.569 2
  21142907.162      280749.073 3    218767.799 2
  23484866.665    -6263946.387 2  -4880983.831 1
  23489158.790    -6016788.931 2  -4688383.847 1
  24667525.734    -1062215.877 2   -827697.960 1
 91  4  5 21 25  0.0010000  0  6 18 19 02 11 16 06
  21074255.004     4194678.417 4   3268575.270 2
  21144891.793      291161.932 3    226881.721 2
  23478965.542    -6294979.789 2  -4905165.511 1
  23487050.350    -6027878.452 2  -4697024.918 1
  24664641.719    -1077319.016 2   -839466.577 1
  25159551.707           0.914 2         0.147 1
 91  4  5 21 25 15.0010000  0  6 18 19 02 11 16 06
  21080941.875     4229834.192 4   3295969.342 2
  21146880.315      301629.900 3    235038.605 2
  23473074.925    -6325940.223 2  -4929290.386 1
  23484964.089    -6038831.492 2  -4705559.619 1
  24661786.497    -1092289.653 2   -851131.906 1
  25155416.965      -21652.799 2    -16872.685 1
 91  4  5 21 25 30.0010000  0  6 18 19 02 11 16 06
  21087658.726     4265117.804 4   3323463.020 2
  21148886.828      312153.857 3    243239.091 2
  23467194.795    -6356826.718 2  -4953357.572 1
  23482905.714    -6049646.895 2  -4713987.141 1
  24658981.950    -1107126.808 2   -862693.449 1
  25151308.904      -43278.892 2    -33724.094 1
 91  4  5 21 25 45.0010000  0  6 18 19 02 11 16 06
  21094398.645     4300529.049 4   3351056.152 2
  21150896.936      322733.724 3    251483.163 2
  23461329.061    -6387639.029 2  -4977367.018 1
  23480872.834    -6060324.302 2  -4722307.124 1
  24656182.185    -1121830.415 2   -874150.578 1
  25147193.968      -64877.430 2    -50553.902 1
 91  4  5 21 26  0.0010000  0  6 18 19 02 11 16 06
  21101161.372     4336070.332 4   3378750.605 2
  21152921.737      333372.064 3    259772.780 2
  23455487.897    -6418374.588 2  -5001316.618 1
  23478867.821    -6070861.041 2  -4730517.488 1
  24653406.099    -1136397.558 2   -885501.583 1
  25143093.098      -86445.897 2    -67360.731 1
 91  4  5 21 26 15.0010000  0  6 18 19 02 11 16 06
  21107946.576     4371737.741 4   3406543.359 2
  21154958.823      344065.032 3    268104.980 2
  23449647.344    -6449037.311 2  -5025209.468 1
  23476891.287    -6081260.791 2  -4738621.083 1
  24650653.711    -1150832.119 2   -896749.251 1
  25138996.135     -107988.498 2    -84147.284 1
 91  4  5 21 26 30.0010000  0  6 18 19 02 11 16 06
  21114758.757     4407532.196 4   3434435.097 2
  21157004.303      354813.352 3    276480.303 2
  23443822.985    -6479626.309 2  -5049044.902 1
  23474942.342    -6091522.540 2  -4746617.171 1
  24647934.287    -1165133.175 2   -907892.908 1
  25134901.564     -129504.487 2   -100913.199 1
 91  4  5 21 26 45.0010000  0  6 18 19 02 11 16 06
  21121594.024     4443449.819 4   3462422.813 2
  21159053.691      365613.491 3    284896.003 2
  23438026.197    -6510144.899 2  -5072825.412 1
  23473011.964    -6101649.475 2  -4754508.258 1
  24645235.262    -1179303.926 2   -918934.969 1
  25130801.600     -150997.352 2   -117660.793 1
 91  4  5 21 27  0.0010000  0  6 18 19 02 11 16 06
  21128453.583     4479495.550 4   3490510.350 2
  21161124.055      376470.493 3    293356.023 2
  23432232.097    -6540587.789 2  -5096547.025 1
  23471112.787    -6111636.359 2  -4762290.138 1
  24642565.012    -1193339.131 2   -929871.477 1
  25126727.428     -172462.135 2   -134386.451 1
 91  4  5 21 27 15.0010000  0  6 18 19 02 11 16 06
  21135335.914     4515666.801 4   3518695.698 2
  21163201.922      387381.868 3    301858.402 2
  23426447.315    -6570957.331 2  -5120211.442 1
  23469235.789    -6121485.356 2  -4769964.567 1
  24639929.226    -1207241.321 2   -940704.317 1
  25122647.550     -193901.440 2   -151092.470 1
 91  4  5 21 27 30.0010000  0  6 18 19 02 11 16 06
  21142245.834     4551965.800 4   3546980.583 2
  21165288.776      398350.082 3    310405.058 2
  23420681.396    -6601251.191 2  -5143816.884 1
  23467388.160    -6131193.644 2  -4777529.380 1
  24637307.855    -1221008.005 2   -951431.503 1
  25118570.376     -215312.977 2   -167777.024 1
 91  4  5 21 27 45.0010000  0  6 18 19 02 11 16 06
  21149173.727     4588388.475 4   3575361.842 2
  21167384.931      409370.945 3    318992.771 2
  23414933.172    -6631473.433 2  -5167366.521 1
  23465569.621    -6140765.093 2  -4784987.617 1
  24634695.156    -1234643.044 2   -962056.207 1
  25114503.394     -236700.908 2   -184443.002 1
 91  4  5 21 28  0.0010000  0  6 18 19 02 11 16 06
  21156130.413     4624938.688 4   3603842.473 2
  21169492.761      420448.514 3    327624.652 2
  23409198.141    -6661619.775 2  -5190857.011 1
  23463777.763    -6150195.475 2  -4792335.857 1
  24632134.022    -1248142.418 2   -972575.100 1
  25110432.816     -258061.307 1   -201087.668 1
 91  4  5 21 28 15.0010000  0  6 18 19 02 11 16 06
  21163110.186     4661614.147 4   3632420.714 2
  21171609.298      431580.457 3    336298.905 2
  23403470.316    -6691692.359 2  -5214290.035 1
  23462004.786    -6159486.825 2  -4799575.788 1
  24629594.789    -1261507.687 2   -982989.569 1
  25106379.323     -279396.595 2   -217712.788 1
 91  4  5 21 28 30.0010000  0  6 18 19 02 11 16 06
  21170114.233     4698423.398 4   3661103.205 2
  21173741.732      442775.431 3    345022.268 2
  23397768.266    -6721682.702 2  -5237659.000 1
  23460267.198    -6168630.317 2  -4806700.514 1
  24627071.732    -1274730.359 2   -993292.890 1
  25102313.823     -300698.090 2   -234311.252 1
 91  4  5 21 28 45.0010000  0  6 18 19 02 11 16 06
  21177143.774     4735350.782 4   3689877.755 2
  21175878.040      454017.893 3    353782.648 2
  23392072.497    -6751606.088 2  -5260975.782 1
  23458549.992    -6177641.253 2  -4813721.940 1
  24624581.655    -1287826.098 2  -1003497.297 1
  25098269.037     -321981.496 2   -250895.501 1
 91  4  5 21 29  0.0010000  0  6 18 19 02 11 16 06
  21184191.585     4772399.891 4   3718747.156 2
  21178034.154      465311.586 3    362582.937 2
  23386389.938    -6781458.485 2  -5284237.181 1
  23456860.950    -6186515.674 2  -4820636.977 1
  24622113.758    -1300791.114 2  -1013599.898 1
  25094231.423     -343243.253 2   -267463.049 1
 91  4  5 21 29 15.0010000  0  6 18 19 02 11 16 06
  21191266.392     4809574.931 4   3747714.678 2
  21180186.359      476660.910 3    371426.566 2
  23380722.963    -6811235.526 2  -5307439.947 1
  23455203.703    -6195248.780 2  -4827441.877 1
  24619684.252    -1313620.535 2  -1023596.784 1
  25090175.225     -364479.040 1   -284010.262 1
 91  4  5 21 29 30.0010000  0  6 18 19 02 11 16 06
  21198363.378     4846870.878 4   3776776.415 2
  21182360.150      488060.965 3    380309.741 2
  23375070.977    -6840942.008 2  -5330587.694 1
  23453570.136    -6203845.186 3  -4834140.293 1
  24617252.023    -1326319.302 2  -1033491.957 1
  25086149.913     -385693.693 1   -300541.091 1
 91  4  5 21 29 45.0010000  0  6 18 19 02 11 16 06
  21205480.449     4884287.794 4   3805932.412 2
  21184537.850      499512.107 3    389232.714 2
  23369432.480    -6870577.465 2  -5353680.115 1
  23451953.059    -6212304.394 3  -4840731.816 1
  24614868.690    -1338887.118 2  -1043284.964 1
  25082120.711     -406887.013 2   -317055.164 1
 91  4  5 21 30  0.0010000  0  6 18 19 02 11 16 06
  21212627.203     4921829.547 4   3835185.682 2
  21186724.240      511017.970 3    398198.319 2
  23363802.673    -6900138.298 2  -5376714.395 1
  23450377.636    -6220622.317 3  -4847213.254 1
  24612505.424    -1351319.616 2  -1052972.625 1
  25078085.505     -428055.393 2   -333549.846 1
 91  4  5 21 30 15.0010000  0  6 18 19 02 11 16 06
  21219794.950     4959494.213 4   3864534.726 2
  21188925.306      522576.788 3    407205.185 2
  23358196.564    -6929626.172 2  -5399691.792 1
  23448813.328    -6228800.624 3  -4853585.833 1
  24610167.339    -1363618.852 2  -1062556.334 1
  25074058.989     -449200.702 1   -350026.504 1
 91  4  5 21 30 30.0010000  0  6 18 19 02 11 16 06
  21226985.155     4997284.926 4   3893981.991 2
  21191138.988      534192.021 3    416256.031 2
  23352592.828    -6959037.508 2  -5422609.574 1
  23447278.686    -6236835.655 3  -4859846.835 1
  24607846.949    -1375781.016 2  -1072033.306 1
  25070042.071     -470319.757 2   -366482.798 1
 91  4  5 21 30 45.0010000  0  5 18 19 02 11 16
  21234202.059     5035202.426 4   3923528.054 2
  21193356.247      545864.753 3    425351.667 2
  23347014.604    -6988371.175 2  -5445466.838 1
  23445786.326    -6244726.138 3  -4865995.185 1
  24605565.525    -1387805.190 2  -1081402.758 1
 91  4  5 21 31  0.0010000  0  5 18 19 02 11 16
  21241439.066     5073238.721 4   3953166.699 2
  21195588.497      557586.752 3    434485.699 2
  23341444.756    -7017635.206 2  -5468269.828 1
  23444312.533    -6252480.028 3  -4872037.106 1
  24603299.684    -1399699.321 2  -1090670.856 1
 91  4  5 21 31 15.0010000  0  5 18 19 02 11 16
  21248701.236     5111392.866 4   3982897.143 2
  21197828.250      569357.350 3    443657.594 2
  23335893.493    -7046830.197 2  -5491019.028 1
  23442858.546    -6260097.826 3  -4877972.924 1
  24601064.136    -1411463.856 2  -1099837.902 1
 91  4  5 21 31 30.0010000  0  5 18 19 02 11 16
  21255985.882     5149669.338 4   4012722.919 2
  21200079.991      581181.144 3    452870.958 2
  23330348.843    -7075951.475 2  -5513710.780 1
  23441432.427    -6267574.648 2  -4883798.930 1
  24598847.173    -1423094.342 2  -1108900.677 1
 91  4  5 21 31 45.0010000  0  5 18 19 02 11 16
  21263288.239     5188065.220 4   4042641.736 2
  21202339.218      593055.336 3    462123.557 2
  23324825.466    -7105001.962 2  -5536347.364 1
  23440036.898    -6274913.185 2  -4889517.268 1
  24596667.380    -1434593.196 2  -1117860.711 1
 91  4  5 21 32  0.0010000  0  5 18 19 02 11 16
  21270620.262     5226582.552 4   4072655.195 2
  21204612.545      604981.993 3    471417.058 2
  23319303.885    -7133979.174 2  -5558926.870 1
  23438667.440    -6282110.868 3  -4895125.747 1
  24594489.086    -1445958.414 2  -1126716.632 1
 91  4  5 21 32 15.0010000  0  5 18 19 02 11 16
  21277971.463     5265217.826 4   4102760.549 2
  21206887.670      616957.799 3    480748.852 2
  23313801.482    -7162886.211 2  -5581451.682 1
  23437327.682    -6289170.806 3  -4900626.891 1
  24592360.858    -1457193.068 2  -1135470.870 1
 91  4  5 21 32 30.0010000  0  5 18 19 02 11 16
  21285347.862     5303980.005 4   4132964.799 2
  21209178.691      628992.125 3    490126.252 2
  23308323.091    -7191713.726 2  -5603914.555 1
  23436005.584    -6296083.593 3  -4906013.415 1
  24590241.023    -1468287.604 2  -1144115.966 1
 91  4  5 21 32 45.0010000  0  5 18 19 02 11 16
  21292748.535     5342860.075 4   4163260.903 2
  21211475.105      641075.652 3    499541.995 2
  23302844.979    -7220471.008 2  -5626322.663 1
  23434719.189    -6302858.165 3  -4911292.262 1
  24588164.970    -1479251.298 2  -1152659.043 1
 91  4  5 21 33  0.0010000  0  5 18 19 02 11 16
  21300168.105     5381861.350 4   4193651.468 2
  21213785.898      653212.007 3    508998.896 2
  23297391.455    -7249154.397 3  -5648673.195 1
  23433458.550    -6309490.788 3  -4916460.418 1
  24586104.187    -1490080.368 2  -1161097.281 1
 91  4  5 21 33 15.0010000  0  5 18 19 02 11 16
  21307613.450     5420982.507 4   4224135.439 2
  21216102.990      665399.875 3    518495.936 2
  23291946.027    -7277765.040 3  -5670967.079 1
  23432219.812    -6315982.403 3  -4921518.772 1
  24584061.115    -1500775.991 2  -1169431.456 1
 91  4  5 21 33 30.0010000  0  5 18 19 02 11 16
  21315080.381     5460217.639 4   4254708.217 2
  21218439.278      677633.558 3    528028.678 2
  23286512.291    -7306308.614 3  -5693208.674 1
  23431015.537    -6322338.446 3  -4926471.482 1
  24582056.399    -1511343.695 2  -1177665.952 1
 91  4  5 21 33 45.0010000  0  5 18 19 02 11 16
  21322568.898     5499572.032 4   4285373.931 2
  21220770.470      689918.415 3    537601.299 2
  23281094.435    -7334779.821 2  -5715393.865 1
  23429834.367    -6328553.398 3  -4931314.226 1
  24580065.469    -1521778.133 2  -1185796.677 1
 91  4  5 21 34  0.0010000  0  6 18 19 02 11 16 06
  21330078.389     5539045.773 4   4316132.646 2
  21223122.044      702254.803 3    547214.062 2
  23275690.678    -7363177.750 2  -5737521.991 1
  23428678.063    -6334626.634 3  -4936046.530 1
  24578106.927    -1532078.775 2  -1193823.082 1
  25014201.235      148329.75612    115581.753 1
 91  4  5 21 34 15.0010000  0  6 18 19 02 11 16 06
  21337615.173     5578638.155 4   4346983.803 2
  21225472.413      714642.257 3    556866.625 2
  23270298.910    -7391503.128 2  -5759593.575 1
  23427549.941    -6340558.473 3  -4940668.700 1
  24576164.874    -1542245.857 2  -1201745.433 1
  25010238.570      127521.142 2     99367.038 1
 91  4  5 21 34 30.0010000  0  6 18 19 02 11 16 06
  21345170.245     5618347.498 4   4377926.096 2
  21227839.867      727079.127 3    566557.690 2
  23264919.723    -7419757.445 2  -5781609.767 1
  23426446.407    -6346350.297 3  -4945181.750 1
  24574264.493    -1552281.164 2  -1209565.086 1
  25006288.503      106730.462 2     83166.619 1
 91  4  5 21 34 45.0010000  0  6 18 19 02 11 16 06
  21352748.107     5658175.114 4   4408960.555 2
  21230218.419      739567.011 3    576288.519 2
  23259563.937    -7447939.043 2  -5803569.309 1
  23425372.852    -6352000.434 3  -4949584.407 1
  24572382.697    -1562182.894 2  -1217280.704 1
  25002339.048       85959.094 2     66981.356 1
 91  4  5 21 35  0.0010000  0  6 18 19 02 11 16 06
  21360351.428     5698122.723 4   4440088.511 2
  21232611.071      752107.659 3    586060.449 2
  23254208.745    -7476046.232 2  -5825470.852 1
  23424324.478    -6357506.942 3  -4953875.135 1
  24570520.985    -1571949.293 2  -1224890.844 1
  24998381.775       65208.736 2     50812.423 1
 91  4  5 21 35 15.0010000  0  6 18 19 02 11 16 06
  21367976.353     5738188.479 4   4471308.538 2
  21235000.721      764699.047 3    595871.926 2
  23248873.340    -7504080.725 2  -5847315.770 1
  23423301.878    -6362871.419 3  -4958055.183 1
  24568690.754    -1581582.075 2  -1232396.846 1
  24994440.416       44477.494 2     34658.344 1
 91  4  5 21 35 30.0010000  0  6 18 19 02 11 16 06
  21375623.772     5778372.776 4   4502620.924 2
  21237405.954      777342.123 3    605723.673 2
  23243558.912    -7532041.576 3  -5869103.309 1
  23422305.977    -6368092.748 3  -4962123.706 1
  24566877.013    -1591080.377 2  -1239798.093 1
  24990496.335       23765.991 2     18519.746 1
 91  4  5 21 35 45.0010000  0  6 18 19 02 11 16 06
  21383292.148     5818675.475 4   4534025.578 2
  21239822.583      790037.062 3    615615.843 2
  23238250.800    -7559928.696 2  -5890833.361 1
  23421341.538    -6373170.656 3  -4966080.434 1
  24565100.442    -1600443.751 2  -1247094.203 1
  24986564.854        3074.240 2      2396.553 1
 91  4  5 21 36  0.0010000  0  6 18 19 02 11 16 06
  21390984.832     5859099.116 4   4565524.475 2
  21242250.588      802786.261 3    625550.275 2
  23232957.957    -7587739.374 2  -5912503.885 1
  23420398.092    -6378102.556 3  -4969923.459 1
  24563341.844    -1609669.695 2  -1254283.238 1
  24982629.777      -17595.433 2    -13709.646 1
 91  4  5 21 36 15.0010000  0  6 18 19 02 11 16 06
  21398702.086     5899643.992 4   4597117.830 2
  21244683.411      815590.094 3    635527.299 2
  23227683.716    -7615473.095 3  -5934114.420 1
  23419490.628    -6382887.823 3  -4973652.178 1
  24561610.555    -1618757.600 2  -1261364.639 1
  24978705.206      -38242.620 2    -29798.278 1
 91  4  5 21 36 30.0010000  0  6 18 19 02 11 16 06
  21406438.239     5940310.620 4   4628806.064 2
  21247137.504      828449.226 3    645547.403 2
  23222419.351    -7643129.232 3  -5955664.494 1
  23418606.844    -6387525.429 3  -4977265.797 1
  24559911.026    -1627706.935 2  -1268338.109 1
  24974779.413      -58866.667 2    -45868.720 1
 91  4  5 21 36 45.0010000  0  6 18 19 02 11 16 06
  21414198.351     5981097.363 4   4660587.886 2
  21249589.522      841362.269 3    655609.516 2
  23217169.994    -7670709.169 3  -5977155.244 1
  23417756.618    -6392016.792 3  -4980765.546 1
  24558223.189    -1636519.309 2  -1275204.914 1
  24970850.339      -79469.212 2    -61922.452 1
 91  4  5 21 37  0.0010000  0  6 18 19 02 11 16 06
  21421986.365     6022003.951 4   4692463.091 2
  21252057.401      854329.188 3    665713.610 2
  23211936.814    -7698212.951 3  -5998586.579 1
  23416932.199    -6396361.784 3  -4984151.181 1
  24556580.338    -1645194.685 2  -1281964.834 1
  24966934.144     -100050.562 2    -77959.662 1
 91  4  5 21 37 15.0010000  0  6 18 19 02 11 16 06
  21429789.370     6063026.401 4   4724428.572 2
  21254534.599      867346.105 3    675856.657 2
  23206717.715    -7725644.120 3  -6019961.374 1
  23416125.162    -6400563.780 3  -4987425.407 1
  24554956.351    -1653736.448 2  -1288620.728 1
  24963027.250     -120614.408 2    -93983.346 1
 91  4  5 21 37 30.0010000  0  6 18 19 02 11 16 06
  21437619.946     6104168.725 4   4756487.477 2
  21257019.580      880417.135 3    686041.886 2
  23201507.028    -7752998.593 3  -6041276.406 1
  23415357.980    -6404618.625 3  -4990584.953 1
  24553353.967    -1662140.298 2  -1295169.198 1
  24959111.072     -141156.684 2   -109990.562 1
 91  4  5 21 37 45.0010000  0  6 18 19 02 11 16 06
  21445470.903     6145432.335 4   4788640.896 2
  21259521.034      893543.956 3    696270.575 2
  23196321.521    -7780274.563 3  -6062530.246 1
  23414612.402    -6408524.617 3  -4993628.556 1
  24551788.456    -1670404.606 2  -1301608.851
  24955213.164     -161676.080 2   -125979.521 1
 91  4  5 21 38  0.0010000  0  6 18 19 02 11 16 06
  21453343.464     6186815.132 4   4820887.180 2
  21262029.398      906724.599 3    706541.213 2
  23191142.314    -7807474.102 3  -6083724.543 1
  23413897.397    -6412283.376 3  -4996557.406 1
  24550232.821    -1678531.474 2  -1307941.418 1
  24951303.565     -182174.508 2   -141952.195 1
 91  4  5 21 38 15.0010000  0  6 18 19 02 11 16 06
  21461246.581     6228313.870 4   4853223.799 2
  21264545.859      919955.895 3    716851.323 2
  23185977.486    -7834600.201 3  -6104861.624 1
  23413204.571    -6415897.873 3  -4999373.808 1
  24548717.968    -1686523.623 2  -1314169.049 1
  24947412.568     -202655.248 2   -157911.451
 91  4  5 21 38 30.0010000  0  6 18 19 02 11 16 06
  21469163.203     6269931.364 4   4885652.963 2
  21267077.310      933240.957 3    727203.319 2
  23180835.448    -7861649.870 3  -6125939.135 1
  23412551.636    -6419364.892 3  -5002075.333 1
  24547223.514    -1694377.907 2  -1320289.219 1
  24943519.163     -223115.342 2   -173854.268 1
 91  4  5 21 38 45.0010000  0  6 18 19 02 11 16 06
  21477107.712     6311670.845 4   4918177.183 2
  21269608.761      946583.237 3    737599.904 2
  23175702.989    -7888619.456 3  -6146954.263 1
  23411920.270    -6422680.739 3  -5004659.049 1
  24545760.226    -1702090.959 2  -1326299.302 1
  24939632.947     -243551.455 2   -189778.357 1
 91  4  5 21 39  0.0010000  0  6 18 19 02 11 16 06
  21485073.789     6353526.607 4   4950792.007 2
  21272163.891      959977.079 3    748036.662 2
  23170583.741    -7915514.257 3  -6167911.076 1
  23411313.788    -6425850.715 3  -5007129.089 1
  24544309.519    -1709668.336 2  -1332203.789 1
  24935741.339     -263969.129 2   -205688.030 1
 91  4  5 21 39 15.0010000  0  6 18 19 02 11 16 06
  21493057.874     6395498.021 4   4983496.960 2
  21274722.320      973422.036 3    758513.259 2
  23165479.465    -7942334.897 3  -6188810.124 1
  23410742.677    -6428875.249 3  -5009485.880 1
  24542902.299    -1717110.465 2  -1338002.766 1
  24931863.831     -284368.998 2   -221583.834 1
 91  4  5 21 39 30.0010000  0  6 18 19 02 11 16 06
  21501069.217     6437587.367 4   5016293.806 2
  21277289.736      986920.256 3    769031.356 2
  23160390.790    -7969079.234 3  -6209649.738 1
  23410194.356    -6431752.069 3  -5011727.470 1
  24541506.473    -1724414.987 2  -1343694.598 1
  24927989.603     -304749.087 2   -237464.306 1
 91  4  5 21 39 45.0010000  0  6 18 19 02 11 16 06
  21509101.552     6479794.206 4   5049182.190 2
  21279868.546     1000471.743 3    779590.958 2
  23155314.417    -7995747.232 3  -6230429.850 1
  23409672.124    -6434480.889 3  -5013853.754 1
  24540149.911    -1731581.683 2  -1349279.038 1
  24924113.892     -325109.500 2   -253329.376 1
 91  4  5 21 40  0.0010000  0  6 18 19 02 11 16 06
  21517153.379     6522116.109 4   5082160.237 2
  21282460.567     1014074.403 3    790190.431 2
  23150254.220    -8022340.746 3  -6251151.921 1
  23409183.465    -6437063.751 3  -5015866.322 1
  24538807.134    -1738612.853 2  -1354757.830 1
  24920237.885     -345452.422 2   -269180.859 1
 91  4  5 21 40 15.0010000  0  6 18 19 02 11 16 06
  21525227.996     6564551.496 4   5115226.709 2
  21285052.866     1027726.751 3    800828.623 2
  23145206.902    -8048861.344 3  -6271817.181 1
  23408719.080    -6439501.835 3  -5017766.106 1
  24537487.758    -1745509.788 2  -1360132.042 1
  24916369.364     -365779.501 2   -285019.961 1
 91  4  5 21 40 30.0010000  0  6 18 19 02 11 16 06
  21533328.980     6607102.761 4   5148383.483 2
  21287659.562     1041431.435 3    811507.614 2
  23140175.795    -8075306.335 3  -6292423.556 1
  23408279.893    -6441792.415 3  -5019550.875 1
  24536213.927    -1752269.925 2  -1365399.591 1
  24912514.331     -386088.195 2   -300844.769 1
 91  4  5 21 40 45.0010000  0  6 18 19 02 11 16 06
  21541447.659     6649771.874 4   5181632.089 2
  21290278.840     1055190.641 3    822229.071 2
  23135158.159    -8101673.433 3  -6312969.181 1
  23407878.765    -6443933.178 3  -5021218.937 1
  24534943.115    -1758890.880 2  -1370558.757 1
  24908647.607     -406376.362 2   -316653.617 1
 91  4  5 21 41  0.0010000  0  6 18 19 02 11 16 06
  21549586.737     6692561.601 4   5214974.673 2
  21292910.124     1069006.888 3    832994.968 2
  23130159.719    -8127959.897 3  -6333452.003 1
  23407495.628    -6445921.262 3  -5022768.048 1
  24533706.470    -1765370.112 2  -1375607.393 1
  24904793.762     -426641.474 2   -332444.491 1
 91  4  5 21 41 15.0010000  0  6 18 19 02 11 16 06
  21557751.886     6735464.837 4   5248405.710 2
  21295548.300     1082873.488 3    843800.122 2
  23125174.471    -8154172.498 3  -6353877.294 1
  23407143.064    -6447763.326 3  -5024203.369 1
  24532504.307    -1771714.395 2  -1380551.006 1
  24900926.741     -446890.427 2   -348222.696 1
 91  4  5 21 41 30.0010000  0  6 18 19 02 11 16 06
  21565937.714     6778477.374 4   5281921.915 2
  21298200.262     1096786.568 3    854641.484 2
  23120197.913    -8180315.098 3  -6374248.007 1
  23406819.589    -6449462.978 3  -5025527.678 1
  24531323.120    -1777927.373 2  -1385392.268 1
  24897074.117     -467127.261 2   -363991.600 1
 91  4  5 21 41 45.0010000  0  6 18 19 02 11 16 06
  21574143.330     6821603.189 4   5315526.384 2
  21300851.630     1110750.139 3    865522.200 2
  23115232.157    -8206383.632 3  -6394561.012 1
  23406526.094    -6451016.148 3  -5026737.911 1
  24530171.911    -1784005.192 2  -1390128.183 1
  24893229.869     -487347.991 2   -379747.796 1
 91  4  5 21 42  0.0010000  0  6 18 19 02 11 16 06
  21582371.735     6864845.176 4   5349221.380 2
  21303520.676     1124767.387 3    876444.730 2
  23110287.986    -8232374.755 3  -6414813.680 1
  23406256.889    -6452419.512 3  -5027831.410 1
  24529045.290    -1789944.618 2  -1394756.310 1
  24889386.528     -507549.662 2   -395489.216 1
 91  4  5 21 42 15.0010000  0  6 18 19 02 11 16 06
  21590622.024     6908202.924 4   5383006.579 2
  21306198.133     1138837.915 3    887408.777 2
  23105354.304    -8258289.008 3  -6435006.478 1
  23406017.943    -6453673.196 3  -5028808.224 1
  24527930.972    -1795745.674 2  -1399276.585 1
  24885549.784     -527732.637 2   -411216.095 1
 91  4  5 21 42 30.0010000  0  6 18 19 02 11 16 06
  21598893.305     6951674.536 4   5416880.500 2
  21308883.966     1152959.996 3    898412.995 2
  23100442.190    -8284127.957 3  -6455140.586 1
  23405811.699    -6454778.662 3  -5029669.552 1
  24526851.711    -1801409.740 2  -1403690.055 1
  24881715.151     -547898.593 2   -426929.625 1
 91  4  5 21 42 45.0010000  0  6 18 19 02 11 16 06
  21607190.657     6995261.879 4   5450844.604 2
  21311579.693     1167135.539 3    909458.875 2
  23095530.390    -8309889.392 3  -6475214.316 1
  23405623.429    -6455733.812 3  -5030413.792 1
  24525810.229    -1806935.258 2  -1407995.625 1
  24877878.110     -568045.741 2   -442628.548 1
 91  4  5 21 43  0.0010000  0  6 18 19 02 11 16 06
  21615505.703     7038963.762 4   5484897.954 2
  21314293.428     1181363.836 3    920545.856 2
  23090645.882    -8335573.998 3  -6495228.137 2
  23405479.220    -6456539.367 3  -5031041.446 1
  24524772.657    -1812322.993 2  -1412193.800 1
  24874039.568     -588174.998 2   -458313.584 1
 91  4  5 21 43 15.0010000  0  6 18 19 02 11 16 06
  21623844.429     7082779.444 4   5519039.993 2
  21317004.739     1195644.428 3    931673.601 2
  23085766.749    -8361182.408 3  -6515182.634 1
  23405352.706    -6457195.616 3  -5031552.731 1
  24523780.333    -1817573.192 2  -1416284.814 1
  24870228.004     -608287.011 2   -473985.123 1
 91  4  5 21 43 30.0010000  0  6 18 19 02 11 16 06
  21632201.740     7126710.263 4   5553271.736 2
  21319733.761     1209978.642 3    942843.118 2
  23080913.110    -8386713.198 3  -6535076.614 1
  23405251.076    -6457701.203 3  -5031946.667 1
  24522814.708    -1822684.315 2  -1420267.476 1
  24866393.947     -628380.611 2   -489642.374 1
 91  4  5 21 43 45.0010000  0  6 18 19 02 11 16 06
  21640585.138     7170753.649 4   5587591.186 2
  21322471.159     1224364.057 3    954052.529 2
  23076071.163    -8412168.748 3  -6554911.974 1
  23405187.226    -6458058.350 3  -5032224.899 1
  24521870.965    -1827659.081 2  -1424143.934 1
  24862579.399     -648458.254 2   -505287.114 1
 91  4  5 21 44  0.0010000  0  6 18 19 02 11 16 06
  21648982.619     7214911.194 4   5621999.602 2
  21325220.563     1238802.621 3    965303.361 2
  23071238.814    -8437547.137 3  -6574687.216 1
  23405148.556    -6458264.917 3  -5032385.778 1
  24520941.305    -1832495.312 2  -1427912.398 1
  24858751.938     -668517.999 2   -520917.867
 91  4  5 21 44 15.0010000  0  6 18 19 02 11 16 06
  21657413.081     7259182.319 4   5656496.503 2
  21327975.341     1253294.186 3    976595.495 2
  23066426.550    -8462848.422 3  -6594402.386 1
  23405139.255    -6458320.944 3  -5032429.426 1
  24520051.815    -1837193.199 2  -1431573.101 1
  24854958.069     -688560.169 2   -536534.951 1
 91  4  5 21 44 30.0010000  0  6 18 19 02 11 16 06
  21665860.330     7303567.132 4   5691082.009 2
  21330748.129     1267838.819 3    987928.984 2
  23061625.960    -8488072.360 3  -6614057.267 1
  23405152.151    -6458226.246 3  -5032355.533 1
  24519174.330    -1841752.671 2  -1435125.836 1
  24851134.220     -708584.773 2   -552138.351
 91  4  5 21 44 45.0010000  0  6 18 19 02 11 16 06
  21674327.682     7348064.866 4   5725755.500 2
  21333521.509     1282435.577 3    999303.082 2
  23056841.582    -8513219.873 3  -6633652.606 1
  23405204.606    -6457981.438 3  -5032164.727 1
  24518334.312    -1846174.498 2  -1438571.464 1
  24847313.059     -728592.784 2   -567728.873 1
 91  4  5 21 45  0.0010000  0  6 18 19 02 11 16 06
  21682815.991     7392676.637 4   5760517.843 2
  21336309.880     1297086.226 3   1010719.174 2
  23052069.191    -8538289.162 3  -6653186.998 1
  23405272.662    -6457584.817 3  -5031855.627 1
  24517529.368    -1850456.916 2  -1441908.376 1
  24843514.390     -748582.687 2   -583305.573 1
 91  4  5 21 45 15.0010000  0  6 18 19 02 11 16 06
  21691327.405     7437400.243 4   5795367.354 2
  21339109.645     1311788.585 3   1022175.561 2
  23047315.368    -8563282.350 3  -6672662.080 1
  23405376.997    -6457038.394 3  -5031429.779 1
  24516726.519    -1854602.059 2  -1445138.426 1
  24839713.018     -768556.727 2   -598869.731 1
 91  4  5 21 45 30.0010000  0  6 18 19 02 11 16 06
  21699860.108     7482237.109 4   5830305.105 2
  21341917.804     1326544.336 3   1033673.550 2
  23042576.256    -8588197.824 3  -6692076.621 1
  23405510.700    -6456340.352 3  -5030885.783 1
  24515966.248    -1858608.160 2  -1448259.971 1
  24835932.934     -788513.372 2   -614420.186 1
 91  4  5 21 45 45.0010000  0  6 18 19 02 11 16 06
  21708411.674     7527190.560 4   5865333.700 2
  21344734.042     1341357.472 3   1045216.243 2
  23037847.927    -8613031.585 3  -6711427.481 1
  23405673.790    -6455486.680 3  -5030220.535 1
  24515237.160    -1862471.560 2  -1451270.327 1
  24832128.874     -808448.738 2   -629954.122 1
 91  4  5 21 46  0.0010000  0  6 18 19 02 11 16 06
  21716989.049     7572255.879 4   5900449.458 2
  21347570.383     1356223.105 3   1056799.859 2
  23033137.886    -8637788.448 3  -6730718.436 1
  23405863.858    -6454481.953 3  -5029437.598 1
  24514530.845    -1866196.909 2  -1454173.194 1
  24828335.301     -828367.816 2   -645475.269 1
 91  4  5 21 46 15.0010000  0  6 18 19 02 11 16 06
  21725586.196     7617433.783 4   5935652.954 2
  21350403.722     1371141.886 3   1068424.884 2
  23028442.242    -8662467.715 3  -6749948.904 1
  23406087.500    -6453325.331 3  -5028536.267 1
  24513845.819    -1869783.595 2  -1456968.026 1
  24824552.216     -848269.965 2   -660983.252 1
 91  4  5 21 46 30.0010000  0  6 18 19 02 11 16 06
  21734204.928     7662722.859 4   5970943.075 2
  21353258.351     1386112.614 3   1080090.391 2
  23023759.180    -8687070.416 3  -6769119.684 1
  23406339.324    -6452017.851 3  -5027517.380 1
  24513189.866    -1873232.599 2  -1459655.557 1
  24820772.132     -868156.501 2   -676479.037 1
 91  4  5 21 46 45.0010000  0  6 18 19 02 11 16 06
  21742844.339     7708127.161 4   6006322.976 2
  21356112.963     1401139.510 3   1091799.651 2
  23019089.013    -8711592.138 3  -6788227.412 1
  23406616.643    -6450555.228 3  -5026377.623 1
  24512559.110    -1876539.299 2  -1462232.144 1
  24816980.968     -888023.202 2   -691959.384 1
 91  4  5 21 47  0.0010000  0  6 18 19 02 11 16 06
  21751508.041     7753647.079 4   6041792.968 2
  21358983.488     1416223.464 3   1103553.389 2
  23014440.729    -8736032.026 3  -6807271.383 1
  23406922.720    -6448936.439 3  -5025116.222 1
  24511951.127    -1879702.999 2  -1464697.370 1
  24813208.667     -907869.359 2   -707423.721 1
 91  4  5 21 47 15.0010000  0  6 18 19 02 11 16 06
  21760192.438     7799276.772 4   6077348.512 2
  21361861.483     1431358.628 3   1115347.027 2
  23009804.136    -8760395.909 3  -6826256.090 1
  23407261.795    -6447167.246 3  -5023737.554 1
  24511382.424    -1882729.926 2  -1467056.000 1
  24809436.977     -927700.940 2   -722876.815 1
 91  4  5 21 47 30.0010000  0  6 18 19 02 11 16 06
  21768896.013     7845020.118 4   6112992.604 2
  21364757.486     1446549.079 3   1127183.738 2
  23005182.847    -8784679.895 3  -6845178.559 1
  23407624.532    -6445243.456 3  -5022238.465 1
  24510830.805    -1885615.639 2  -1469304.613 1
  24805664.397     -947513.975 2   -738315.300 1
 91  4  5 21 47 45.0010000  0  6 18 19 02 11 16 06
  21777619.360     7890877.275 4   6148725.389 2
  21367649.877     1461795.348 3   1139063.947 2
  23000577.124    -8808883.467 3  -6864038.350 1
  23408017.564    -6443164.558 3  -5020618.473 1
  24510308.259    -1888359.662 2  -1471442.765 1
  24801896.912     -967308.181 2   -753739.184 1
 91  4  5 21 48  0.0010000  0  6 18 19 02 11 16 06
  21786370.906     7936848.629 4   6184547.149 2
  21370566.856     1477098.017 3   1150988.098 2
  22995986.408    -8833005.944 3  -6882834.967 1
  23408442.075    -6440929.731 3  -5018877.004 1
  24509811.817    -1890961.695 2  -1473470.331 1
  24798142.009     -987082.977 2   -769147.975 1
 91  4  5 21 48 15.0010000  0  6 18 19 02 11 16 06
  21795135.941     7982930.992 4   6220455.411 2
  21373488.336     1492454.312 3   1162954.047 2
  22991411.868    -8857049.942 3  -6901570.448 1
  23408899.253    -6438541.455 3  -5017016.003 1
  24509341.133    -1893424.251 2  -1475389.139 1
  24794375.712    -1006841.138 2   -784543.819 1
 91  4  5 21 48 30.0010000  0  6 18 19 02 11 16 06
  21803928.547     8029127.710 4   6256452.776 2
  21376422.713     1507867.517 3   1174964.335 2
  22986851.132    -8881012.188 3  -6920242.193 1
  23409385.225    -6435996.523 3  -5015032.904 1
  24508895.053    -1895744.143 2  -1477196.862 1
  24790617.511    -1026579.618 2   -799924.236 1
 91  4  5 21 48 45.0010000  0  6 18 19 02 11 16 06
  21812741.256     8075436.846 4   6292537.755 2
  21379364.278     1523335.913 3   1187017.625 2
  22982302.977    -8904894.103 3  -6938851.368 1
  23409897.563    -6433296.455 3  -5012928.883 1
  24508487.625    -1897923.050 2  -1478894.732 1
  24786861.421    -1046300.234 2   -815290.771 1
 91  4  5 21 49  0.0010000  0  6 18 19 02 11 16 06
  21821574.940     8121854.585 4   6328707.334 2
  21382321.724     1538856.097 3   1199111.275 2
  22977777.612    -8928699.336 3  -6957400.767 1
  23410443.179    -6430444.657 3  -5010706.661 1
  24508095.501    -1899964.318 2  -1480485.293 1
  24783119.710    -1066006.475 2   -830646.140 1
 91  4  5 21 49 15.0010000  0  6 18 19 02 11 16 06
  21830429.914     8168386.666 4   6364966.026 2
  21385279.780     1554434.038 3   1211249.927 2
  22973263.938    -8952422.075 3  -6975885.899 1
  23411013.696    -6427435.229 3  -5008361.614 1
  24507747.143    -1901861.848 2  -1481963.884 1
  24779375.295    -1085692.641 2   -845985.881 1
 91  4  5 21 49 30.0010000  0  6 18 19 02 11 16 06
  21839304.658     8215030.198 4   6401311.557 2
  21388255.810     1570067.005 3   1223431.463 2
  22968761.660    -8976064.855 3  -6994308.745 1
  23411616.881    -6424270.614 3  -5005895.678 1
  24507405.677    -1903618.671 2  -1483332.816 1
  24775631.194    -1105361.464 2   -861312.071 1
 91  4  5 21 49 45.0010000  0  6 18 19 02 11 16 06
  21848202.803     8261783.802 4   6437742.870 2
  21391239.361     1585753.573 3   1235654.760 2
  22964278.263    -8999628.978 3  -7012670.273 1
  23412246.746    -6420952.081 3  -5003309.773 1
  24507105.289    -1905236.070 2  -1484593.079 1
  24771893.375    -1125014.341 2   -876625.874 1
 91  4  5 21 50  0.0010000  0  6 18 19 02 11 16 06
  21857119.830     8308645.178 4   6474258.147 2
  21394239.071     1601491.855 3   1247918.360 2
  22959808.058    -9023116.350 3  -7030972.028 1
  23412908.075    -6417481.448 3  -5000605.358 1
  24506818.983    -1906715.795 2  -1485746.116 1
  24768143.567    -1144653.364 2   -891928.792 1
 91  4  5 21 50 15.0010000  0  6 18 19 02 11 16 06
  21866057.849     8355614.121 4   6510857.242 2
  21397241.800     1617281.857 3   1260222.259 2
  22955354.344    -9046526.935 3  -7049213.918 2
  23413590.710    -6413858.525 3  -4997782.265 1
  24506558.765    -1908057.817 2  -1486791.887 1
  24764414.752    -1164278.571 2   -907220.970 1
 91  4  5 21 50 30.0010000  0  6 18 19 02 11 16 06
  21875018.343     8402696.245 4   6547544.541 2
  21400261.315     1633129.450 3   1272571.027 2
  22950915.619    -9069854.833 3  -7067391.361 1
  23414315.312    -6410077.523 3  -4994836.005 1
  24506330.621    -1909256.337 2  -1487725.757 1
  24760683.232    -1183884.123 2   -922497.959 1
 91  4  5 21 50 45.0010000  0  6 18 19 02 11 16 06
  21883999.517     8449887.273 4   6584316.700 2
  21403282.018     1649030.464 3   1284961.428 2
  22946491.570    -9093104.258 3  -7085507.686 1
  23415061.798    -6406142.373 3  -4991769.600 1
  24506135.755    -1910315.419 2  -1488551.028 1
  24756955.325    -1203474.451 2   -937763.069 1
 91  4  5 21 51  0.0010000  0  6 18 19 02 11 16 06
  21893001.089     8497188.095 3   6621174.395 2
  21406322.212     1664986.002 3   1297394.314 2
  22942081.324    -9116274.078 3  -7103561.984 1
  23415845.156    -6402051.892 3  -4988582.221 1
  24505955.878    -1911233.906 2  -1489266.717 1
  24753224.992    -1223048.465 2   -953015.785 1
 91  4  5 21 51 15.0010000  0  6 18 19 02 11 16 06
  21902023.341     8544593.577 4   6658113.675 2
  21409364.204     1680991.393 3   1309866.046 2
  22937687.272    -9139368.835 3  -7121557.783 1
  23416648.284    -6397810.779 3  -4985277.429 1
  24505801.478    -1912016.764 2  -1489876.739 1
  24749505.775    -1242611.132 2   -968259.321 1
 91  4  5 21 51 30.0010000  0  6 18 19 02 11 16 06
  21911062.990     8592103.072 4   6695133.969 2
  21412421.796     1697046.023 3   1322376.152 2
  22933304.912    -9162389.140 3  -7139495.559 2
  23417488.914    -6393419.487 3  -4981855.621 1
  24505690.268    -1912664.599 2  -1490381.455 1
  24745791.042    -1262162.996 2   -983494.415 1
 91  4  5 21 51 45.0010000  0  6 18 19 02 11 16 06
  21920121.520     8639718.342 3   6732236.701 2
  21415483.262     1713152.155 3   1334926.367 2
  22928938.431    -9185332.908 3  -7157373.714 1
  23418349.907    -6388875.711 3  -4978314.980 1
  24505587.731    -1913175.156 2  -1490779.374 1
  24742067.619    -1281702.075 2   -998719.453 1
 91  4  5 21 52  0.0010000  0  6 18 19 02 11 16 06
  21929205.824     8687439.456 4   6769421.914 2
  21418561.533     1729310.179 3   1347517.033 2
  22924590.238    -9208199.849 3  -7175192.014 1
  23419246.587    -6384179.089 3  -4974655.249 1
  24505507.983    -1913548.003 2  -1491069.888 1
  24738353.201    -1301228.201 2  -1013934.515 1
 91  4  5 21 52 15.0010000  0  6 18 19 02 11 16 06
  21938301.227     8735262.234 4   6806686.333 2
  21421644.306     1745515.901 3   1360144.875 2
  22920254.330    -9230993.606 3  -7192953.268 1
  23420163.962    -6379333.487 3  -4970879.429 1
  24505466.312    -1913787.183 2  -1491256.243 1
  24734631.279    -1320745.246 2  -1029142.434 1
 91  4  5 21 52 30.0010000  0  6 18 19 02 11 16 06
  21947423.607     8783190.087 4   6844032.632 2
  21424740.865     1761772.915 3   1372812.672 2
  22915927.740    -9253710.674 3  -7210654.764 2
  23421117.006    -6374335.324 3  -4966984.745 1
  24505447.134    -1913889.108 2  -1491335.684 1
  24730934.834    -1340249.808 2  -1044340.614 1
 91  4  5 21 52 45.0010000  0  6 18 19 02 11 16 06
  21956562.495     8831220.617 4   6881458.946 2
  21427837.423     1778079.013 3   1385518.719 2
  22911619.125    -9276353.193 3  -7228298.169 2
  23422100.919    -6369186.522 3  -4962972.669 1
  24505459.419    -1913856.055 2  -1491309.878 1
  24727222.196    -1359744.126 2  -1059530.876 1
 91  4  5 21 53  0.0010000  0  6 18 19 02 11 16 06
  21965724.139     8879349.975 4   6918962.269 2
  21430954.957     1794430.452 3   1398260.086 2
  22907323.684    -9298925.140 3  -7245886.591 1
  23423104.324    -6363891.022 3  -4958846.309 1
  24505490.899    -1913691.870 2  -1491181.979 1
  24723512.873    -1379232.229 2  -1074716.286 1
 91  4  5 21 53 15.0020000  0  6 18 19 02 11 16 06
  21974900.200     8927585.010 4   6956547.933 2
  21434075.792     1810832.378 3   1411040.807 2
  22903041.753    -9321423.929 3  -7263418.009 1
  23424140.102    -6358444.424 3  -4954602.169 1
  24505541.875    -1913392.393 2  -1490948.576 1
  24719805.629    -1398711.609 2  -1089894.876
 91  4  5 21 53 30.0020000  0  6 18 19 02 11 16 06
  21984098.419     8975919.375 4   6994211.000 2
  21437205.925     1827282.978 3   1423859.459 2
  22898774.511    -9343846.125 3  -7280889.718 2
  23425207.672    -6352846.944 3  -4950240.416 1
  24505629.108    -1912957.336 2  -1490609.555 1
  24716105.590    -1418179.395 2  -1105064.395 1
 91  4  5 21 53 45.0020000  0  6 18 19 02 11 16 06
  21993316.741     9024354.148 4   7031952.301 1
  21440343.265     1843781.564 3   1436715.493 2
  22894520.445    -9366195.078 3  -7298304.392 1
  23426303.406    -6347099.767 3  -4945762.088 1
  24505735.240    -1912388.694 2  -1490166.455 1
  24712395.360    -1437638.544 2  -1120227.269 1
 91  4  5 21 54  0.0020000  0  6 18 19 02 11 16 06
  22002552.757     9072894.635 4   7069775.977 2
  21443500.672     1860333.387 3   1449613.004 2
  22890284.387    -9388465.466 3  -7315657.837 1
  23427421.633    -6341197.553 3  -4941162.952 1
  24505871.335    -1911681.074 2  -1489615.053 1
  24708696.524    -1457084.021 2  -1135379.376 1
 91  4  5 21 54 15.0020000  0  6 18 19 02 11 16 06
  22011810.342     9121536.780 4   7107678.868 2
  21446648.796     1876934.871 3   1462549.231 2
  22886058.817    -9410660.866 3  -7332952.838 1
  23428571.934    -6335143.940 3  -4936445.825 1
  24506032.330    -1910838.280 2  -1488958.376 1
  24705001.284    -1476519.425 2  -1150523.786 1
 91  4  5 21 54 30.0020000  0  6 18 19 02 11 16 06
  22021084.714     9170278.510 4   7145659.363 2
  21449820.897     1893583.969 3   1475522.546 2
  22881852.128    -9432783.251 3  -7350190.953 1
  23429757.624    -6328940.865 3  -4931612.231 1
  24506221.491    -1909862.093 2  -1488197.648 1
  24701304.246    -1495947.045 2  -1165662.058 1
 91  4  5 21 54 45.0020000  0  6 18 19 02 11 16 06
  22030379.485     9219122.349 4   7183719.423 2
  21452995.109     1910283.482 3   1488535.149 2
  22877655.036    -9454829.785 3  -7367369.967 2
  23430961.288    -6322585.462 3  -4926659.913 1
  24506430.754    -1908749.843 2  -1487331.038 1
  24697600.001    -1515364.133 2  -1180792.045 1
 91  4  5 21 55  0.0020000  0  6 18 19 02 11 16 06
  22039693.434     9268064.206 4   7221855.859 2
  21456189.685     1927029.993 3   1501584.365 2
  22873472.324    -9476804.076 3  -7384492.695 2
  23432203.028    -6316081.125 3  -4921591.573 2
  24506668.181    -1907505.167 2  -1486361.048 1
  24693914.951    -1534774.342 2  -1195916.749 1
 91  4  5 21 55 15.0020000  0  6 18 19 02 11 16 06
  22049026.282     9317110.577 4   7260073.741 2
  21459381.574     1943830.040 3   1514675.314 2
  22869307.602    -9498699.585 3  -7401554.013 2
  23433468.151    -6309421.382 3  -4916402.138 1
  24506929.603    -1906121.476 2  -1485282.911 1
  24690220.024    -1554171.215 2  -1211031.106 1
 91  4  5 21 55 30.0020000  0  6 18 19 02 11 16 06
  22058378.010     9366262.547 4   7298373.892 2
  21462594.159     1960684.899 3   1527808.960 2
  22865155.480    -9520514.906 3  -7418552.872 2
  23434763.551    -6302604.928 3  -4911090.558 1
  24507217.113    -1904597.748 2  -1484095.530 1
  24686525.080    -1573553.616 2  -1226134.118 1
 91  4  5 21 55 45.0020000  0  6 18 19 02 11 16 06
  22067750.714     9415516.149 3   7336753.247 2
  21465804.633     1977590.831 3   1540982.413 2
  22861018.348    -9542253.823 3  -7435492.191 1
  23436093.432    -6295635.431 3  -4905659.774 1
  24507538.790    -1902937.539 2  -1482801.859 1
  24682850.221    -1592925.373 2  -1241228.842 1
 91  4  5 21 56  0.0020000  0  6 18 19 02 11 16 06
  22077145.004     9464870.424 4   7375211.050 2
  21469036.693     1994546.899 3   1554194.930 2
  22856896.501    -9563917.015 3  -7452372.480 2
  23437453.886    -6288513.423 3  -4900110.128 1
  24507878.441    -1901141.669 2  -1481402.514 1
  24679160.966    -1612287.290 2  -1256315.902 1
 91  4  5 21 56 15.0020000  0  6 18 19 02 11 16 06
  22086557.302     9514326.348 3   7413748.063 2
  21472270.253     2011554.369 3   1567447.497 2
  22852790.238    -9585503.404 3  -7469192.948 1
  23438832.941    -6281237.727 3  -4894440.669 1
  24508246.292    -1899208.805 2  -1479896.378 1
  24675472.322    -1631638.271 2  -1271394.426 1
 91  4  5 21 56 30.0020000  0  6 18 19 02 11 16 06
  22095987.261     9563886.541 3   7452366.317 1
  21475516.116     2028616.444 3   1580742.625 2
  22848698.372    -9607009.751 3  -7485951.048 1
  23440250.353    -6273805.114 3  -4888649.021 1
  24508636.932    -1897135.859 2  -1478281.048 1
  24671802.558    -1650975.317 2  -1286462.107 1
 91  4  5 21 56 45.0020000  0  6 18 19 02 11 16 06
  22105437.321     9613547.578 4   7491063.142 2
  21478769.464     2045729.691 3   1594077.617 2
  22844619.994    -9628439.476 3  -7502649.435 2
  23441692.648    -6266218.917 3  -4882737.680 1
  24509056.331    -1894926.174 2  -1476559.169 1
  24668120.510    -1670301.853 2  -1301521.540 1
 91  4  5 21 57  0.0020000  0  6 18 19 02 11 16 06
  22114902.965     9663304.162 3   7529834.437 2
  21482041.694     2062889.095 3   1607448.581 2
  22840551.511    -9649797.635 3  -7519292.054 2
  23443162.236    -6258484.175 3  -4876710.553 1
  24509511.415    -1892585.209 2  -1474735.021 1
  24664439.369    -1689623.099 2  -1316576.975 1
 91  4  5 21 57 15.0020000  0  6 18 19 02 11 16 06
  22124392.899     9713161.817 3   7568684.472 2
  21485312.720     2080100.410 3   1620859.993 2
  22836504.613    -9671078.330 3  -7535874.307 2
  23444664.804    -6250595.178 3  -4870563.243 1
  24509970.094    -1890107.034 2  -1472804.008 1
  24660762.713    -1708933.518 2  -1331623.917 1
 91  4  5 21 57 30.0020000  0  6 18 19 02 11 16 06
  22133899.621     9763120.895 3   7607613.545 2
  21488602.051     2097364.140 3   1634312.259 2
  22832470.018    -9692281.021 3  -7552395.807 1
  23446194.944    -6242551.162 3  -4864295.135 1
  24510474.650    -1887490.966 2  -1470765.513 1
  24657096.248    -1728232.455 2  -1346661.888 1
 91  4  5 21 57 45.0020000  0  6 18 19 02 11 16 06
  22143425.224     9813184.156 3   7646623.808 2
  21491892.272     2114683.488 3   1647807.846 2
  22828449.785    -9713402.635 3  -7568854.098 1
  23447758.361    -6234348.913 3  -4857903.748 1
  24510996.882    -1884734.193 2  -1468617.356 1
  24653426.484    -1747516.851 2  -1361688.537 1
 91  4  5 21 58  0.0020000  0  6 18 19 02 11 16 06
  22152970.615     9863346.757 3   7685711.475 2
  21495200.188     2132053.859 3   1661343.196 2
  22824445.762    -9734447.689 3  -7585252.749 1
  23449343.958    -6225992.962 3  -4851392.606 1
  24511551.206    -1881841.247 2  -1466363.128 1
  24649760.019    -1766791.470 2  -1376707.631 1
 91  4  5 21 58 15.0020000  0  6 18 19 02 11 16 06
  22162537.592     9913608.531 3   7724876.415 2
  21498512.292     2149475.600 3   1674918.573 2
  22820450.727    -9755416.060 3  -7601591.661 1
  23450964.036    -6217483.209 3  -4844761.608 1
  24512117.221    -1878812.048 2  -1464002.671 1
  24646089.366    -1786056.238 2  -1391718.999 1
 91  4  5 21 58 30.0020000  0  6 18 19 02 11 16 06
  22172120.763     9963971.557 3   7764120.247 2
  21501844.777     2166950.777 3   1688535.601 2
  22816481.483    -9776305.618 3  -7617869.133 1
  23452609.888    -6208817.509 3  -4838009.085 1
  24512720.388    -1875644.678 2  -1461534.597 1
  24642432.202    -1805309.193 2  -1406721.124 1
 91  4  5 21 58 45.0020000  0  6 18 19 02 11 16 06
  22181723.112    10014437.351 3   7803444.159 2
  21505176.984     2184480.989 3   1702195.495 2
  22812520.912    -9797114.683 3  -7634083.910 2
  23454290.536    -6199994.075 3  -4831133.614 1
  24513357.461    -1872337.122 2  -1458957.286 1
  24638765.440    -1824548.677 2  -1421712.905 1
 91  4  5 21 59  0.0020000  0  6 18 19 02 11 16 06
  22191347.657    10065000.817 3   7842844.181 2
  21508527.164     2202061.571 3   1715894.652 2
  22808571.160    -9817847.912 3  -7650239.569 2
  23455999.052    -6191017.575 3  -4824138.887 1
  24514016.398    -1868894.381 2  -1456274.634 1
  24635097.770    -1843779.456 2  -1436697.724 1
 91  4  5 21 59 15.0020000  0  6 18 19 02 11 16 06
  22200983.877    10115664.188 3   7882322.049 2
  21511876.733     2219695.369 3   1729635.270 2
  22804639.678    -9838502.787 3  -7666334.183 1
  23457738.752    -6181885.313 3  -4817022.841 1
  24514697.829    -1865313.862 2  -1453484.556 1
  24631458.004    -1862999.095 2  -1451673.955 1
 91  4  5 21 59 30.0020000  0  6 18 19 02 11 16 06
  22210646.795    10166430.140 3   7921879.848 2
  21515245.201     2237384.841 3   1743419.275 2
  22800730.079    -9859076.387 3  -7682365.467 1
  23459503.021    -6172594.639 3  -4809783.336 1
  24515399.642    -1861592.773 2  -1450584.988 1
  24627786.740    -1882204.949 2  -1466639.502 1
 91  4  5 21 59 45.0020000  0  6 18 19 02 11 16 06
  22220327.094    10217294.886 3   7961514.633 2
  21518616.077     2255126.486 3   1757243.923 2
  22796824.092    -9879572.488 3  -7698336.370 1
  23461303.273    -6163149.231 3  -4802423.264 1
  24516133.232    -1857734.789 2  -1447578.823 1
  24624144.862    -1901400.755 2  -1481597.084 1
 91  4  5 22  0  0.0020000  0  6 18 19 02 11 16 06
  22230027.775    10268263.135 3   8001230.076 2
  21522014.524     2272925.294 3   1771113.128 2
  22792942.082    -9899985.889 3  -7714242.809 2
  23463128.722    -6153543.816 3  -4794938.486 1
  24516893.206    -1853735.042 2  -1444462.105 1
  24620484.993    -1920581.401 2  -1496542.960 1
 91  4  5 22  0 15.0020000  0  6 18 19 02 11 16 06
  22239743.446    10319333.807 3   8041025.335 1
  21525401.873     2290780.678 3   1785026.404 2
  22789075.951    -9920317.373 3  -7730085.457 2
  23464988.322    -6143779.079 3  -4787329.551 1
  24517686.162    -1849594.248 2  -1441235.443 1
  24616839.817    -1939747.794 2  -1511477.722 1
 91  4  5 22  0 30.0020000  0  6 18 19 02 11 16 06
  22249479.498    10370505.149 3   8080899.029 1
  21528813.216     2308691.021 3   1798982.525 2
  22785218.214    -9940568.326 3  -7745865.330 1
  23466878.216    -6133856.565 3  -4779597.692 1
  24518502.797    -1845313.830 2  -1437900.026 1
  24613194.938    -1958901.690 2  -1526402.733 1
 91  4  5 22  0 45.0020000  0  6 18 19 02 11 16 06
  22259239.248    10421770.132 3   8120845.679 2
  21532224.245     2326649.353 3   1812976.033 2
  22781381.784    -9960745.891 3  -7761588.029 1
  23468797.496    -6123783.294 3  -4771748.377 1
  24519336.813    -1840901.193 2  -1434461.710 1
  24609556.358    -1978049.952 2  -1541323.287 1
 91  4  5 22  1  0.0020000  0  6 18 19 02 11 16 06
  22269010.689    10473135.426 3   8160870.502 2
  21535658.972     2344662.785 3   1827012.465 2
  22777557.324    -9980842.888 3  -7777247.941 2
  23470738.937    -6113551.975 3  -4763775.918 1
  24520202.012    -1836349.189 2  -1430914.685 1
  24605922.280    -1997185.724 2  -1556234.215 1
 91  4  5 22  1 15.0020000  0  6 18 19 02 11 16 06
  22278802.198    10524600.073 3   8200972.746 2
  21539091.901     2362730.942 3   1841091.548 2
  22773747.854   -10000859.911 3  -7792845.516 2
  23472717.879    -6103163.122 3  -4755680.669 1
  24521104.398    -1831658.447 2  -1427259.481 1
  24602266.913    -2016309.539 2  -1571135.809 1
 91  4  5 22  1 30.0020000  0  6 18 19 02 11 16 06
  22288618.609    10576169.669 3   8241156.763 2
  21542549.696     2380859.542 3   1855217.729 2
  22769953.985   -10020791.078 3  -7808376.200 1
  23474727.690    -6092610.985 3  -4747458.160 1
  24522011.565    -1826823.018 2  -1423491.592 1
  24598634.616    -2035415.674 2  -1586023.551 1
 91  4  5 22  1 45.0020000  0  6 18 19 02 11 16 06
  22298451.510    10627836.431 3   8281416.485 1
  21546004.508     2399040.927 3   1869385.047 2
  22766177.810   -10040644.112 3  -7823846.023 2
  23476768.964    -6081903.206 3  -4739114.418 1
  24522964.905    -1821850.450 2  -1419616.879 1
  24595010.136    -2054511.931 2  -1600903.655 1
 91  4  5 22  2  0.0020000  0  6 18 19 02 11 16 06
  22308301.180    10679601.982 3   8321753.200 2
  21549476.403     2417276.646 3   1883594.690 2
  22762417.498   -10060417.454 3  -7839253.741 2
  23478830.341    -6071038.138 3  -4730648.123 1
  24523929.640    -1816739.357 2  -1415634.228 1
  24591378.449    -2073596.794 2  -1615774.810 1
 91  4  5 22  2 15.0020000  0  6 18 19 02 11 16 06
  22318171.250    10731466.399 3   8362166.938 2
  21552953.097     2435567.610 3   1897847.400 2
  22758668.004   -10080110.305 3  -7854598.747 2
  23480926.200    -6060014.957 3  -4722058.634 1
  24524935.436    -1811489.331 2  -1411543.273 1
  24587745.854    -2092669.665 2  -1630636.757 1
 91  4  5 22  2 30.0020000  0  6 18 19 02 11 16 06
  22328059.312    10783427.541 3   8402656.076 2
  21556447.189     2453911.642 3   1912141.449 2
  22754934.687   -10099724.736 3  -7869882.620 1
  23483058.023    -6048835.700 3  -4713347.505 1
  24525967.634    -1806102.316 2  -1407345.577 1
  24584115.668    -2111732.639 2  -1645490.895 1
 91  4  5 22  2 45.0020000  0  6 18 19 02 11 16 06
  22337965.347    10835486.094 3   8443221.087 2
  21559947.563     2472310.110 3   1926477.913 2
  22751215.767   -10119259.604 3  -7885104.504 1
  23485213.526    -6037499.339 3  -4704513.936 1
  24527007.614    -1800577.345 2  -1403040.359 1
  24580480.683    -2130784.645 2  -1660336.484 1
 91  4  5 22  3  0.0020000  0  6 18 19 02 11 16 06
  22347889.076    10887639.823 3   8483860.273 1
  21563460.222     2490760.780 3   1940855.060 2
  22747511.225   -10138717.054 3  -7900266.063 2
  23487401.714    -6026008.034 3  -4695559.695 1
  24528088.062    -1794916.334 2  -1398629.181 1
  24576858.297    -2149827.865 2  -1675175.240 1
 91  4  5 22  3 15.0020000  0  6 18 19 02 11 16 06
  22357831.093    10939889.065 3   8524573.883 2
  21566979.495     2509264.212 3   1955273.321 2
  22743826.472   -10158096.293 3  -7915366.676 2
  23489616.879    -6014361.031 3  -4686484.053 1
  24529190.689    -1789118.736 2  -1394111.558 1
  24573244.601    -2168861.803 2  -1690006.759 1
 91  4  5 22  3 30.0020000  0  6 18 19 02 11 16 06
  22367793.806    10992236.834 3   8565364.264 2
  21570511.942     2527823.768 3   1969735.324 2
  22740152.521   -10177394.290 3  -7930403.983 1
  23491862.617    -6002555.141 3  -4677284.637 1
  24530317.606    -1783181.465 2  -1389485.090 1
  24569625.496    -2187883.253 2  -1704828.558 1
 91  4  5 22  3 45.0020000  0  6 18 19 02 11 16 06
  22377772.696    11044678.220 3   8606227.617 2
  21574051.894     2546434.720 3   1984237.359 2
  22736493.245   -10196615.646 3  -7945381.602 2
  23494139.539    -5990595.037 3  -4667965.068 1
  24531467.314    -1777109.379 2  -1384753.627 1
  24566004.907    -2206897.174 2  -1719644.504 1
 91  4  5 22  4  0.0020000  0  6 18 19 02 11 16 06
  22387763.871    11097183.701 3   8647140.861 2
  21577602.943     2565067.978 3   1998756.791 2
  22732844.474   -10215789.341 3  -7960322.042 2
  23496437.454    -5978509.775 3  -4658547.985 1
  24532656.302    -1770931.492 2  -1379939.683 1
  24562382.521    -2225932.581 2  -1734477.245 1
 91  4  5 22  4 15.0020000  0  6 18 19 02 11 16 06
  22397768.848    11149747.140 3   8688099.316 2
  21581147.676     2583717.855 3   2013289.166 2
  22729205.894   -10234921.268 3  -7975229.944 2
  23498759.048    -5966305.083 3  -4649037.813 1
  24533847.367    -1764654.049 2  -1375048.107 1
  24558751.131    -2244995.383 2  -1749331.128 1
 91  4  5 22  4 30.0020000  0  6 18 19 02 11 16 06
  22407788.205    11202428.040 3   8729149.295 1
  21584713.418     2602443.646 3   2027880.688 2
  22725582.304   -10253952.071 3  -7990059.054 2
  23501116.922    -5953921.572 3  -4639388.312 1
  24535072.320    -1758217.537 2  -1370032.627 1
  24555126.947    -2264026.235 2  -1764160.294 1
 91  4  5 22  4 45.0020000  0  6 18 19 02 11 16 06
  22417839.356    11255217.142 3   8770283.557 2
  21588286.036     2621236.756 3   2042524.667 2
  22721977.909   -10272890.522 3  -8004816.215 1
  23503504.460    -5941368.049 3  -4629606.336 1
  24536332.958    -1751630.750 2  -1364900.096 1
  24551508.453    -2283034.114 2  -1778971.551 1
 91  4  5 22  5  0.0020000  0  6 18 19 02 11 16 06
  22427902.792    11308105.123 3   8811494.884 2
  21591879.647     2640087.885 3   2057213.863 2
  22718392.692   -10291745.758 3  -8019508.516 2
  23505925.591    -5928653.609 3  -4619698.939 1
  24537610.960    -1744902.741 2  -1359657.450 1
  24547895.054    -2302028.179 2  -1793771.941 1
 91  4  5 22  5 15.0020000  0  6 18 19 02 11 16 06
  22437982.700    11361090.746 3   8852782.303 2
  21595470.867     2658996.155 3   2071947.588 2
  22714821.261   -10310518.757 3  -8034136.745 2
  23508376.997    -5915779.286 3  -4609666.981 1
  24538916.568    -1738034.986 2  -1354305.942 1
  24544286.750    -2321009.531 2  -1808562.527 1
 91  4  5 22  5 30.0020000  0  6 18 19 02 11 16 06
  22448086.307    11414167.967 3   8894141.090 2
  21599082.765     2677955.894 3   2086721.399 2
  22711260.614   -10329215.244 3  -8048705.348 1
  23510853.567    -5902750.665 3  -4599514.817 1
  24540242.243    -1731032.799 2  -1348849.683 1
  24540686.229    -2339983.820 2  -1823347.541 1
 91  4  5 22  5 45.0020000  0  6 18 19 02 11 16 06
  22458202.809    11467334.965 3   8935569.833 2
  21602693.774     2696965.737 3   2101534.260 2
  22707716.771   -10347836.554 3  -8063215.362 1
  23513365.229    -5889569.336 3  -4589243.650 1
  24541595.211    -1723897.724 2  -1343289.870 1
  24537071.940    -2358952.640 2  -1838128.310 1
 91  4  5 22  6  0.0020000  0  6 18 19 02 11 16 06
  22468339.099    11520592.674 3   8977069.257 2
  21606324.256     2716026.764 3   2116387.000 2
  22704193.014   -10366381.648 3  -8077666.004 2
  23515904.184    -5876234.326 3  -4578852.706 1
  24542989.850    -1716629.060 2  -1337625.921 1
  24533457.634    -2377915.168 2  -1852904.228 1
 91  4  5 22  6 15.0020000  0  6 18 19 02 11 16 06
  22478490.659    11573939.344 3   9018638.007 1
  21609962.243     2735137.492 3   2131278.491 2
  22700673.445   -10384852.154 3  -8092058.504 2
  23518464.410    -5862747.021 3  -4568343.100 1
  24544399.758    -1709228.314 2  -1331859.141 1
  24529851.441    -2396872.877 2  -1867676.341 1
 91  4  5 22  6 30.0020000  0  6 18 19 02 11 16 06
  22488659.633    11627395.157 3   9060291.803 2
  21613616.109     2754318.356 3   2146224.622 2
  22697176.072   -10403227.432 3  -8106376.828 2
  23521069.605    -5849086.819 3  -4557698.780 1
  24545838.162    -1701675.085 2  -1325973.465 1
  24526256.627    -2415805.409 2  -1882428.776 1
 91  4  5 22  6 45.0020000  0  6 18 19 02 11 16 06
  22498854.068    11680953.054 3   9102025.135 2
  21617272.977     2773562.500 3   2161220.051 2
  22693694.282   -10421514.518 3  -8120626.399 2
  23523697.887    -5835260.745 3  -4546925.190 1
  24547304.451    -1693976.488 2  -1319974.551 1
  24522652.214    -2434719.520 2  -1897166.959 1
 91  4  5 22  7  0.0020000  0  6 18 19 02 11 16 06
  22509059.008    11734595.576 3   9143824.414 2
  21620944.834     2792853.047 3   2176251.647 2
  22690229.873   -10439730.505 3  -8134820.590 2
  23526357.039    -5821285.874 3  -4536035.672 2
  24548778.837    -1686149.598 2  -1313875.680 1
  24519035.517    -2453632.551 2  -1911904.271
 91  4  5 22  7 15.0020000  0  6 18 19 02 11 16 06
  22519281.328    11788320.493 3   9185687.884 2
  21624622.380     2812187.957 3   2191317.817 2
  22686775.079   -10457877.198 3  -8148960.789 2
  23529043.186    -5807164.188 3  -4525031.761 1
  24550301.788    -1678196.323 2  -1307678.352 1
  24515445.205    -2472546.519 2  -1926642.291 1
 91  4  5 22  7 30.0020000  0  6 18 19 02 11 16 06
  22529525.827    11842129.409 3   9227616.799 1
  21628311.636     2831568.548 3   2206419.574 2
  22683340.946   -10475953.385 3  -8163046.026 2
  23531761.999    -5792894.325 3  -4513912.374 1
  24551839.710    -1670115.535 2  -1301381.606 1
  24511851.001    -2491460.136 2  -1941380.083 1
 91  4  5 22  7 45.0020000  0  6 18 19 02 11 16 06
  22539777.237    11896023.153 3   9269611.852 2
  21632006.876     2850996.305 3   2221558.079 2
  22679912.223   -10493957.470 3  -8177075.119 2
  23534505.104    -5778474.678 3  -4502676.229 1
  24553411.521    -1661905.706 2  -1294984.350 1
  24508248.089    -2510371.946 2  -1956116.343 1
 91  4  5 22  8  0.0020000  0  6 18 19 02 11 16 06
  22550052.623    11950003.491 3   9311674.365 1
  21635718.311     2870473.635 3   2236735.207 2
  22676500.286   -10511887.309 3  -8191046.331 2
  23537275.186    -5763903.094 3  -4491321.719 1
  24554988.742    -1653564.713 2  -1288484.862 1
  24504657.777    -2529279.775 2  -1970849.653 1
 91  4  5 22  8 15.0020000  0  6 18 19 02 11 16 06
  22560339.998    12004067.723 3   9353802.240 2
  21639430.635     2889997.965 3   2251948.974 2
  22673103.340   -10529745.491 3  -8204961.697 2
  23540078.250    -5749182.288 3  -4479850.942 1
  24556603.724    -1645095.243 2  -1281885.310 1
  24501059.961    -2548186.434 2  -1985581.986 1
 91  4  5 22  8 30.0020000  0  6 18 19 02 11 16 06
  22570643.863    12058214.854 3   9395994.721 2
  21643158.857     2909568.605 3   2267198.811 2
  22669716.287   -10547532.729 3  -8218821.807 2
  23542907.977    -5734312.944 3  -4468264.418 1
  24558225.897    -1636498.055 2  -1275186.149 1
  24497457.363    -2567092.559 2  -2000313.839 1
 91  4  5 22  8 45.0020000  0  6 18 19 02 11 16 06
  22580967.219    12112445.421 3   9438252.212 2
  21646888.579     2929186.309 3   2282485.331 2
  22666347.209   -10565248.201 3  -8232625.989 2
  23545766.497    -5719294.203 3  -4456561.496 1
  24559889.147    -1627772.447 2  -1268386.986 1
  24493862.549    -2585997.463 2  -2015044.862
 91  4  5 22  9  0.0020000  0  6 18 19 02 11 16 06
  22591299.563    12166758.371 3   9480573.889 1
  21650629.382     2948850.477 3   2297808.050 2
  22662987.134   -10582892.489 3  -8246374.696 2
  23548650.215    -5704126.751 3  -4444742.671 1
  24561579.375    -1618919.398 2  -1261488.486 1
  24490260.544    -2604901.857 2  -2029775.403 1
 91  4  5 22  9 15.0020000  0  6 18 19 02 11 16 06
  22601652.603    12221158.708 3   9522963.664 2
  21654380.987     2968566.133 3   2313170.895 2
  22659644.161   -10600460.860 3  -8260064.247 2
  23551566.897    -5688805.802 3  -4432804.239 1
  24563293.580    -1609933.946 2  -1254486.878 1
  24486664.543    -2623800.956 2  -2044501.832 1
 91  4  5 22  9 30.0020000  0  6 18 19 02 11 16 06
  22612020.318    12275644.967 3   9565420.413 1
  21658150.583     2988332.157 3   2328572.984 2
  22656317.958   -10617954.199 3  -8273695.343 2
  23554512.058    -5673332.280 3  -4420746.920 1
  24565022.495    -1600817.191 2  -1247382.914 1
  24483081.123    -2642695.779 2  -2059224.899 1
 91  4  5 22  9 45.0020000  0  6 18 19 02 11 16 06
  22622404.227    12330215.177 3   9607942.550 2
  21661914.473     3008146.862 3   2344013.006 2
  22653001.352   -10635374.132 3  -8287269.234 2
  23557486.587    -5657707.966 3  -4408572.100 1
  24566779.575    -1591570.678 2  -1240177.889 1
  24479477.008    -2661587.995 2  -2073946.021 1
 91  4  5 22 10  0.0020000  0  6 18 19 02 11 16 06
  22632803.440    12384865.918 3   9650527.446 1
  21665693.649     3028007.373 3   2359488.727 2
  22649701.236   -10652723.756 3  -8300788.340 2
  23560488.705    -5641935.781 3  -4396282.100 1
  24568578.622    -1582197.798 2  -1232874.293 1
  24475874.096    -2680480.850 2  -2088667.506 1
 91  4  5 22 10 15.0020000  0  6 18 19 02 11 16 06
  22643220.924    12439604.756 3   9693180.976 1
  21669480.625     3047921.431 3   2375006.167 2
  22646410.108   -10669995.450 3  -8314246.715 2
  23563518.412    -5626008.173 3  -4383870.972 1
  24570390.880    -1572691.072 2  -1225466.464 1
  24472286.489    -2699366.718 2  -2103383.573 1
 91  4  5 22 10 30.0020000  0  6 18 19 02 11 16 06
  22653656.398    12494426.878 3   9735899.420 1
  21673285.000     3067884.503 3   2390561.804 2
  22643138.785   -10687193.676 3  -8327647.863 2
  23566577.505    -5609929.691 3  -4371342.246 1
  24572213.607    -1563054.704 2  -1217957.611 1
  24468691.081    -2718250.019 2  -2118097.731 1
 91  4  5 22 10 45.0020000  0  6 18 19 02 11 16 06
  22664101.470    12549330.999 3   9778681.747 1
  21677085.169     3087895.382 3   2406154.689 2
  22639880.044   -10704319.684 3  -8340992.719 2
  23569663.558    -5593701.616 3  -4358696.970 1
  24574074.115    -1553290.527 2  -1210349.162 1
  24465100.471    -2737132.226 2  -2132811.005 1
 91  4  5 22 11  0.0020000  0  6 18 19 02 11 16 06
  22674566.924    12604319.424 3   9821529.766 1
  21680912.019     3107956.955 3   2421787.084 2
  22636635.089   -10721370.736 3  -8354279.171 2
  23572783.797    -5577321.180 3  -4345932.958 1
  24575952.020    -1543395.823 2  -1202639.000 1
  24461516.441    -2756010.613 2  -2147521.306 1
 91  4  5 22 11 15.0020000  0  6 18 19 02 11 16 06
  22685044.070    12659391.668 3   9864443.131 1
  21684733.774     3128069.222 3   2437458.967 2
  22633403.326   -10738346.756 3  -8367507.156 2
  23575927.733    -5560788.480 3  -4333050.343 1
  24577860.201    -1533370.296 2  -1194826.928 1
  24457914.437    -2774885.363 2  -2162228.799 1
 91  4  5 22 11 30.0020000  0  6 18 19 02 11 16 06
  22695538.910    12714549.849 3   9907423.403 1
  21688575.020     3148234.485 3   2453172.162 2
  22630190.148   -10755245.411 3  -8380674.873 2
  23579106.726    -5544101.146 3  -4320047.227 1
  24579798.065    -1523212.024 2  -1186911.277 1
  24454325.032    -2793754.047 2  -2176931.459 1
 91  4  5 22 11 45.0020000  0  6 18 19 02 11 16 06
  22706054.725    12769794.614 3   9950471.168 1
  21692415.656     3168453.454 3   2468927.191 2
  22626991.366   -10772066.028 3  -8393781.762 2
  23582308.213    -5527258.479 3  -4306923.053 1
  24581746.714    -1512920.554 2  -1178892.111 1
  24450738.611    -2812616.088 2  -2191629.023 1
 91  4  5 22 12  0.0020000  0  6 18 19 02 11 16 06
  22716581.342    12825121.099 3   9993582.617 1
  21696278.174     3188721.599 3   2484720.550 2
  22623804.258   -10788813.620 3  -8406831.763 2
  23585538.772    -5510265.377 3  -4293681.680 1
  24583736.737    -1502500.580 2  -1170772.595 1
  24447150.392    -2831476.374 2  -2206325.165 1
 91  4  5 22 12 15.0020000  0  6 18 19 02 11 16 06
  22727129.231    12880534.333 3  10036761.661 2
  21700145.509     3209044.366 3   2500556.463 2
  22620631.861   -10805482.581 3  -8419820.492 2
  23588807.703    -5493116.293 3  -4280318.729 1
  24585733.059    -1491946.670 2  -1162548.762 1
  24443560.673    -2850329.348 2  -2221015.665 1
 91  4  5 22 12 30.0020000  0  6 18 19 02 11 16 06
  22737688.218    12936035.851 3  10080009.489 1
  21704023.314     3229423.786 3   2516436.529 2
  22617474.454   -10822070.738 3  -8432746.257 2
  23592101.223    -5475809.335 3  -4266832.778 1
  24587775.537    -1481256.995 2  -1154219.149 1
  24439972.455    -2869173.107 2  -2235699.010 1
 91  4  5 22 12 45.0020000  0  6 18 19 02 11 16 06
  22748267.308    12991621.201 3  10123322.664 2
  21707908.326     3249855.664 3   2532357.465 2
  22614332.629   -10838582.446 3  -8445612.442 2
  23595423.221    -5458348.770 3  -4253227.132 1
  24589840.212    -1470435.917 2  -1145787.111 1
  24436389.332    -2888011.980 2  -2250378.453 1
 91  4  5 22 13  0.0020000  0  6 18 19 02 11 16 06
  22758857.479    13047287.673 3  10166699.002 1
  21711811.032     3270337.654 3   2548317.457 2
  22611202.793   -10855020.109 3  -8458420.933 2
  23598772.511    -5440737.107 3  -4239503.723 2
  24591920.173    -1459485.764 2  -1137254.538 1
  24432817.621    -2906848.482 2  -2265056.118 1
 91  4  5 22 13 15.0020000  0  6 18 19 02 11 16 06
  22769471.329    13103048.576 3  10210148.969 2
  21715718.520     3290883.094 3   2564326.879 2
  22608091.838   -10871370.506 3  -8471161.427 2
  23602156.562    -5422961.026 3  -4225652.248 1
  24594030.707    -1448393.479 2  -1128611.225 1
  24429219.508    -2925669.243 2  -2279721.493 1
 91  4  5 22 13 30.0020000  0  6 18 19 02 11 16 06
  22780091.776    13158891.627 3  10253662.947 2
  21719637.699     3311480.231 3   2580376.594 2
  22604992.592   -10887645.341 3  -8483843.051 2
  23605567.608    -5405032.234 3  -4211681.775 1
  24596166.125    -1437170.927 2  -1119866.392 1
  24425636.682    -2944486.257 2  -2294384.032 1
 91  4  5 22 13 45.0020000  0  6 18 19 02 11 16 06
  22790740.702    13214824.470 3  10297246.871 1
  21723564.085     3332136.984 3   2596472.760 2
  22601910.726   -10903836.752 3  -8496459.656 2
  23609008.931    -5386942.957 3  -4197586.231 1
  24598329.132    -1425810.424 2  -1111014.032 1
  24422061.359    -2963291.551 2  -2309037.358 1
 91  4  5 22 14  0.0020000  0  6 18 19 02 11 16 06
  22801400.115    13270837.725 3  10340893.454 2
  21727510.557     3352844.228 3   2612608.263 2
  22598845.351   -10919953.823 3  -8509018.323 2
  23612482.920    -5368702.391 3  -4183372.804 1
  24600512.224    -1414321.199 2  -1102061.376 1
  24418492.929    -2982094.296 2  -2323688.723 1
 91  4  5 22 14 15.0020000  0  6 18 19 02 11 16 06
  22812075.425    13326935.262 3  10384605.716 2
  21731456.732     3373606.009 3   2628786.269 2
  22595792.855   -10935992.510 3  -8521515.945 2
  23615980.903    -5350306.425 3  -4169038.256 1
  24602723.481    -1402699.393 2  -1093005.424 1
  24414915.512    -3000890.669 2  -2338335.153 1
 91  4  5 22 14 30.0020000  0  6 18 19 02 11 16 06
  22822769.931    13383120.864 3  10428386.597 1
  21735421.787     3394426.333 3   2645009.911 2
  22592757.162   -10951948.938 3  -8533949.438 2
  23619513.351    -5331751.142 3  -4154579.563 1
  24604964.141    -1390940.862 2  -1083842.884 1
  24411335.984    -3019676.526 2  -2352973.331 1
 91  4  5 22 14 45.0020000  0  6 18 19 02 11 16 06
  22833474.906    13439395.148 3  10472236.592 1
  21739393.736     3415306.335 3   2661280.006 2
  22589737.647   -10967822.164 3  -8546318.103 2
  23623075.778    -5313035.600 3  -4139996.011 1
  24607227.871    -1379044.787 2  -1074573.278 1
  24407769.055    -3038451.050 2  -2367602.742 1
 91  4  5 22 15  0.0020000  0  6 18 19 02 11 16 06
  22844201.782    13495753.139 3  10516151.807 2
  21743379.174     3436241.423 3   2677593.066 2
  22586728.339   -10983616.681 3  -8558625.444 2
  23626665.497    -5294164.579 3  -4125291.346 2
  24609517.077    -1367015.998 2  -1065200.165 1
  24404188.933    -3057218.801 2  -2382226.906 1
 91  4  5 22 15 15.0020000  0  6 18 19 02 11 16 06
  22854940.646    13552194.849 3  10560132.261 1
  21747369.411     3457231.929 3   2693949.299 2
  22583739.710   -10999332.294 3  -8570871.321 1
  23630283.992    -5275137.914 3  -4110465.363 1
  24611835.688    -1354854.369 2  -1055723.644 1
  24400614.797    -3075979.767 2  -2396845.681 1
 91  4  5 22 15 30.0020000  0  6 18 19 02 11 16 06
  22865699.002    13608721.184 3  10604178.651 1
  21751381.530     3478279.128 3   2710349.710 2
  22580766.961   -11014967.804 3  -8583054.743 2
  23633933.670    -5255954.378 3  -4095517.146 1
  24614177.664    -1342558.643 2  -1046142.525 1
  24397045.774    -3094732.714 2  -2411458.316 1
 91  4  5 22 15 45.0020000  0  6 18 19 02 11 16 06
  22876472.941    13665332.924 3  10648291.585 1
  21755393.056     3499384.093 3   2726795.126 2
  22577805.310   -11030522.279 3  -8595175.025 2
  23637617.516    -5236613.072 3  -4080445.980 1
  24616540.022    -1330128.247 2  -1036456.506 1
  24393487.832    -3113476.669 2  -2426063.890 1
 91  4  5 22 16  0.0020000  0  6 18 19 02 11 16 06
  22887255.291    13722026.352 3  10692468.185 1
  21759420.758     3520543.231 3   2743282.753 2
  22574860.446   -11045999.173 3  -8607234.890 2
  23641324.745    -5217117.563 3  -4065254.682 1
  24618928.172    -1317566.736 2  -1026668.261 1
  24389915.214    -3132215.270 2  -2440665.273 1
 91  4  5 22 16 15.0020000  0  6 18 19 02 11 16 06
  22898064.305    13778806.836 3  10736712.596 1
  21763457.464     3541762.251 3   2759817.045 2
  22571930.886   -11061392.872 3  -8619229.894 2
  23645065.565    -5197462.215 3  -4049938.781 1
  24621351.100    -1304868.467 2  -1016773.570 1
  24386359.976    -3150942.788 2  -2455258.140 1
 91  4  5 22 16 30.0020000  0  6 18 19 02 11 16 06
  22908881.119    13835670.465 3  10781021.812 1
  21767510.365     3563037.600 3   2776395.231 2
  22569015.094   -11076707.061 3  -8631162.966 2
  23648833.050    -5177650.740 3  -4034501.260 1
  24623786.016    -1292037.428 2  -1006775.350 1
  24382787.341    -3169662.955 2  -2469845.092 1
 91  4  5 22 16 45.0020000  0  6 18 19 02 11 16 06
  22919724.300    13892616.015 3  10825394.854 1
  21771563.858     3584368.516 3   2793016.729 2
  22566117.904   -11091942.512 3  -8643034.655 2
  23652635.330    -5157684.134 3  -4018942.883 1
  24626255.693    -1279074.680 2   -996674.487 1
  24379227.304    -3188376.763 2  -2484427.242 1
 91  4  5 22 17  0.0020000  0  6 18 19 02 11 16 06
  22930571.391    13949644.333 3  10869832.418 1
  21775636.844     3605756.259 3   2809682.492 2
  22563232.092   -11107098.074 3  -8654844.116 2
  23656466.368    -5137561.210 3  -4003262.687 2
  24628747.566    -1265978.752 2   -986469.916 1
  24375674.475    -3207082.955 2  -2499003.401 1
 91  4  5 22 17 15.0020000  0  6 18 19 02 11 16 06
  22941439.177    14006756.539 3  10914335.328 1
  21779714.925     3627202.088 3   2826393.514 2
  22560364.882   -11122172.343 3  -8666590.207 2
  23660327.997    -5117280.693 3  -3987459.685 1
  24631261.026    -1252748.814 2   -976160.895 1
  24372109.046    -3225780.357 2  -2513572.741 1
 91  4  5 22 17 30.0020000  0  6 18 19 02 11 16 06
  22952326.437    14063952.209 3  10958903.286 1
  21783814.871     3648706.079 3   2843149.870 2
  22557511.457   -11137165.384 3  -8678273.020 2
  23664215.103    -5096842.662 3  -3971533.932 1
  24633805.966    -1239384.518 2   -965747.172 1
  24368553.809    -3244469.044 2  -2528135.234 1
 91  4  5 22 17 45.0020000  0  6 18 19 02 11 16 06
  22963226.297    14121232.027 3  11003536.792 1
  21787910.350     3670268.952 3   2859952.107 2
  22554673.022   -11152076.493 3  -8689891.985 2
  23668131.595    -5076246.576 3  -3955485.018 1
  24636375.789    -1225885.708 2   -955228.604 1
  24365008.448    -3263148.284 2  -2542690.448 1
 91  4  5 22 18  0.0020000  0  6 18 19 02 11 16 06
  22974140.832    14178597.094 3  11048236.742 1
  21792030.992     3691892.267 3   2876801.432 2
  22551851.985   -11166904.450 3  -8701446.175 2
  23672084.051    -5055491.095 3  -3939311.910 1
  24638972.888    -1212251.198 2   -944604.351 1
  24361449.912    -3281816.809 2  -2557237.240 1
 91  4  5 22 18 15.0020000  0  6 18 19 02 11 16 06
  22985075.767    14236045.924 3  11093001.949 1
  21796151.634     3713574.899 3   2893696.984 2
  22549045.920   -11181650.509 3  -8712936.524 2
  23676062.910    -5034577.375 3  -3923015.520 1
  24641595.481    -1198482.354 2   -933875.350 1
  24357905.773    -3300475.771 2  -2571776.627 1
 91  4  5 22 18 30.0020000  0  6 18 19 02 11 16 06
  22996026.878    14293576.076 3  11137830.522 1
  21800291.471     3735314.420 3   2910636.874 2
  22546254.252   -11196316.660 3  -8724364.614 2
  23680072.621    -5013507.572 3  -3906597.488 1
  24644241.440    -1184581.185 2   -923043.281 1
  24354339.437    -3319127.338 2  -2586310.252 1
 91  4  5 22 18 45.0020000  0  6 18 19 02 11 16 06
  23006985.789    14351189.544 3  11182724.022 1
  21804434.607     3757113.520 3   2927623.184 2
  22543479.370   -11210900.512 3  -8735728.583 2
  23684115.331    -4992279.428 3  -3890056.102 1
  24646905.705    -1170545.436 2   -912106.387 1
  24350805.192    -3337769.206 2  -2600836.226 1
 91  4  5 22 19  0.0020000  0  6 18 19 02 11 16 06
  23017962.395    14408886.044 3  11227682.243 1
  21808605.017     3778972.133 3   2944655.861 2
  22540720.386   -11225402.300 3  -8747028.598 2
  23688179.609    -4970893.250 3  -3873391.557 1
  24649608.639    -1156375.593 2   -901064.941
  24347252.956    -3356401.576 2  -2615354.942 1
 91  4  5 22 19 15.0020000  0  6 18 19 02 11 16 06
  23028962.087    14466666.152 3  11272705.598 1
  21812767.627     3800891.093 3   2961735.556 2
  22537975.484   -11239821.021 3  -8758263.891 2
  23692279.869    -4949348.307 3  -3856603.295 1
  24652314.557    -1142070.779 2   -889918.352 1
  24343719.287    -3375023.699 2  -2629865.593 1
 91  4  5 22 19 30.0020000  0  6 18 19 02 11 16 06
  23039972.861    14524527.383 3  11317792.157 2
  21816949.746     3822868.307 3   2978860.647 2
  22535246.480   -11254159.012 3  -8769436.274 2
  23696410.719    -4927646.848 3  -3839693.083 1
  24655072.354    -1127633.516 2   -878668.542 1
  24340172.443    -3393637.845 2  -2644370.006 1
 91  4  5 22 19 45.0020000  0  6 18 19 02 11 16 06
  23050999.531    14582470.113 3  11362942.238 1
  21821142.335     3844904.695 3   2996031.859 2
  22532536.042   -11268415.470 3  -8780545.126 2
  23700573.329    -4905788.047 3  -3822660.212 1
  24657834.043    -1113063.002 2   -867314.890 1
  24336631.009    -3412243.063 2  -2658867.503 1
 91  4  5 22 20  0.0020000  0  6 18 19 02 11 16 06
  23062035.485    14640483.919 3  11408147.689 1
  21825347.523     3866989.720 3   3013240.964 2
  22529834.626   -11282600.580 3  -8791598.393 2
  23704761.434    -4883782.297 3  -3805512.878 2
  24660634.995    -1098369.685 2   -855865.563 1
  24333092.244    -3430849.758 2  -2673366.143 1
 91  4  5 22 20 15.0020000  0  6 18 19 02 11 16 06
  23073094.822    14698577.037 3  11453414.948 1
  21829559.919     3889132.106 3   3030494.765 2
  22527149.387   -11296705.991 3  -8802589.537 2
  23708975.016    -4861621.197 3  -3788244.490 1
  24663464.146    -1083545.057 2   -844313.922 1
  24329547.512    -3449449.553 2  -2687859.391 1
 91  4  5 22 20 30.0020000  0  6 18 19 02 11 16 06
  23084160.163    14756749.459 3  11498743.986 1
  21833789.677     3911332.101 3   3047793.451 2
  22524481.528   -11310731.509 3  -8813518.438 2
  23713220.985    -4839304.594 3  -3770854.940 1
  24666316.664    -1068589.145 2   -832660.007 1
  24326015.954    -3468042.029 2  -2702346.930 1
 91  4  5 22 20 45.0020000  0  6 18 19 02 11 16 06
  23095250.387    14815003.261 3  11544136.457 1
  21838022.157     3933592.572 3   3065139.272 2
  22521827.768   -11324674.576 3  -8824383.100 2
  23717499.325    -4816829.946 3  -3753342.257 1
  24669179.075    -1053499.562 2   -820901.993
  24322480.191    -3486624.833 2  -2716826.906 1
 91  4  5 22 21  0.0020000  0  6 18 19 02 11 16 06
  23106345.706    14873338.010 3  11589592.018 1
  21842268.720     3955913.064 3   3082531.848 2
  22519191.686   -11338535.625 3  -8835183.840 2
  23721804.643    -4794197.811 3  -3735706.844 1
  24672074.782    -1038276.718 2   -809040.016 1
  24318942.055    -3505198.328 2  -2731299.699 1
 91  4  5 22 21 15.0020000  0  6 18 19 02 11 16 06
  23117465.910    14931759.546 3  11635115.168 1
  21846526.067     3978299.651 3   3099975.948 2
  22516569.704   -11352308.526 3  -8845915.901 2
  23726145.629    -4771402.110 3  -3717943.955 1
  24675002.859    -1022914.969 2   -797069.837 1
  24315410.794    -3523756.387 2  -2745760.449 1
 91  4  5 22 21 30.0020000  0  6 18 19 02 11 16 06
  23128596.008    14990257.317 3  11680697.718 1
  21850801.999     4000742.242 3   3117463.676 2
  22513960.303   -11366003.414 3  -8856587.182 2
  23730513.907    -4748453.220 3  -3700061.730 1
  24677949.816    -1007424.563 2   -784999.393 1
  24311874.734    -3542309.507 2  -2760217.304 1
 91  4  5 22 21 45.0020000  0  6 18 19 02 11 16 06
  23139746.784    15048834.032 3  11726341.793 1
  21855081.839     4023243.905 3   3134997.431 2
  22511373.692   -11379617.276 3  -8867195.313 2
  23734907.662    -4725348.077 3  -3682057.700 1
  24680917.749     -991802.403 2   -772826.303 1
  24308353.385    -3560854.337 2  -2774667.708 1
 91  4  5 22 22  0.0020000  0  6 18 19 02 11 16 06
  23150907.751    15107492.893 3  11772049.896 1
  21859379.671     4045808.061 3   3152579.893 2
  22508797.586   -11393146.690 3  -8877737.652 2
  23739335.603    -4702083.334 3  -3663929.343 1
  24683912.975     -976045.434 2   -760548.214 1
  24304818.529    -3579387.617 2  -2789109.124 1
 91  4  5 22 22 15.0020000  0  6 18 19 02 11 16 06
  23162087.617    15166229.400 3  11817818.479 1
  21863678.689     4068430.575 3   3170207.826 2
  22506240.955   -11406595.914 3  -8888217.498 2
  23743791.708    -4678663.337 3  -3645679.955 1
  24686947.184     -960158.027 2   -748168.412 1
  24301298.960    -3597913.666 2  -2803544.856 1
 91  4  5 22 22 30.0020000  0  6 18 19 02 11 16 06
  23173277.674    15225049.027 3  11863651.842 1
  21867997.793     4091117.412 3   3187885.873 2
  22503697.219   -11419959.333 3  -8898630.494 2
  23748280.514    -4655082.317 3  -3627305.173 1
  24689991.269     -944134.370 2   -735682.471 1
  24297772.201    -3616426.678 2  -2817970.466 1
 91  4  5 22 22 45.0020000  0  6 18 19 02 11 16 06
  23184482.721    15283947.874 3  11909546.926 1
  21872321.101     4113864.836 3   3205611.137 2
  22501169.066   -11433240.612 3  -8908979.475 2
  23752792.687    -4631344.174 3  -3608807.923 2
  24693059.646     -927978.367 2   -723093.392 1
  24294249.944    -3634930.266 2  -2832388.760 1
 91  4  5 22 23  0.0020000  0  6 18 19 02 11 16 06
  23195707.242    15342925.997 3  11955503.794 1
  21876668.701     4136673.410 3   3223384.045 2
  22498655.310   -11446439.219 3  -8919264.033 2
  23757339.045    -4607448.560 3  -3590187.953 1
  24696170.304     -911689.700 2   -710400.932 1
  24290735.767    -3653424.323 2  -2846799.526 1
 91  4  5 22 23 15.0020000  0  6 18 19 02 11 16 06
  23206950.661    15401981.214 3  12001520.719 1
  21881017.191     4159541.116 3   3241203.021 2
  22496162.232   -11459557.236 3  -8929485.806 2
  23761917.162    -4583397.639 3  -3571447.008 1
  24699288.431     -895270.548 2   -697606.816 1
  24287215.308    -3671910.950 2  -2861204.654 1
 91  4  5 22 23 30.0020000  0  6 18 19 02 11 16 06
  23218200.677    15461120.305 3  12047603.018 1
  21885387.859     4182474.928 3   3259073.522 2
  22493682.940   -11472587.672 3  -8939639.321 2
  23766524.979    -4559184.509 3  -3552579.632 1
  24702435.055     -878714.161 2   -684705.802 1
  24283699.036    -3690382.774 2  -2875598.109 1
 91  4  5 22 23 45.0020000  0  6 18 19 02 11 16 06
  23229466.869    15520337.854 3  12093746.451 2
  21889756.434     4205470.150 3   3276991.871 2
  22491216.858   -11485535.441 3  -8949728.425 2
  23771166.056    -4534814.210 3  -3533589.794 1
  24705607.766     -862025.384 2   -671701.521 1
  24280189.082    -3708844.736 2  -2889984.007 1
 91  4  5 22 24  0.0020000  0  6 18 19 02 11 16 06
  23240751.960    15579632.707 3  12139950.117 1
  21894150.504     4228525.903 3   3294957.398 2
  22488768.156   -11498401.419 3  -8959753.790 2
  23775832.035    -4510287.834 3  -3514478.335 1
  24708818.536     -845205.502 2   -658595.155 1
  24276674.905    -3727298.268 2  -2904363.237 1
 91  4  5 22 24 15.0020000  0  6 18 19 02 11 16 06
  23252049.946    15639008.138 3  12186216.583 1
  21898543.352     4251645.815 3   3312972.906 2
  22486335.631   -11511182.261 3  -8969712.825 2
  23780526.493    -4485601.767 3  -3495242.429 1
  24712032.011     -828250.969 2   -645383.850 1
  24273164.637    -3745739.640 2  -2918732.994 1
 91  4  5 22 24 30.0020000  0  6 18 19 02 11 16 06
  23263364.702    15698463.356 3  12232545.206 1
  21902958.693     4274829.197 3   3331037.873 2
  22483921.097   -11523878.623 3  -8979606.034 2
  23785256.304    -4460756.772 3  -3475882.724 1
  24715302.444     -811162.849 2   -632068.466 1
  24269655.276    -3764169.405 2  -2933093.752 1
 91  4  5 22 24 45.0020000  0  6 18 19 02 11 16 06
  23274696.560    15757997.721 3  12278935.518 1
  21907375.832     4298075.955 3   3349152.229 2
  22481520.662   -11536490.618 3  -8989433.485 2
  23790016.113    -4435753.173 3  -3456399.409 2
  24718568.985     -793941.484 2   -618649.237 1
  24266158.182    -3782587.843 2  -2947445.607 1
 91  4  5 22 25  0.0020000  0  6 18 19 02 11 16 06
  23286036.217    15817609.880 3  12325386.414 1
  21911823.561     4321384.895 3   3367315.032 2
  22479135.514   -11549019.493 3  -8999196.187 2
  23794802.306    -4410592.249 3  -3436793.525 1
  24721872.102     -776587.987 2   -605127.040 1
  24262656.604    -3800996.029 2  -2961789.544 1
 91  4  5 22 25 15.0020000  0  6 18 19 02 11 16 06
  23297396.850    15877300.670 3  12371898.608 1
  21916262.879     4344757.373 3   3385527.356 2
  22476771.062   -11561463.906 3  -9008893.066 2
  23799619.369    -4385272.834 3  -3417064.133 1
  24725194.100     -759101.614 2   -591501.315 1
  24259152.635    -3819392.766 2  -2976124.563 1
 91  4  5 22 25 30.0020000  0  6 18 19 02 11 16 06
  23308767.970    15937066.518 3  12418469.280 1
  21920722.596     4368190.048 3   3403786.572 2
  22474417.377   -11573827.314 3  -9018526.817 2
  23804465.207    -4359798.519 3  -3397214.028 2
  24728538.888     -741485.846 2   -577774.815 1
  24255646.869    -3837781.662 2  -2990453.452 1
 91  4  5 22 25 45.0020000  0  6 18 19 02 11 16 06
  23320158.286    15996909.139 3  12465099.786 1
  21925190.113     4391685.120 3   3422094.425 2
  22472077.512   -11586107.447 3  -9028095.696 2
  23809347.935    -4334167.221 3  -3377241.621 1
  24731934.944     -723738.419 2   -563945.634 1
  24252156.075    -3856160.470 2  -3004774.438 1
 91  4  5 22 26  0.0020000  0  6 18 19 02 11 16 06
  23331562.387    16056829.732 3  12511791.018 1
  21929677.402     4415243.956 3   3440451.961 2
  22469756.511   -11598303.281 3  -9037598.875 2
  23814251.935    -4308377.825 3  -3357145.985 1
  24735331.594     -705858.353 2   -550013.178 1
  24248654.514    -3874528.041 2  -3019086.745 1
 91  4  5 22 26 15.0020000  0  6 18 19 02 11 16 06
  23342977.587    16116827.634 3  12558542.496 1
  21934168.896     4438866.106 3   3458858.831 2
  22467451.703   -11610415.304 3  -9047036.739 2
  23819191.917    -4282430.937 3  -3336927.634 1
  24738762.708     -687846.378 2   -535977.921 1
  24245164.314    -3892884.629 2  -3033390.479 1
 91  4  5 22 26 30.0020000  0  6 18 19 02 11 16 06
  23354411.981    16176901.020 3  12605352.797 1
  21938684.663     4462550.248 3   3477313.998 2
  22465164.887   -11622444.664 3  -9056410.197 2
  23824160.675    -4256328.021 3  -3316587.683 1
  24742217.223     -669704.164 2   -521841.165 1
  24241671.443    -3911231.878 2  -3047686.919 1
 91  4  5 22 26 45.0020000  0  6 18 19 02 11 16 06
  23365857.160    16237050.582 3  12652222.467 1
  21943194.149     4486297.756 3   3495818.537 2
  22462888.873   -11634390.409 3  -9065718.514 2
  23829157.911    -4230068.001 3  -3296125.361 1
  24745690.619     -651430.438 2   -507601.883 1
  24238189.357    -3929568.433 2  -3061975.018 1
 91  4  5 22 27  0.0030000  0  6 18 19 02 11 16 06
  23377320.613    16297277.370 3  12699152.322 1
  21947727.910     4510107.437 3   3514371.536 2
  22460635.634   -11646256.336 3  -9074964.629 2
  23834182.739    -4203652.170 3  -3275541.614 1
  24749199.390     -633027.104 2   -493261.602 1
  24234693.768    -3947898.665 2  -3076258.242 1
 91  4  5 22 27 15.0030000  0  6 18 19 02 11 16 06
  23388787.971    16357577.207 3  12746139.090 1
  21952271.563     4533980.049 3   3532973.564 2
  22458394.677   -11658036.841 3  -9084144.176 2
  23839239.638    -4177080.049 3  -3254836.106 1
  24752726.446     -614493.018 2   -478819.542 1
  24231209.587    -3966215.935 2  -3090531.271 1
 91  4  5 22 27 30.0030000  0  6 18 19 02 11 16 06
  23400281.714    16417950.592 3  12793183.177 1
  21956826.611     4557914.299 3   3551623.620 2
  22456164.522   -11669735.537 3  -9093259.967 2
  23844321.717    -4150352.848 3  -3234009.726 1
  24756269.398     -595829.833 2   -464276.846 1
  24227724.203    -3984524.556 2  -3104797.677 1
 91  4  5 22 27 45.0030000  0  6 18 19 02 11 16 06
  23411782.961    16478402.338 3  12840288.314 1
  21961391.850     4581915.047 3   3570325.499 2
  22453957.453   -11681347.720 4  -9102308.356 2
  23849440.983    -4123466.170 3  -3213059.094 1
  24759834.216     -577032.957 2   -449629.934 1
  24224243.600    -4002819.715 2  -3119053.511 1
 91  4  5 22 28  0.0030000  0  6 18 19 02 11 16 06
  23423302.181    16538925.159 3  12887448.814 1
  21965977.470     4605975.303 3   3589073.752 2
  22451761.762   -11692880.337 3  -9111294.743 2
  23854586.616    -4096426.959 3  -3191989.609 1
  24763448.819     -558109.604 2   -434884.547 1
  24220763.922    -4021108.410 2  -3133304.298 1
 91  4  5 22 28 15.0030000  0  6 18 19 02 11 16 06
  23434830.702    16599522.484 3  12934667.391 1
  21970560.403     4630099.183 3   3607871.575 2
  22449580.485   -11704329.476 3  -9120216.076 2
  23859759.524    -4069231.415 3  -3170798.271 1
  24767075.411     -539056.002 2   -420037.509 1
  24217289.025    -4039386.692 2  -3147547.051 1
 91  4  5 22 28 30.0030000  0  6 18 19 02 11 16 06
  23446380.513    16660184.581 3  12981936.427 1
  21975166.109     4654277.002 3   3626711.431 2
  22447416.885   -11715705.003 3  -9129080.071 2
  23864966.634    -4041889.490 3  -3149492.876 1
  24770726.275     -519882.063 2   -405096.899 1
  24213806.939    -4057664.209 2  -3161789.187 1
 91  4  5 22 28 45.0030000  0  6 18 19 02 11 16 06
  23457938.403    16720922.641 3  13029264.635 1
  21979775.724     4678520.266 3   3645602.279 2
  22445265.569   -11726995.260 3  -9137877.593 2
  23870197.406    -4014389.593 3  -3128064.397 1
  24774408.027     -500576.325 2   -390053.464 1
  24210333.229    -4075929.511 2  -3176021.788 1
 91  4  5 22 29  0.0030000  0  6 18 19 02 11 16 06
  23469502.610    16781735.623 3  13076651.262 1
  21984404.813     4702828.475 3   3664543.737 2
  22443137.044   -11738200.817 3  -9146609.127 2
  23875462.957    -3986732.502 3  -3106513.408 1
  24778098.172     -481139.695 2   -374908.130 1
  24206858.943    -4094183.136 2  -3190245.308 1
 91  4  5 22 29 15.0030000  0  6 18 19 02 11 16 06
  23481097.983    16842620.269 3  13124093.700 1
  21989036.013     4727198.761 3   3683533.562 2
  22441019.007   -11749324.974 3  -9155277.235 2
  23880754.299    -3958921.543 3  -3084842.551 1
  24781817.407     -461575.340 2   -359663.214 1
  24203391.532    -4112428.275 2  -3204462.182 1
 91  4  5 22 29 30.0030000  0  6 18 19 02 11 16 06
  23492693.042    16903579.191 3  13171594.024 1
  21993691.487     4751633.945 3   3702573.954 2
  22438914.755   -11760364.899 3  -9163879.718 2
  23886077.418    -3930953.918 3  -3063049.636 1
  24785559.118     -441880.759 2   -344316.793 1
  24199911.243    -4130662.232 2  -3218670.401 1
 91  4  5 22 29 45.0030000  0  6 18 19 02 11 16 06
  23504305.813    16964610.336 3  13219150.628 1
  21998350.259     4776132.495 3   3721663.742 2
  22436835.404   -11771322.135 3  -9172417.757 2
  23891429.016    -3902831.465 3  -3041136.031 1
  24789334.699     -422057.765 2   -328870.339 1
  24196451.040    -4148886.504 2  -3232871.046 1
 91  4  5 22 30  0.0030000  0  6 18 19 02 11 16 06
  23515936.261    17025711.721 3  13266761.978 1
  22003028.523     4800692.644 3   3740801.507 2
  22434763.540   -11782198.528 3  -9180892.800 2
  23896811.187    -3874556.081 3  -3019103.288 1
  24793137.276     -402108.064 2   -313325.159 1
  24192980.645    -4167102.758 2  -3247065.438 1
 91  4  5 22 30 15.0030000  0  6 18 19 02 11 16 06
  23527578.697    17086885.363 3  13314429.627 1
  22007708.584     4825316.637 3   3759989.031 2
  22432709.963   -11792991.807 3  -9189303.095 2
  23902217.945    -3846125.660 3  -2996949.732 1
  24796963.219     -382029.718 2   -297679.781 1
  24189516.550    -4185308.848 2  -3261251.918 1
 91  4  5 22 30 30.0030000  0  6 18 19 02 11 16 06
  23539224.728    17148128.421 3  13362151.365 1
  22012408.730     4850002.194 3   3779224.521 2
  22430670.766   -11803704.674 3  -9197650.709 2
  23907658.574    -3817542.708 3  -2974677.306 1
  24800795.758     -361825.367 2   -281936.141
  24186054.235    -4203507.392 2  -3275432.513 1
 91  4  5 22 30 45.0030000  0  6 18 19 02 11 16 06
  23550896.550    17209444.152 3  13409929.730 1
  22017114.862     4874752.712 3   3798510.638 2
  22428647.762   -11814333.678 3  -9205932.993 2
  23913129.479    -3788804.077 3  -2952283.574 1
  24804668.485     -341491.708 2   -266091.758 1
  24182596.736    -4221694.823 2  -3289604.491 1
 91  4  5 22 31  0.0030000  0  6 18 19 02 11 16 06
  23562583.956    17270829.657 3  13457762.447 1
  22021842.301     4899565.862 3   3817845.544 2
  22426640.359   -11824881.260 3  -9214151.840 2
  23918616.892    -3759912.342 3  -2929770.541 1
  24808562.483     -321031.476 2   -250148.733 1
  24179134.735    -4239873.605 2  -3303769.694 1
 91  4  5 22 31 15.0030000  0  6 18 19 02 11 16 06
  23574272.862    17332285.462 3  13505649.929 1
  22026573.316     4924442.535 3   3837229.954 2
  22424647.631   -11835346.630 3  -9222306.603 2
  23924150.164    -3730866.837 3  -2907137.674 1
  24812479.586     -300444.158 2   -234106.633 1
  24175676.922    -4258042.973 2  -3317927.581 1
 91  4  5 22 31 30.0030000  0  6 18 19 02 11 16 06
  23585983.371    17393809.993 3  13553591.003 1
  22031325.639     4949381.367 3   3856662.796 2
  22422671.115   -11845730.977 3  -9230398.245 2
  23929705.004    -3701669.100 3  -2884386.222 1
  24816429.041     -279731.109 2   -217966.676 1
  24172223.018    -4276204.325 2  -3332079.213 1
 91  4  5 22 31 45.0030000  0  6 18 19 02 11 16 06
  23597701.646    17455410.799 3  13601591.476 1
  22036079.148     4974390.301 3   3876150.260 2
  22420714.666   -11856026.483 3  -9238420.676 2
  23935293.733    -3672311.355 3  -2861510.070 1
  24820389.595     -258884.842 2   -201722.900 1
  24168761.313    -4294349.858 2  -3346218.465 1
 91  4  5 22 32  0.0030000  0  6 18 19 02 11 16 06
  23609436.133    17517081.320 3  13649646.279 1
  22040851.835     4999463.242 3   3895687.609 2
  22418770.206   -11866239.558 3  -9246378.857 2
  23940908.847    -3642799.966 3  -2838514.208 1
  24824374.143     -237911.697 2   -185380.187 1
  24165312.801    -4312485.627 2  -3360350.139 1
 91  4  5 22 32 15.0030000  0  6 18 19 02 11 16 06
  23621189.482    17578822.496 3  13697756.170 1
  22045634.434     5024601.299 3   3915275.695 2
  22416843.737   -11876369.270 3  -9254272.091 2
  23946556.348    -3613134.053 3  -2815397.943 1
  24828394.952     -216811.045 2   -168938.220 1
  24161861.899    -4330610.657 2  -3374473.437 1
 91  4  5 22 32 30.0030000  0  6 18 19 02 11 16 06
  23632947.945    17640624.424 3  13745913.370 1
  22050428.410     5049794.935 3   3934907.080 2
  22414928.959   -11886425.044 3  -9262107.705 2
  23952230.513    -3583323.254 3  -2792168.738 1
  24832428.361     -195592.309 2   -152404.141 1
  24158418.168    -4348734.638 2  -3388595.946 1
 91  4  5 22 32 45.0030000  0  6 18 19 02 11 16 06
  23644726.197    17702493.067 3  13794122.595 1
  22055231.076     5075050.656 3   3954586.850 2
  22413031.283   -11896400.326 3  -9269880.602 2
  23957928.969    -3553361.449 3  -2768821.899 1
  24836489.358     -174249.350 2   -135773.323 1
  24154975.065    -4366850.999 2  -3402712.486 1
 91  4  5 22 33  0.0030000  0  6 18 19 02 11 16 06
  23656507.449    17764429.988 3  13842385.015 1
  22060056.532     5100370.057 3   3974316.237 2
  22411148.282   -11906293.690 3  -9277589.657 2
  23963655.904    -3523247.211 3  -2745356.248 1
  24840577.927     -152780.752 2   -119044.572 1
  24151528.944    -4384958.173 2  -3416821.925 1
 91  4  5 22 33 15.0030000  0  6 18 19 02 11 16 06
  23668306.972    17826433.807 3  13890699.549 1
  22064880.802     5125752.317 3   3994094.606 2
  22409279.975   -11916106.126 3  -9285235.648 2
  23969423.620    -3492981.442 3  -2721772.553 1
  24844684.486     -131187.790 2   -102218.943 1
  24148083.137    -4403057.175 2  -3430924.955 1
 91  4  5 22 33 30.0030000  0  6 18 19 02 11 16 06
  23680121.799    17888503.804 3  13939065.659 1
  22069725.454     5151197.010 3   4013921.639 2
  22407429.362   -11925838.246 4  -9292819.075 2
  23975207.512    -3462564.856 3  -2698071.332 1
  24848825.214     -109471.031 2    -85296.766 1
  24144639.720    -4421148.317 2  -3445021.858 1
 91  4  5 22 33 45.0030000  0  6 18 19 02 11 16 06
  23691946.503    17950638.777 3  13987482.376 1
  22074573.997     5176703.336 3   4033796.674 2
  22405590.440   -11935491.072 4  -9300340.713 2
  23981029.183    -3431998.570 3  -2674253.469 1
  24852985.729      -87631.767 2    -68279.270 1
  24141197.490    -4439232.641 2  -3459113.424 1
 91  4  5 22 34  0.0030000  0  6 18 19 02 11 16 06
  23703776.617    18012838.853 3  14035949.827 1
  22079445.923     5202271.693 3   4053720.055 2
  22403770.086   -11945064.141 4  -9307800.195 2
  23986869.736    -3401282.303 3  -2650318.715 1
  24857156.454      -65669.785 2    -51166.122 1
  24137760.373    -4457309.802 2  -3473199.457 1
 91  4  5 22 34 15.0030000  0  6 18 19 02 11 16 06
  23715629.520    18075106.380 3  14084469.843 1
  22084318.739     5227904.775 3   4073693.878 2
  22401963.535   -11954554.833 4  -9315195.502 2
  23992743.270    -3370413.611 3  -2626265.214 1
  24861360.735      -43582.597 2    -33955.377 1
  24134316.363    -4475377.220 2  -3487277.857 1
 91  4  5 22 34 30.0030000  0  6 18 19 02 11 16 06
  23727494.394    18137438.396 3  14133040.073 1
  22089213.456     5253600.271 3   4093716.330 2
  22400174.085   -11963965.501 4  -9322528.434 2
  23998644.690    -3339395.106 3  -2602094.973 1
  24865583.007      -21372.972 2    -16649.176 1
  24130883.138    -4493437.199 2  -3501350.465 1
 91  4  5 22 34 45.0030000  0  6 18 19 02 11 16 06
  23739364.678    18199837.670 3  14181662.769 1
  22094110.563     5279361.218 3   4113789.783 2
  22398400.514   -11973293.213 4  -9329796.732 2
  24004576.385    -3308223.942 3  -2577805.781 1
  24869836.462         962.009 2       754.626 1
  24127446.911    -4511486.646 2  -3515414.844 1
 91  4  5 22 35  0.0030000  0  6 18 19 02 11 16 06
  23751248.451    18262303.984 3  14230337.696 1
  22099030.163     5305187.592 3   4133914.211 2
  22396637.135   -11982538.128 3  -9337000.521 2
  24010538.357    -3276900.405 3  -2553397.829 1
  24874105.519       23422.264 2     18256.107 1
  24124014.592    -4529525.840 2  -3529471.274 1
 91  4  5 22 35 15.0030000  0  6 18 19 02 11 16 06
  23763150.215    18324830.283 3  14279059.361 1
  22103951.561     5331072.734 3   4154084.433 2
  22394896.231   -11991706.855 4  -9344144.929 2
  24016527.306    -3245431.496 3  -2528876.598 1
  24878408.428       46000.275 2     35849.296 1
  24120580.163    -4547561.471 2  -3543524.923 1
 91  4  5 22 35 30.0030000  0  6 18 19 02 11 16 06
  23775061.873    18387421.865 3  14327831.873 1
  22108891.525     5357022.137 3   4174304.728 2
  22393164.629   -12000794.109 4  -9351225.850 2
  24022545.031    -3213811.739 3  -2504237.826 1
  24882725.141       68701.639 2     53538.639 1
  24117154.441    -4565587.895 2  -3557571.410 1
 91  4  5 22 35 45.0030000  0  6 18 19 02 11 16 06
  23786987.910    18450078.056 3  14376654.749 1
  22113840.512     5383035.604 3   4194574.948 2
  22391450.424   -12009800.357 4  -9358243.661 2
  24028587.955    -3182041.544 3  -2479481.840 1
  24887072.740       91525.854 2     71323.706 1
  24113721.826    -4583605.596 2  -3571611.025 1
 91  4  5 22 36  0.0030000  0  6 18 19 02 11 16 06
  23798922.655    18512798.389 3  14425527.593 1
  22118808.362     5409112.812 3   4214894.834 2
  22389752.693   -12018725.878 4  -9365198.546 2
  24034665.953    -3150121.491 3  -2454609.103 1
  24891442.205      114472.572 2     89204.194 1
  24110296.994    -4601614.926 2  -3585644.202 1
 91  4  5 22 36 15.0030000  0  6 18 19 02 11 16 06
  23810870.278    18575582.300 3  14474449.972 1
  22123778.323     5435253.854 3   4235264.453 2
  22388067.560   -12027570.910 4  -9372090.738 2
  24040766.130    -3118051.891 3  -2429619.852 2
  24895831.476      137541.480 2    107179.927 1
  24106867.956    -4619615.856 2  -3599670.792 1
 91  4  5 22 36 30.0030000  0  6 18 19 02 11 16 06
  23822827.499    18638427.806 3  14523420.331 1
  22128767.480     5461457.072 3   4255682.528 2
  22386401.919   -12036337.007 4  -9378921.413 2
  24046895.379    -3085834.637 3  -2404515.518 1
  24900228.826      160730.572 2    125249.315 1
  24103446.736    -4637610.202 2  -3613692.257 1
 91  4  5 22 36 45.0030000  0  6 18 19 02 11 16 06
  23834797.319    18701337.406 3  14572440.650 1
  22133759.621     5487725.210 3   4276151.200 2
  22384749.157   -12045021.243 4  -9385688.292 2
  24053057.906    -3053466.975 3  -2379293.972 1
  24904673.850      184042.239 2    143414.211 1
  24100022.794    -4655595.053 2  -3627706.370 1
 91  4  5 22 37  0.0030000  0  6 18 19 02 11 16 06
  23846779.423    18764310.855 2  14621510.736 1
  22138774.849     5514058.540 3   4296670.655 2
  22383109.604   -12053623.793 3  -9392391.530 2
  24059246.225    -3020948.942 3  -2353955.264 1
  24909135.068      207476.577 2    161674.532 1
  24096607.560    -4673570.126 2  -3641712.804 1
 91  4  5 22 37 15.0030000  0  6 18 19 02 11 16 06
  23858782.207    18827342.790 3  14670626.414 1
  22143794.264     5540451.965 3   4317236.961 2
  22381488.322   -12062149.715 4  -9399035.056 2
  24065457.926    -2988285.921 3  -2328503.603 1
  24913616.668      231028.218 2    180026.532 1
  24093179.133    -4691540.787 2  -3655715.862 1
 91  4  5 22 37 30.0030000  0  6 18 19 02 11 16 06
  23870782.303    18890436.244 3  14719789.993 1
  22148835.580     5566908.814 3   4337852.658 2
  22379879.324   -12070595.955 4  -9405616.491 2
  24071706.797    -2955474.875 3  -2302936.555 1
  24918126.432      254700.027 2    198472.025 1
  24089765.102    -4709503.716 2  -3669712.853 1
 91  4  5 22 37 45.0030000  0  6 18 19 02 11 16 06
  23882799.779    18953591.575 3  14769001.825 1
  22153876.599     5593429.771 3   4358518.333 2
  22378288.929   -12078961.847 4  -9412135.326 2
  24077973.659    -2922515.468 3  -2277253.900 1
  24922655.410      278492.416 2    217011.501 1
  24086347.163    -4727458.253 2  -3683703.273 1
 91  4  5 22 38  0.0030000  0  6 18 19 02 11 16 06
  23894835.543    19016809.139 3  14818262.156 1
  22158937.685     5620015.597 3   4379234.542 2
  22376712.319   -12087246.654 4  -9418590.957 2
  24084275.002    -2889407.111 3  -2251455.204 1
  24927203.250      302406.055 2    235645.524 1
  24082935.838    -4745403.881 2  -3697686.824 1
 91  4  5 22 38 15.0030000  0  6 18 19 02 11 16 06
  23906874.012    19080088.260 3  14867570.398 1
  22164006.869     5646666.119 3   4400001.170 2
  22375151.013   -12095450.609 4  -9424983.590 2
  24090606.325    -2856150.217 3  -2225540.766 1
  24931769.100      326440.473 2    254373.576 1
  24079524.494    -4763340.568 2  -3711663.311 1
 91  4  5 22 38 30.0030000  0  6 18 19 02 11 16 06
  23918924.766    19143425.974 3  14916924.292 1
  22169095.858     5673378.734 3   4420816.177 2
  22373605.866   -12103576.736 4  -9431315.581 2
  24096963.422    -2822747.780 3  -2199512.917 1
  24936373.602      350592.409 2    273193.114 1
  24076102.664    -4781271.286 2  -3725635.226 1
 91  4  5 22 38 45.0030000  0  6 18 19 02 11 16 06
  23930997.717    19206824.216 3  14966325.373 1
  22174185.127     5700155.743 3   4441681.356 2
  22372075.430   -12111622.575 4  -9437585.009 2
  24103341.808    -2789197.549 3  -2173369.897 1
  24940992.203      374863.857 2    292105.960 1
  24072697.027    -4799193.469 2  -3739600.474 1
 91  4  5 22 39  0.0030000  0  6 18 19 02 11 16 06
  23943063.164    19270282.610 3  15015773.296 1
  22179298.390     5726997.065 3   4462596.656 2
  22370558.483   -12119588.456 4  -9443792.151 2
  24109756.770    -2755499.880 3  -2147112.018 1
  24945637.189      399254.711 2    311111.718 1
  24069289.279    -4817107.452 2  -3753559.318 1
 91  4  5 22 39 15.0030000  0  6 18 19 02 11 16 06
  23955154.088    19333800.338 3  15065267.508 1
  22184411.653     5753901.879 3   4483561.434 2
  22369056.822   -12127475.206 4  -9449937.611 2
  24116199.600    -2721655.881 3  -2120740.100 1
  24950298.369      423763.850 2    330209.611 1
  24065878.843    -4835014.010 2  -3767512.421 1
 91  4  5 22 39 30.0030000  0  6 18 19 02 11 16 06
  23967252.516    19397379.122 3  15114809.271 1
  22189547.688     5780872.683 3   4504577.622 2
  22367575.246   -12135280.532 4  -9456019.621 2
  24122669.128    -2687663.373 3  -2094252.450 1
  24954971.241      448393.482 2    349401.562 1
  24062477.098    -4852910.792 2  -3781457.876 1
 91  4  5 22 39 45.0030000  0  6 18 19 02 11 16 06
  23979362.025    19461018.027 2  15164397.894 1
  22194687.632     5807908.953 3   4525644.824 2
  22366102.971   -12143004.914 4  -9462038.585 2
  24129165.321    -2653523.087 3  -2067649.637 1
  24959687.860      473142.901 2    368686.747 1
  24059075.945    -4870798.206 2  -3795396.029 1
 91  4  5 22 40  0.0030000  0  6 18 19 02 11 16 06
  23991479.037    19524716.327 2  15214032.798 1
  22199849.756     5835009.945 3   4546762.453 2
  22364648.670   -12150649.118 4  -9467995.052 2
  24135689.102    -2619236.002 3  -2040932.438 1
  24964429.992      498010.831 2    388064.202 1
  24055670.012    -4888677.145 2  -3809327.546 1
 91  4  5 22 40 15.0030000  0  6 18 19 02 11 16 06
  24003616.745    19588472.060 2  15263712.431 1
  22205013.694     5862174.316 3   4567929.488 2
  22363205.781   -12158214.809 4  -9473890.349 2
  24142238.675    -2584803.817 3  -2014102.180 1
  24969170.309      522995.527 2    407532.727 1
  24052270.954    -4906549.145 2  -3823253.722 1
 91  4  5 22 40 30.0030000  0  6 18 19 02 11 16 06
  24015756.530    19652286.264 2  15313437.644 1
  22210200.998     5889403.680 3   4589147.159 2
  22361782.960   -12165700.583 4  -9479723.359 2
  24148825.120    -2550225.265 3  -1987157.878 1
  24973954.391      548098.405 2    427093.387 1
  24048872.210    -4924412.603 2  -3837173.244 1
 91  4  5 22 40 45.0030000  0  6 18 19 02 11 16 06
  24027916.714    19716160.373 3  15363209.492 1
  22215392.508     5916699.522 3   4610416.624 2
  22360375.443   -12173104.910 4  -9485492.928 2
  24155425.944    -2515498.845 3  -1960098.343 1
  24978749.274      573320.846 2    446747.128 1
  24045470.168    -4942265.888 2  -3851084.776 1
 91  4  5 22 41  0.0030000  0  6 18 19 02 11 16 06
  24040079.900    19780091.543 3  15413025.826 1
  22220604.399     5944059.363 3   4631735.955 2
  22358983.491   -12180430.442 4  -9491201.087 2
  24162065.159    -2480627.514 3  -1932925.925 1
  24983580.419      598660.007 2    466491.853 1
  24042075.612    -4960111.657 2  -3864990.476 1
 91  4  5 22 41 15.0030000  0  6 18 19 02 11 16 06
  24052258.966    19844079.401 2  15462886.344 1
  22225818.978     5971483.021 3   4653105.016 2
  22357600.562   -12187677.294 4  -9496847.927 2
  24168727.442    -2445611.583 3  -1905640.831 1
  24988427.165      624115.416 2    486327.156 1
  24038681.073    -4977950.077 2  -3878890.451 1
 91  4  5 22 41 30.0030000  0  6 18 19 02 11 16 06
  24064443.440    19908126.049 2  15512792.698 1
  22231051.862     5998973.345 3   4674526.030 2
  22356238.293   -12194843.061 4  -9502431.599 2
  24175416.111    -2410448.632 3  -1878241.148 1
  24993291.308      649689.452 2    506254.917 1
  24035283.813    -4995778.404 2  -3892782.565 1
 91  4  5 22 41 45.0030000  0  6 18 19 02 11 16 06
  24076641.980    19972227.807 2  15562741.972 1
  22236291.342     6026526.795 3   4695996.232 2
  22354887.437   -12201931.146 4  -9507954.743 2
  24182136.259    -2375142.362 3  -1850729.823 1
  24998172.222      675378.279 2    526272.105 1
  24031895.259    -5013600.397 2  -3906669.701 1
 91  4  5 22 42  0.0030000  0  6 18 19 02 11 16 06
  24088855.527    20036381.943 3  15612732.071 1
  22241548.796     6054141.247 3   4717513.967 2
  22353553.664   -12208943.807 4  -9513419.101 2
  24188881.292    -2339695.156 3  -1823108.629 1
  25003084.929      701179.432 2    546376.849 1
  24028504.316    -5031417.953 2  -3920553.425 1
 91  4  5 22 42 15.0030000  0  6 18 19 02 11 16 06
  24101072.372    20100592.044 2  15662765.687 1
  22246813.160     6081820.425 3   4739082.135 2
  22352233.677   -12215877.586 4  -9518821.994 2
  24195656.898    -2304103.599 3  -1795374.987 1
  25008023.410      727096.162 2    566571.686 1
  24025117.560    -5049227.580 2  -3934430.981 1
 91  4  5 22 42 30.0030000  0  6 18 19 02 11 16 06
  24113295.220    20164857.472 2  15712842.484 1
  22252097.592     6109564.031 3   4760700.507 2
  22350934.962   -12222732.606 4  -9524163.519 2
  24202458.591    -2268368.095 3  -1767529.168 1
  25012962.782      753128.212 2    586856.334 1
  24021731.101    -5067029.450 2  -3948302.470 1
 91  4  5 22 42 45.0030000  0  6 18 19 02 11 16 06
  24125543.231    20229179.252 2  15762963.192 1
  22257385.933     6137373.522 3   4782370.218 2
  22349639.860   -12229507.785 4  -9529442.826 2
  24209282.464    -2232487.786 3  -1739570.502 1
  25017953.439      779276.706 2    607231.579 1
  24018342.251    -5084822.281 2  -3962166.909 1
 91  4  5 22 43  0.0030000  0  6 18 19 02 11 16 06
  24137786.165    20293556.065 2  15813126.797 1
  22262691.358     6165247.902 3   4804090.488 2
  22348364.545   -12236204.040 4  -9534660.650 2
  24216138.724    -2196463.752 3  -1711499.847 1
  25022942.282      805540.373 2    627696.751 1
  24014963.889    -5102607.096 2  -3976025.124 1
 91  4  5 22 43 15.0030000  0  6 18 19 02 11 16 06
  24150050.370    20357985.148 2  15863331.147 1
  22268008.177     6193184.778 3   4825859.477 2
  22347106.315   -12242823.831 4  -9539818.880 2
  24223023.446    -2160298.650 3  -1683319.278 1
  25027962.308      831916.454 2    648249.477 1
  24011574.132    -5120386.234 2  -3989878.894 1
 91  4  5 22 43 30.0030000  0  6 18 19 02 11 16 06
  24162318.780    20422467.591 2  15913577.076 1
  22273336.985     6221185.789 3   4847678.422 2
  22345858.886   -12249365.678 4  -9544916.368 2
  24229931.568    -2123991.095 3  -1655027.690 1
  25033002.420      858406.253 2    668890.731 1
  24008193.379    -5138158.168 2  -4003727.030 1
 91  4  5 22 43 45.0030000  0  6 18 19 02 11 16 06
  24174602.774    20487002.666 2  15963863.966 1
  22278672.389     6249250.312 3   4869546.854 2
  22344632.729   -12255830.232 4  -9549953.644 2
  24236868.763    -2087542.036 3  -1626625.883 1
  25038069.806      885009.055 2    689620.136 1
  24004811.719    -5155923.404 2  -4017570.007 1
 91  4  5 22 44  0.0030000  0  6 18 19 02 11 16 06
  24186894.567    20551593.315 2  16014194.177 1
  22284035.679     6277381.763 3   4891467.451 2
  22343417.077   -12262214.358 4  -9554928.234 2
  24243832.342    -2050948.399 3  -1598111.368 1
  25043148.884      911727.647 2    710439.718 1
  24001431.856    -5173678.784 2  -4031405.285 1
 91  4  5 22 44 15.0030000  0  6 18 19 02 11 16 06
  24199199.536    20616236.257 2  16064565.123 1
  22289394.780     6305577.178 3   4913437.889 2
  22342216.101   -12268521.162 4  -9559842.576 2
  24250822.602    -2014213.396 3  -1569486.714 1
  25048258.552      938558.826 2    731347.112 1
  23998056.199    -5191427.256 2  -4045235.188 1
 91  4  5 22 44 30.0030000  0  6 18 19 02 11 16 06
  24211503.632    20680929.566 2  16114975.324 1
  22294776.654     6333834.830 3   4935456.824 2
  22341029.521   -12274752.303 4  -9564697.965 2
  24257838.951    -1977339.013 3  -1540753.487 1
  25053380.802      965500.598 2    752340.611 1
  23994680.227    -5209170.641 2  -4059061.089 1
 91  4  5 22 44 45.0030000  0  6 18 19 02 11 16 06
  24223826.295    20745672.428 2  16165424.161 1
  22300159.418     6362154.557 3   4957524.127 2
  22339860.635   -12280908.067 4  -9569494.620 2
  24264877.776    -1940325.667 3  -1511911.934 1
  25058533.345      992552.400 2    773419.867 1
  23991304.273    -5226909.042 2  -4072883.151 1
 91  4  5 22 45  0.0030000  0  6 18 19 02 11 16 06
  24236150.756    20810467.259 2  16215913.491 1
  22305568.881     6390538.983 3   4979641.836 2
  22338704.332   -12286985.991 4  -9574230.613 2
  24271950.785    -1903171.064 3  -1482960.331 1
  25063700.860     1019716.489 2    794586.573 1
  23987928.598    -5244639.951 2  -4086699.322 1
 91  4  5 22 45 15.0030000  0  6 18 19 02 11 16 06
  24248496.523    20875316.281 2  16266445.020 1
  22310974.435     6418990.606 3   5001811.912 2
  22337562.128   -12292983.854 4  -9578904.230 2
  24279048.068    -1865872.951 3  -1453896.901 1
  25068892.667     1046995.004 2    815842.586 1
  23984554.145    -5262360.750 2  -4100507.650 1
 91  4  5 22 45 30.0030000  0  6 18 19 02 11 16 06
  24260855.151    20940217.326 2  16317017.089 1
  22316410.876     6447507.695 3   5024032.996 2
  22336436.414   -12298903.359 4  -9583516.778 2
  24286173.533    -1828433.376 3  -1424723.225 1
  25074090.162     1074386.080 2    837186.179
  23981185.677    -5280073.368 2  -4114309.655 1
 91  4  5 22 45 45.0030000  0  6 18 19 02 11 16 06
  24273209.016    21005169.845 2  16367629.243 1
  22321841.017     6476090.227 3   5046305.083 2
  22335322.671   -12304744.563 4  -9588068.314 2
  24293324.178    -1790852.815 3  -1395439.689 1
  25079337.128     1101889.268 2    858617.103 1
  23977818.710    -5297777.804 2  -4128105.194 1
 91  4  5 22 46  0.0030000  0  6 18 19 02 11 16 06
  24285582.337    21070175.610 2  16418282.907 1
  22327299.340     6504740.304 3   5068629.803 2
  22334226.641   -12310505.697 4  -9592557.477 2
  24300505.117    -1753129.359 3  -1366044.855 1
  25084599.695     1129506.175 2    880136.771 1
  23974454.133    -5315472.137 2  -4141892.874 1
 91  4  5 22 46 15.0030000  0  6 18 19 02 11 16 06
  24297953.285    21135231.640 2  16468975.793 1
  22332757.646     6533455.181 3   5091005.001 2
  22333144.989   -12316189.485 4  -9596986.353 2
  24307710.923    -1715265.907 3  -1336540.847 1
  25089867.340     1157234.078 2    901742.696 1
  23971084.758    -5333158.907 2  -4155674.704 1
 91  4  5 22 46 30.0030000  0  6 18 19 02 11 16 06
  24310345.191    21200338.911 2  16519708.577 1
  22338238.166     6562236.301 3   5113431.832 2
  22332075.325   -12321794.662 4  -9601353.973 2
  24314939.815    -1677261.460 3  -1306927.059 1
  25095169.170     1185074.148 2    923436.242 1
  23967718.088    -5350836.908 2  -4169449.660 1
 91  4  5 22 46 45.0030000  0  6 18 19 02 11 16 06
  24322738.614    21265495.514 2  16570479.796 1
  22343723.468     6591081.901 3   5135908.918 2
  22331027.248   -12327322.975 4  -9605661.703 2
  24322199.298    -1639118.006 3  -1277204.880 1
  25100484.488     1213023.808 2    945215.206 1
  23964354.419    -5368507.844 2  -4183219.144 1
 91  4  5 22 47  0.0030000  0  6 18 19 02 11 16 06
  24335151.233    21330700.370 2  16621288.632 1
  22349232.746     6619991.545 3   5158435.890 2
  22329990.565   -12332775.191 4  -9609910.132 2
  24329481.850    -1600836.534 3  -1247375.224 2
  25105830.694     1241082.507 2    967079.039 1
  23960996.752    -5386172.330 2  -4196983.594 1
 91  4  5 22 47 15.0030000  0  6 18 19 02 11 16 06
  24347575.230    21395952.536 2  16672134.252 1
  22354737.243     6648964.547 3   5181012.235 2
  22328965.574   -12338152.039 4  -9614099.850 2
  24336795.585    -1562417.808 3  -1217438.600 1
  25111176.900     1269249.480 2    989027.299 1
  23957634.270    -5403830.910 2  -4210743.463 1
 91  4  5 22 47 30.0030000  0  6 18 19 02 11 16 06
  24359996.522    21461253.567 2  16723017.991 1
  22360269.014     6678002.864 3   5203639.484 2
  22327957.981   -12343451.680 4  -9618229.398 2
  24344131.517    -1523860.252 3  -1187393.765 1
  25116566.871     1297525.919 2   1011060.720 1
  23954275.696    -5421481.803 2  -4224497.332 1
 91  4  5 22 47 45.0030000  0  6 18 19 02 11 16 06
  24372439.103    21526602.986 2  16773939.444 1
  22365804.083     6707106.462 3   5226317.593 2
  22326965.064   -12348674.040 4  -9622298.720 2
  24351494.409    -1485163.998 3  -1157240.917 1
  25121963.421     1325911.672 2   1033179.429 1
  23950916.233    -5439124.955 2  -4238245.146 1
 91  4  5 22 48  0.0030000  0  6 18 19 02 11 16 06
  24384872.104    21592001.361 2  16824899.067 1
  22371358.627     6736276.064 3   5249047.130 2
  22325984.449   -12353818.800 4  -9626307.582 2
  24358886.688    -1446328.690 3  -1126979.648 1
  25127382.167     1354407.030 2   1055383.552 1
  23947561.847    -5456759.741 2  -4251986.437 1
 91  4  5 22 48 15.0030000  0  6 18 19 02 11 16 06
  24397336.568    21657450.958 2  16875898.586 1
  22376917.377     6765514.471 3   5271830.289 2
  22325018.213   -12358883.192 4  -9630253.817 2
  24366299.366    -1407351.882 3  -1096608.144 1
  25132834.801     1383014.751 2   1077675.184 1
  23944206.868    -5474383.366 2  -4265719.055 1
 91  4  5 22 48 30.0030000  0  6 18 19 02 11 16 06
  24409789.950    21722947.032 2  16926934.298 1
  22382505.809     6794816.988 3   5294663.391 2
  22324069.968   -12363871.986 4  -9634141.137 2
  24373742.303    -1368238.404 3  -1066130.119 1
  25138302.723     1411729.572 2   1100050.270 1
  23940855.484    -5492000.358 2  -4279446.449 1
 91  4  5 22 48 45.0030000  0  6 18 19 02 11 16 06
  24422266.123    21788489.115 2  16978005.866 1
  22388078.955     6824183.684 3   5317546.507 2
  22323136.120   -12368785.234 4  -9637969.599 2
  24381218.534    -1328988.464 3  -1035545.828 1
  25143786.227     1440551.427 2   1122508.777 1
  23937503.210    -5509610.770 2  -4293168.812 1
 91  4  5 22 49  0.0030000  0  6 18 19 02 11 16 06
  24434747.077    21854077.098 2  17029113.231 1
  22393690.770     6853614.936 3   5340479.931 2
  22322216.057   -12373622.528 4  -9641738.881 2
  24388710.349    -1289602.144 3  -1004855.180 1
  25149297.005     1469480.294 2   1145050.634 1
  23934153.623    -5527214.274 2  -4306885.738 1
 91  4  5 22 49 15.0030000  0  6 18 19 02 11 16 06
  24447243.929    21919711.905 2  17080257.059 1
  22399297.490     6883111.849 3   5363464.516 2
  22321309.187   -12378383.079 4  -9645448.349 2
  24396232.440    -1250078.577 3   -974057.659 1
  25154814.991     1498517.071 2   1167676.641 1
  23930813.634    -5544809.807 2  -4320596.429 1
 91  4  5 22 49 30.0030000  0  6 18 19 02 11 16 06
  24459735.074    21985388.420 2  17131433.418 1
  22404921.888     6912669.793 3   5386496.664 2
  22320416.695   -12383071.741 4  -9649101.802 2
  24403776.710    -1210422.914 3   -943157.174 1
  25160358.454     1527656.489 2   1190382.565 1
  23927457.765    -5562402.113 2  -4334304.644 1
 91  4  5 22 49 45.0030000  0  6 18 19 02 11 16 06
  24472245.117    22051109.174 2  17182644.211 1
  22410556.790     6942291.629 3   5409578.591 2
  22319541.305   -12387685.365 4  -9652696.794 2
  24411350.680    -1170632.440 3   -912151.618 1
  25165931.286     1556901.370 2   1213170.741 1
  23924114.478    -5579988.333 2  -4348008.122 1
 91  4  5 22 50  0.0030000  0  6 18 19 02 11 16 06
  24484762.944    22116878.443 2  17233892.818 1
  22416212.685     6971982.115 3   5432714.022 2
  22318680.294   -12392219.632 4  -9656229.948 2
  24418948.017    -1130702.801 3   -881037.676 1
  25171511.324     1586255.999 2   1236044.350 1
  23920765.799    -5597563.712 2  -4361703.100 1
 91  4  5 22 50 15.0030000  0  6 18 19 02 11 16 06
  24497285.586    22182694.228 2  17285177.601 1
  22421868.562     7001739.561 3   5455901.619 2
  22317832.179   -12396676.514 4  -9659702.791 2
  24426566.642    -1090636.009 3   -849816.854 1
  25177118.638     1615718.060 2   1259001.745 1
  23917425.513    -5615130.118 2  -4375391.112 1
 91  4  5 22 50 30.0030000  0  6 18 19 02 11 16 06
  24509816.605    22248550.944 2  17336494.375 1
  22427550.527     7031558.475 3   5479137.104 2
  22316996.365   -12401061.359 4  -9663119.512 2
  24434220.046    -1050437.693 3   -818493.527 1
  25182731.954     1645282.041 2   1282038.464 1
  23914079.835    -5632692.684 2  -4389076.169 1
 91  4  5 22 50 45.0030000  0  6 18 19 02 11 16 06
  24522358.722    22314454.553 2  17387847.696 1
  22433231.603     7061445.313 3   5502425.534 2
  22316175.525   -12405367.684 4  -9666475.045 2
  24441900.724    -1010101.553 3   -787062.821 1
  25188389.350     1674954.262 2   1305159.555 1
  23910746.128    -5650245.089 2  -4402753.275 1
 91  4  5 22 51  0.0030000  0  6 18 19 02 11 16 06
  24534911.641    22380403.652 2  17439236.407 1
  22438933.653     7091399.282 3   5525766.267 2
  22315369.988   -12409596.509 4  -9669770.197 2
  24449599.987     -969628.937 3   -755525.754 1
  25194053.917     1704733.301 2   1328363.840 1
  23907400.450    -5667788.148 2  -4416423.093 1
 91  4  5 22 51 15.0030000  0  6 18 19 02 11 16 06
  24547460.040    22446393.894 2  17490657.184 1
  22444643.190     7121416.161 3   5549156.024 2
  22314580.645   -12413752.224 4  -9673008.359 2
  24457325.042     -929024.455 3   -723885.912 1
  25199752.373     1734614.461 2   1351647.866 1
  23904069.151    -5685326.216 2  -4430089.037 1
 91  4  5 22 51 30.0030000  0  6 18 19 02 11 16 06
  24560026.152    22512427.913 2  17542112.030 1
  22450371.032     7151499.031 3   5572597.194 2
  22313801.772   -12417831.967 4  -9676187.342 2
  24465079.482     -888285.254 2   -692141.109 1
  25205455.034     1764600.507 2   1375013.543 1
  23900733.071    -5702856.270 2  -4443748.716 1
 91  4  5 22 51 45.0030000  0  6 18 19 02 11 16 06
  24572613.831    22578504.215 2  17593599.895 1
  22456106.360     7181646.655 3   5596088.826 2
  22313040.610   -12421836.969 4  -9679308.078 2
  24472852.804     -847412.817 2   -660292.503 1
  25211174.465     1794689.975 2   1398459.701 1
  23897399.381    -5720379.472 2  -4457403.062 1
 91  4  5 22 52  0.0030000  0  6 18 19 02 11 16 06
  24585180.832    22644622.191 2  17645120.261 1
  22461854.287     7211858.809 3   5619630.756 2
  22312293.218   -12425767.607 4  -9682370.864 2
  24480657.291     -806407.717 2   -628340.522 1
  25216928.081     1824882.462 2   1421986.211 2
  23894059.689    -5737896.076 2  -4471052.271 1
 91  4  5 22 52 15.0030000  0  6 18 19 02 11 16 06
  24597769.123    22710780.578 2  17696672.059 1
  22467613.889     7242134.576 3   5643222.240 2
  22311557.534   -12429624.929 4  -9685376.537 2
  24488482.475     -765271.256 3   -596286.211 1
  25222688.294     1855176.525 2   1445591.951 1
  23890731.391    -5755406.968 2  -4484697.053 1
 91  4  5 22 52 30.0030000  0  6 18 19 02 11 16 06
  24610375.684    22776980.144 2  17748255.923 1
  22473390.591     7272475.084 3   5666864.181 2
  22310839.231   -12433407.971 4  -9688324.319 2
  24496343.641     -724002.623 3   -564128.845 1
  25228473.686     1885573.095 2   1469277.431 1
  23887399.203    -5772911.278 2  -4498336.685 1
 91  4  5 22 52 45.0030000  0  6 18 19 02 11 16 06
  24622981.965    22843222.819 2  17799873.377 1
  22479173.594     7302882.892 3   5690558.554 2
  22310132.619   -12437114.191 4  -9691212.248 2
  24504219.779     -682599.562 3   -531866.766 1
  25234275.570     1916074.138 2   1493044.514 1
  23884073.296    -5790406.190 2  -4511968.984 1
 91  4  5 22 53  0.0030000  0  6 18 19 02 11 16 06
  24635590.341    22909491.250 2  17851510.974 1
  22484974.570     7333340.915 3   5714292.062 2
  22309437.402   -12440761.058 4  -9694053.926 2
  24512122.006     -641079.615 2   -499513.564 1
  25240099.650     1946662.172 2   1516879.136 1
  23880738.716    -5807909.104 2  -4525607.539 1
 91  4  5 22 53 15.0030000  0  6 18 19 02 11 16 06
  24648205.906    22975747.863 2  17903139.269 1
  22490769.263     7363811.521 3   5738035.367 2
  22308747.578   -12444386.035 4  -9696878.544 2
  24520035.034     -599480.434 3   -467098.701 1
  25245927.900     1977299.518 2   1540752.311 1
  23877402.025    -5825457.302 2  -4539281.361 1
 91  4  5 22 53 30.0030000  0  6 18 19 02 11 16 06
  24660819.970    23042050.051 2  17954803.108 1
  22496586.136     7394352.956 3   5761833.861 2
  22308076.041   -12447930.984 4  -9699640.806 2
  24527981.636     -557744.233 3   -434576.998 1
  25251771.158     2008043.946 2   1564708.962 1
  23874062.333    -5842992.686 2  -4552945.235 1
 91  4  5 22 53 45.0030000  0  6 18 19 02 11 16 06
  24673446.337    23108401.975 2  18006505.725 1
  22502406.604     7424969.516 3   5785690.905 2
  22307417.400   -12451391.764 4  -9702337.482 2
  24535948.324     -515867.014 2   -401945.446 1
  25257647.990     2038899.449 2   1588752.021 1
  23870728.346    -5860511.006 2  -4566595.727 1
 91  4  5 22 54  0.0030000  0  6 18 19 02 11 16 06
  24686078.986    23174805.421 2  18058248.445 1
  22508251.956     7455663.477 3   5809608.248 2
  22306771.044   -12454766.337 4  -9704966.984 2
  24543944.973     -473846.951 3   -369202.596 1
  25263541.906     2069868.001 2   1612883.314 1
  23867400.049    -5878010.007 2  -4580231.255 1
 91  4  5 22 54 15.0030000  0  6 18 19 02 11 16 06
  24698725.124    23241262.665 2  18110033.153 1
  22514103.607     7486437.117 3   5833587.694 2
  22306152.573   -12458052.487 4  -9707527.586 2
  24551968.618     -431682.044 3   -336346.852 1
  25269460.112     2100951.474 2   1637104.168 1
  23864075.940    -5895487.400 2  -4593849.959 1
 91  4  5 22 54 30.0030000  0  6 18 19 02 11 16 06
  24711373.670    23307773.176 2  18161859.360 1
  22519978.345     7517290.661 3   5857629.396 2
  22305539.495   -12461250.186 4  -9710019.245 2
  24560020.149     -389372.393 3   -303378.362 1
  25275393.605     2132149.757 2   1661414.448 1
  23860755.442    -5912942.879 2  -4607451.523 1
 91  4  5 22 54 45.0030000  0  6 18 19 02 11 16 06
  24724063.294    23374353.156 2  18213740.098 1
  22525867.462     7548240.712 3   5881746.299 2
  22304950.410   -12464342.820 4  -9712429.068 2
  24568100.158     -346901.794 3   -270284.435 1
  25281363.080     2163478.910 2   1685826.654 1
  23857444.229    -5930360.090 2  -4621023.291 1
 91  4  5 22 55  0.0030000  0  6 18 19 02 11 16 06
  24736739.411    23440991.822 2  18265666.116 1
  22531777.572     7579276.616 3   5905930.097 2
  22304383.191   -12467341.363 4  -9714765.565 2
  24576216.446     -304281.335 3   -237073.725 1
  25287338.541     2194927.955 2   1710332.315 1
  23854129.438    -5947749.622 2  -4634573.517 1
 91  4  5 22 55 15.0030000  0  6 18 19 02 11 16 06
  24749424.533    23507680.830 2  18317631.433 1
  22537693.387     7610390.698 3   5930174.825 2
  22303827.977   -12470253.602 4  -9717034.818 2
  24584350.708     -261518.954 3   -203752.428 1
  25293344.888     2226488.479 2   1734924.852
  23850821.819    -5965119.151 2  -4648108.107 1
 91  4  5 22 55 30.0030000  0  6 18 19 02 11 16 06
  24762122.847    23574418.692 2  18369634.764 1
  22543631.976     7641581.614 3   5954479.413 2
  22303290.162   -12473080.664 4  -9719237.690 2
  24592513.152     -218615.967 3   -170321.559 1
  25299372.804     2258159.435 2   1759603.371
  23847520.203    -5982469.809 2  -4661628.037 1
 91  4  5 22 55 45.0030000  0  6 18 19 02 11 16 06
  24774834.947    23641198.203 2  18421670.526 1
  22549576.846     7672842.435 3   5978838.472 2
  22302766.114   -12475829.807 4  -9721379.842 2
  24600704.686     -175579.762 3   -136786.914 1
  25305415.727     2289933.586 2   1784362.372 1
  23844221.885    -5999808.714 2  -4675138.778 1
 91  4  5 22 56  0.0030000  0  6 18 19 02 11 16 06
  24787553.625    23708018.186 2  18473737.813 1
  22555540.318     7704172.355 3   6003251.375 2
  22302259.168   -12478501.922 4  -9723461.968 2
  24608910.912     -132411.551 2   -103149.369 1
  25311479.626     2321809.731 2   1809200.796 1
  23840926.568    -6017136.621 2  -4688640.976 1
 91  4  5 22 56 15.0030000  0  6 18 19 02 11 16 06
  24800273.822    23774874.765 2  18525833.650 1
  22561514.592     7735567.885 3   6027715.396 2
  22301761.505   -12481100.782 4  -9725487.021 2
  24617157.292      -89115.211 2    -69412.025 1
  25317568.111     2353783.822 2   1834115.587 1
  23837635.143    -6034456.968 2  -4702137.265 1
 91  4  5 22 56 30.0030000  0  6 18 19 02 11 16 06
  24813003.616    23841766.406 2  18577956.838 1
  22567505.636     7767028.137 3   6052229.851 2
  22301283.038   -12483627.481 4  -9727455.847 2
  24625422.274      -45692.099 3    -35575.855 1
  25323675.792     2385854.665 2   1859105.773 1
  23834333.841    -6051770.851 2  -4715628.533 1
 91  4  5 22 56 45.0030000  0  6 18 19 02 11 16 06
  24825745.399    23908722.886 2  18630130.511 1
  22573502.089     7798582.774 3   6076817.862 2
  22300822.858   -12486052.279 4  -9729345.268 2
  24633711.232       -2112.648 2     -1617.873 1
  25329794.554     2418051.740 2   1884194.337 1
  23831039.414    -6069048.313 2  -4729091.394 1
 91  4  5 22 57  0.0030000  0  6 18 19 02 11 16 06
  24838495.575    23975721.878 2  18682337.761 1
  22579524.316     7830209.869 3   6101462.332 2
  22300374.073   -12488397.025 4  -9731172.308 2
  24642026.575       41600.993 3     32444.664 1
  25335942.685     2450352.673 2   1909363.782 1
  23827763.590    -6086311.408 2  -4742543.099 1
 91  4  5 22 57 15.0030000  0  6 18 19 02 11 16 06
  24851244.843    24042749.726 2  18734567.074
  22585553.140     7861896.442 3   6126153.145 2
  22299938.481   -12490675.007 4  -9732947.324 2
  24650372.211       85435.324 3     66601.241 1
  25342115.420     2482743.958 2   1934603.623 1
  23824478.464    -6103573.193 2  -4755993.734 1
 91  4  5 22 57 30.0030000  0  6 18 19 02 11 16 06
  24864006.100    24109808.123 2  18786820.215 1
  22591597.860     7893644.372 3   6150891.770 2
  22299520.566   -12492884.496 4  -9734668.967 2
  24658737.008      129391.861 3    100853.038 1
  25348285.154     2515227.007 2   1959915.016 1
  23821191.227    -6120831.778 2  -4769441.926 1
 91  4  5 22 57 45.0030000  0  6 18 19 02 11 16 06
  24876780.270    24176896.053 2  18839096.290 1
  22597645.582     7925452.942 3   6175677.647 2
  22299113.749   -12495026.268 4  -9736337.846 2
  24667126.409      173469.678 2    135199.340 1
  25354495.651     2547801.161 2   1985297.405 1
  23817907.305    -6138087.773 3  -4782888.051 1
 91  4  5 22 58  0.0030000  0  6 18 19 02 11 16 06
  24889542.121    24244012.572 2  18891394.705
  22603715.780     7957321.884 3   6200510.570 2
  22298721.014   -12497100.806 4  -9737954.338 2
  24675535.285      217668.077 3    169639.576 1
  25360702.851     2580465.605 2   2010750.016 1
  23814623.087    -6155341.497 2  -4796332.442 1
 91  4  5 22 58 15.0030000  0  6 18 19 02 11 16 06
  24902331.874    24311159.868 2  18943717.505 1
  22609787.775     7989253.581 3   6225392.375 2
  22298336.987   -12499105.711 4  -9739516.563 2
  24683970.249      261989.056 2    204175.354 1
  25366949.331     2613222.109 2   2036274.549 1
  23811345.151    -6172590.597 2  -4809773.227 1
 91  4  5 22 58 30.0030000  0  6 18 19 02 11 16 06
  24915103.025    24378335.474 2  18996061.945 1
  22615879.559     8021245.741 3   6250321.313 2
  22297968.229   -12501043.527 4  -9741026.513 2
  24692425.281      306430.034 2    238804.639 1
  25373185.602     2646068.110 2   2061868.718 1
  23808057.931    -6189837.318 2  -4823212.187 1
 91  4  5 22 58 45.0040000  0  6 18 19 02 11 16 06
  24927900.268    24445544.954 2  19048432.794 1
  22621974.941     8053301.882 3   6275300.090 2
  22297614.185   -12502912.988 4  -9742483.201 2
  24700905.218      350994.988 2    273530.519 1
  25379455.469     2679006.941 2   2087535.254
  23804778.497    -6207081.520 3  -4836649.135 1
 91  4  5 22 59  0.0040000  0  6 18 19 02 11 16 06
  24940687.613    24512780.612 2  19100824.463 1
  22628087.996     8085419.609 3   6300326.851 2
  22297269.124   -12504712.338 4  -9743885.252 2
  24709412.129      395679.470 3    308349.543 1
  25385738.524     2712035.692 2   2113271.818 1
  23801495.763    -6224318.914 2  -4850080.808 1
 91  4  5 22 59 15.0040000  0  6 18 19 02 11 16 06
  24953485.760    24580042.635 2  19153236.206 1
  22634208.870     8117597.029 3   6325400.144 2
  22296939.647   -12506445.614 4  -9745235.816 2
  24717934.624      440482.228 2    343260.740 1
  25392044.946     2745152.460 2   2139076.955 1
  23798218.140    -6241554.618 3  -4863511.130 1
 91  4  5 22 59 30.0040000  0  6 18 19 02 11 16 06
  24966292.300    24647333.198 2  19205670.285 1
  22640353.406     8149836.623 3   6350521.881 2
  22296622.768   -12508110.505 4  -9746533.104 2
  24726486.207      485405.348 2    378265.712 1
  25398370.266     2778359.271 2   2164952.337 1
  23794937.814    -6258786.119 2  -4876938.210 1
 91  4  5 22 59 45.0040000  0  6 18 19 02 11 16 06
  24979100.934    24714651.951 2  19258126.220 1
  22646491.659     8182138.605 3   6375692.237 2
  22296319.082   -12509706.860 4  -9747776.980 2
  24735055.172      530448.640 2    413364.342 1
  25404694.696     2811655.840 2   2190897.593 1
  23791663.176    -6276013.409 3  -4890361.994 1
 91  4  5 23  0  0.0040000  0  6 18 19 02 11 16 06
  24991919.759    24781995.956 2  19310602.297 1
  22652657.484     8214500.144 3   6400908.996 2
  22296026.180   -12511237.744 4  -9748969.838 2
  24743648.427      575609.049 2    448554.182 1
  25411044.307     2845039.007 2   2216910.367 1
  23788385.850    -6293239.192 2  -4903784.597 1
 91  4  5 23  0 15.0040000  0  6 18 19 02 11 16 06
  25004735.287    24849366.148 2  19363098.788 1
  22658822.716     8246922.693 3   6426173.290 2
  22295747.675   -12512702.054 4  -9750110.823 2
  24752267.456      620887.595 2    483836.132 1
  25417415.783     2878509.864 2   2242991.422 1
  23785101.615    -6310462.030 2  -4917204.925 1
 91  4  5 23  0 30.0040000  0  6 18 19 02 11 16 06
  25017558.597    24916765.382 2  19415617.541 1
  22665006.846     8279409.501 3   6451487.668 2
  22295483.862   -12514096.621 4  -9751197.456 2
  24760904.790      666287.194 2    519212.405 1
  25423804.674     2912071.235 2   2269143.049 1
  23781833.276    -6327678.618 2  -4930620.368 1
 91  4  5 23  0 45.0040000  0  6 18 19 02 11 16 06
  25030398.711    24984191.628 2  19468157.350 1
  22671196.962     8311958.976 3   6476850.870 2
  22295232.928   -12515423.050 4  -9752230.996 2
  24769568.492      711805.890 2    554681.433 1
  25430207.333     2945721.067 2   2295363.532 1
  23778555.357    -6344890.549 3  -4944032.200 1
 91  4  5 23  1  0.0040000  0  6 18 19 02 11 16 06
  25043236.732    25051642.857 2  19520716.537 1
  22677407.756     8344569.124 3   6502261.349 2
  22294990.702   -12516683.120 4  -9753212.838 2
  24778250.481      757441.404 2    590241.545 1
  25436641.473     2979457.127 2   2321651.251 1
  23775282.813    -6362099.862 3  -4957441.992 1
 91  4  5 23  1 15.0040000  0  6 18 19 02 11 16 06
  25056072.937    25119122.799 2  19573298.458 1
  22683620.051     8377244.047 3   6527722.305 2
  22294766.746   -12517873.033 4  -9754139.998 2
  24786957.040      803197.564 2    625895.674 1
  25443076.520     3013283.051 2   2348009.038 1
  23772003.690    -6379302.240 3  -4970846.360 1
 91  4  5 23  1 30.0040000  0  6 18 19 02 11 16 06
  25068927.151    25186631.023 2  19625902.121 1
  22689853.950     8409983.728 3   6553233.707 2
  22294551.811   -12518993.018 4  -9755012.664 2
  24795689.408      849073.910 2    661643.373 1
  25449525.352     3047198.305 2   2374436.371 1
  23768734.445    -6396497.892 3  -4984245.511 1
 91  4  5 23  1 45.0040000  0  6 18 19 02 11 16 06
  25081776.846    25254162.785 2  19678524.522 1
  22696094.113     8442783.902 3   6578792.260 2
  22294350.942   -12520047.326 4  -9755834.169 2
  24804438.250      895066.034 2    697481.358 1
  25455999.086     3081198.557 2   2400929.977 1
  23765463.715    -6413690.847 3  -4997642.586 1
 91  4  5 23  2  0.0040000  0  6 18 19 02 11 16 06
  25094627.448    25321719.550 2  19731165.931 1
  22702347.485     8475646.104 3   6604399.133 2
  22294161.782   -12521034.562 4  -9756603.411 2
  24813213.161      941174.870 2    733410.282 1
  25462480.586     3115284.994 2   2427490.723 1
  23762192.969    -6430879.671 3  -5011036.374 1
 91  4  5 23  2 15.0040000  0  6 18 19 02 11 16 06
  25107492.743    25389302.538 2  19783827.759 1
  22708613.160     8508572.090 3   6630055.728 2
  22293989.094   -12521953.018 4  -9757319.045 2
  24822010.881      987401.915 2    769431.285 1
  25468994.176     3149458.901 2   2454119.611 1
  23758922.536    -6448062.571 3  -5024425.600 1
 91  4  5 23  2 30.0040000  0  6 18 19 02 11 16 06
  25120357.131    25456912.775 2  19836510.848 1
  22714896.199     8541563.375 3   6655763.197 2
  22293826.301   -12522801.489 4  -9757980.158 2
  24830830.779     1033748.267 2    805545.273 1
  25475492.777     3183721.287 1   2480817.327 1
  23755650.603    -6465238.084 2  -5037809.079 1
 91  4  5 23  2 45.0040000  0  6 18 19 02 11 16 06
  25133225.428    25524548.128 2  19889213.573 1
  22721175.363     8574618.259 3   6681520.221 2
  22293679.998   -12523581.806 4  -9758588.160 2
  24839672.560     1080211.677 2    841750.477 1
  25482036.347     3218070.237 2   2507582.700 1
  23752387.063    -6482407.964 3  -5051188.110 1
 91  4  5 23  3  0.0040000  0  6 18 19 02 11 16 06
  25146099.413    25592209.961 2  19941937.328 1
  22727481.784     8607738.283 3   6707328.003 2
  22293542.700   -12524292.695 4  -9759142.056 2
  24848533.519     1126793.628 2    878048.014 1
  25488603.003     3252506.947 2   2534416.386 1
  23749119.021    -6499570.592 3  -5064561.532 1
 91  4  5 23  3 15.0040000  0  6 18 19 02 11 16 06
  25158983.904    25659896.605 2  19994680.401 1
  22733798.414     8640921.985 3   6733185.403 2
  22293419.484   -12524935.581 4  -9759642.969 2
  24857425.068     1173492.139 3    914436.401 1
  25495166.955     3287029.435 2   2561316.951 1
  23745859.984    -6516727.436 3  -5077930.464 1
 91  4  5 23  3 30.0040000  0  6 18 19 02 11 16 06
  25171872.879    25727607.021 2  20047441.565 1
  22740123.141     8674168.974 3   6759092.119 2
  22293310.368   -12525511.018 4  -9760091.319 2
  24866328.902     1220306.414 3    950915.002 1
  25501739.911     3321637.078 2   2588283.890 1
  23742593.442    -6533878.765 3  -5091295.060 1
 91  4  5 23  3 45.0040000  0  6 18 19 02 11 16 06
  25184749.255    25795343.405 2  20100222.919 1
  22746462.857     8707481.842 3   6785050.170 2
  22293215.334   -12526016.486 4  -9760485.139 2
  24875263.309     1267238.909 2    987485.725 1
  25508344.033     3356332.251 2   2615319.323 1
  23739326.308    -6551021.980 3  -5104653.337 1
 91  4  5 23  4  0.0040000  0  6 18 19 02 11 16 06
  25197660.723    25863105.478 2  20153024.342 1
  22752826.847     8740860.492 3   6811059.482 2
  22293131.992   -12526452.262 4  -9760824.667 2
  24884218.412     1314289.152 2   1024148.168 1
  25514972.760     3391114.171 2   2642421.917 1
  23736063.065    -6568157.206 2  -5118005.380 1
 91  4  5 23  4 15.0040000  0  6 18 19 02 11 16 06
  25210547.604    25930888.822 2  20205842.327 1
  22759178.255     8774301.005 3   6837116.981 2
  22293060.638   -12526822.211 4  -9761112.903 2
  24893191.209     1361452.816 2   1060899.034 1
  25521601.156     3425978.698 2   2669589.110 1
  23732804.027    -6585288.211 2  -5131354.170 1
 91  4  5 23  4 30.0040000  0  6 18 19 02 11 16 06
  25223454.867    25998698.707 2  20258681.009 1
  22765556.938     8807808.749 3   6863226.886 2
  22293003.680   -12527121.438 4  -9761346.015 2
  24902187.983     1408734.797 2   1097742.068 1
  25528255.953     3460930.821 2   2696824.505
  23729550.382    -6602409.739 3  -5144695.539 1
 91  4  5 23  4 45.0040000  0  6 18 19 02 11 16 06
  25236359.129    26066527.777 2  20311534.996 1
  22771941.309     8841376.896 3   6889383.851 2
  22292959.008   -12527356.651 4  -9761529.264 2
  24911207.529     1456128.067 3   1134671.815 1
  25534920.645     3495963.221 2   2724122.288 1
  23726292.531    -6619528.466 3  -5158034.758 1
 91  4  5 23  5  0.0040000  0  6 18 19 02 11 16 06
  25249280.492    26134382.936 2  20364409.038 1
  22778345.784     8875012.690 3   6915593.538 2
  22292928.732   -12527520.791 4  -9761657.117 2
  24920249.569     1503639.349 2   1171693.549 1
  25541607.813     3531082.842 2   2751488.085 1
  23723036.181    -6636637.293 3  -5171366.233 1
 91  4  5 23  5 15.0040000  0  6 18 19 02 11 16 06
  25262194.351    26202258.827 2  20417299.572 1
  22784752.649     8908711.117 3   6941852.013 2
  22292911.037   -12527618.894 4  -9761733.517 2
  24929313.194     1551263.383 2   1208803.143 1
  25548304.875     3566284.122 2   2778917.475 1
  23719780.441    -6653741.112 3  -5184693.836 1
 91  4  5 23  5 30.0040000  0  6 18 19 02 11 16 06
  25275116.900    26270159.127 2  20470208.780 1
  22791184.991     8942475.946 3   6968162.226 2
  22292903.848   -12527647.076 4  -9761755.442 2
  24938393.904     1599003.723 2   1246003.330 1
  25555026.821     3601570.955 2   2806413.632 1
  23716530.094    -6670835.927 3  -5198014.383 1
 91  4  5 23  5 45.0040000  0  6 18 19 02 11 16 06
  25288042.747    26338083.225 2  20523136.712 1
  22797618.834     8976307.101 3   6994524.166 2
  22292911.334   -12527605.648 4  -9761723.098 2
  24947502.795     1646859.907 2   1283293.804 1
  25561755.957     3636942.756 2   2833975.923 1
  23713275.244    -6687921.871 3  -5211328.072 1
 91  4  5 23  6  0.0040000  0  6 18 19 02 11 16 06
  25300979.397    26406029.029 2  20576081.408 1
  22804070.668     9010202.857 3   7020936.400 2
  22292932.030   -12527496.671 4  -9761638.149 2
  24956631.179     1694829.683 3   1320672.742 1
  25568501.303     3672397.250 2   2861602.777 1
  23710021.302    -6705000.732 2  -5224636.215 1
 91  4  5 23  6 15.0040000  0  6 18 19 02 11 16 06
  25313894.756    26473994.006 2  20629040.931 1
  22810532.693     9044160.863 3   7047397.150 2
  22292965.604   -12527322.452 4  -9761502.344 2
  24965781.148     1742910.441 3   1358138.241 1
  25575256.824     3707931.883 2   2889291.970 1
  23706776.033    -6722074.709 3  -5237940.538 1
 91  4  5 23  6 30.0040000  0  6 18 19 02 11 16 06
  25326839.799    26541978.673 2  20682015.802 1
  22817008.521     9078182.165 3   7073907.228 2
  22293010.573   -12527082.240 4  -9761315.130 2
  24974949.998     1791102.774 2   1395690.667 1
  25582041.416     3743547.153 2   2917043.925 1
  23703528.984    -6739142.944 3  -5251240.384 1
 91  4  5 23  6 45.0040000  0  6 18 19 02 11 16 06
  25339782.137    26609985.561 2  20735008.413 1
  22823489.130     9112269.752 3   7100468.947 2
  22293070.829   -12526773.256 4  -9761074.308 2
  24984141.342     1839409.393 2   1433332.098 1
  25588826.619     3779245.583 2   2944860.850 1
  23700281.044    -6756202.268 3  -5264533.297 1
 91  4  5 23  7  0.0040000  0  6 18 19 02 11 16 06
  25352729.274    26678013.544 2  20788017.017 1
  22829990.122     9146422.606 3   7127081.541 2
  22293140.089   -12526396.331 4  -9760780.560 2
  24993359.350     1887828.928 2   1471061.565 1
  25595643.913     3815025.847 2   2972741.420 1
  23697042.982    -6773253.637 3  -5277820.027 1
 91  4  5 23  7 15.0040000  0  6 18 19 02 11 16 06
  25365674.002    26746063.278 2  20841042.630 1
  22836500.414     9180642.218 3   7153746.139 2
  22293226.118   -12525950.429 4  -9760433.061 2
  25002592.662     1936362.326 2   1508879.704 1
  25602466.285     3850888.989 2   3000686.763 1
  23693798.620    -6790295.685 3  -5291099.446 1
 91  4  5 23  7 30.0040000  0  6 18 19 02 11 16 06
  25378629.236    26814134.788 2  20894085.594
  22843027.197     9214928.354 3   7180462.578 2
  22293325.358   -12525435.888 4  -9760032.077 2
  25011849.356     1985009.159 2   1546786.289 1
  25609311.744     3886834.573 2   3028696.075 1
  23690553.368    -6807328.480 3  -5304371.694 1
 91  4  5 23  7 45.0040000  0  6 18 19 02 11 16 06
  25391589.268    26882223.060 2  20947141.199 1
  22849559.372     9249276.551 3   7207227.375 2
  22293435.085   -12524857.050 4  -9759581.000 2
  25021130.935     2033764.700 2   1584777.556 1
  25616156.609     3922857.714 2   3056766.014 1
  23687312.915    -6824356.424 3  -5317640.137 1
 91  4  5 23  8  0.0040000  0  6 18 19 02 11 16 06
  25404546.596    26950330.194 2  21000211.876 1
  22856113.150     9283689.254 3   7234042.429 2
  22293557.393   -12524211.753 4  -9759078.115 2
  25030423.892     2082630.845 2   1622855.029 1
  25623033.548     3958960.559 2   3084898.114 1
  23684074.556    -6841377.020 3  -5330902.870 1
 91  4  5 23  8 15.0040000  0  6 18 19 02 11 16 06
  25417509.019    27018458.308 2  21053298.574 1
  22862679.196     9318169.177 3   7260909.863 2
  22293693.191   -12523497.325 4  -9758521.377 2
  25039747.438     2131609.948 2   1661020.531 1
  25629894.886     3995145.178 2   3113093.706 1
  23680840.403    -6858387.661 3  -5344157.836 1
 91  4  5 23  8 30.0040000  0  6 18 19 02 11 16 06
  25430475.054    27086607.340 2  21106401.904 1
  22869250.355     9352716.326 3   7287829.707 2
  22293840.994   -12522713.750 4  -9757910.769 2
  25049091.681     2180701.797 2   1699273.850 1
  25636818.592     4031411.389 2   3141353.031 1
  23677602.637    -6875388.100 3  -5357404.837 1
 91  4  5 23  8 45.0040000  0  6 18 19 02 11 16 06
  25443453.671    27154775.190 2  21159519.556 1
  22875834.985     9387329.173 3   7314800.722 2
  22294004.084   -12521862.847 4  -9757247.681 2
  25058453.601     2229904.338 2   1737613.454 1
  25643726.417     4067757.395 2   3169674.394 1
  23674368.780    -6892379.938 3  -5370645.183 1
 91  4  5 23  9  0.0040000  0  6 18 19 02 11 16 06
  25456430.473    27222961.268 2  21212651.336 1
  22882443.016     9422007.112 3   7341822.466 2
  22294179.162   -12520945.190 4  -9756532.591 2
  25067837.403     2279216.819 2   1776038.698 1
  25650658.516     4104182.319 2   3198057.505 1
  23671137.314    -6909363.643 3  -5383879.140 1
 91  4  5 23  9 15.0040000  0  6 18 19 02 11 16 06
  25469409.090    27291166.905 2  21265798.375 1
  22889045.951     9456752.168 3   7368896.510 2
  22294366.839   -12519959.073 4  -9755764.150 2
  25077242.180     2328640.824 2   1814550.840 1
  25657616.110     4140687.711 2   3226503.106 1
  23667907.348    -6926337.161 3  -5397105.201 1
 91  4  5 23  9 30.0040000  0  6 18 19 02 11 16 06
  25482397.601    27359389.717 2  21318959.182 1
  22895673.160     9491562.153 3   7396021.147 2
  22294567.394   -12518906.725 4  -9754944.090 2
  25086667.357     2378173.861 2   1853147.947 1
  25664569.184     4177270.977 2   3255009.364 1
  23664681.588    -6943302.511 3  -5410324.869 1
 91  4  5 23  9 45.0040000  0  6 18 19 02 11 16 06
  25495374.421    27427630.616 2  21372133.729 1
  22902304.260     9526437.890 3   7423197.010 2
  22294779.345   -12517787.467 4  -9754071.912 2
  25096113.230     2427816.270 2   1891830.263 1
  25671543.565     4213932.330 2   3283576.433 1
  23661450.122    -6960259.012 3  -5423537.624 1
 91  4  5 23 10  0.0040000  0  6 18 19 02 11 16 06
  25508365.026    27495886.249 2  21425319.711 1
  22908956.353     9561376.984 3   7450422.244 2
  22295002.987   -12516603.805 4  -9753149.538 2
  25105581.875     2477565.219 2   1930595.648 1
  25678535.920     4250669.014 2   3312202.370 1
  23658224.955    -6977209.032 3  -5436745.373 1
 91  4  5 23 10 15.0040000  0  6 18 19 02 11 16 06
  25521354.741    27564158.454 2  21478518.626 1
  22915613.559     9596381.417 3   7477698.402 2
  22295242.526   -12515353.951 4  -9752175.583 2
  25115068.197     2527422.366 2   1969445.275 1
  25685536.668     4287482.359 2   3340887.909 1
  23655000.975    -6994150.567 3  -5449946.491 1
 91  4  5 23 10 30.0040000  0  6 18 19 02 11 16 06
  25534350.442    27632449.078 2  21531732.319 1
  22922295.928     9631453.659 3   7505027.382 2
  22295496.444   -12514035.459 4  -9751148.164 2
  25124578.513     2577389.862 2   2008380.938 1
  25692567.413     4324374.785 2   3369635.269 1
  23651782.405    -7011081.049 3  -5463138.993 1
 91  4  5 23 10 45.0040000  0  6 18 19 02 11 16 06
  25547351.238    27700757.705 2  21584959.645 1
  22928977.703     9666593.448 3   7532408.983 2
  22295759.663   -12512648.642 4  -9750067.491 2
  25134106.821     2627467.027 2   2047402.068 1
  25699591.545     4361345.913 2   3398444.127 1
  23648565.038    -7028000.696 3  -5476323.037 1
 91  4  5 23 11  0.0040000  0  6 18 19 02 11 16 06
  25560355.926    27769081.506 2  21638198.722 1
  22935674.155     9701797.956 3   7559841.045 2
  22296033.370   -12511196.509 4  -9748935.936 2
  25143660.902     2677650.761 2   2086506.211 1
  25706648.954     4398392.522 2   3427311.572 1
  23645344.967    -7044912.112 3  -5489500.678 1
 91  4  5 23 11 15.0040000  0  6 18 19 02 11 16 06
  25573353.441    27837423.558 2  21691452.492
  22942386.224     9737071.107 3   7587326.580 2
  22296323.270   -12509675.376 4  -9747750.614 2
  25153224.285     2727944.487 2   2125696.047 1
  25713719.869     4435517.988 2   3456240.408 1
  23642128.491    -7061811.489 3  -5502668.936 1
 91  4  5 23 11 30.0040000  0  6 18 19 02 11 16 06
  25586367.133    27905784.036 2  21744720.267 1
  22949112.061     9772413.339 3   7614865.942 2
  22296626.363   -12508084.856 4  -9746511.217 2
  25162811.940     2778348.386 2   2164971.788 1
  25720793.472     4472722.131 2   3485230.565 1
  23638919.221    -7078698.161 3  -5515827.308 1
 91  4  5 23 11 45.0040000  0  6 18 19 02 11 16 06
  25599379.027    27974160.423 2  21798000.387 1
  22955851.388     9807822.283 3   7642457.316 2
  22296939.943   -12506427.485 4  -9745219.732 2
  25172428.686     2828859.576 2   2204331.082 1
  25727885.362     4510002.338 2   3514279.899 1
  23635703.949    -7095574.690 3  -5528977.745 1
 91  4  5 23 12  0.0040000  0  6 18 19 02 11 16 06
  25612392.702    28042553.652 2  21851293.965 1
  22962610.817     9843299.398 3   7670101.776 2
  22297273.016   -12504701.727 4  -9743874.963 2
  25182060.717     2879479.214 2   2243774.894 1
  25734995.227     4547359.701 2   3543389.398 1
  23632494.662    -7112439.480 3  -5542119.049 1
 91  4  5 23 12 15.0040000  0  6 18 19 02 11 16 06
  25625416.288    28110960.751 2  21904598.380
  22969366.634     9878841.540 3   7697796.912 2
  22297609.979   -12502910.747 4  -9742479.369 2
  25191716.446     2930203.940 2   2283300.579 1
  25742122.192     4584790.933 2   3572556.509 1
  23629282.687    -7129295.465 3  -5555253.499 1
 91  4  5 23 12 30.0040000  0  6 18 19 02 11 16 06
  25638428.182    28179384.025 2  21957915.147 1
  22976146.148     9914451.741 3   7725545.088 2
  22297964.341   -12501051.884 4  -9741030.879 2
  25201384.443     2981036.338 2   2322910.215 1
  25749270.151     4622298.399 2   3601782.926 1
  23626079.700    -7146139.722 3  -5568378.832 1
 91  4  5 23 12 45.0040000  0  6 18 19 02 11 16 06
  25651452.972    28247820.528 2  22011242.090 1
  22982931.648     9950127.472 3   7753344.326 2
  22298331.581   -12499127.770 4  -9739531.554 2
  25211080.935     3031973.559 2   2362601.446 1
  25756407.918     4659879.442 2   3631066.722 1
  23622877.026    -7162974.620 3  -5581496.849 1
 91  4  5 23 13  0.0040000  0  6 18 19 02 11 16 06
  25664466.961    28316271.009 2  22064579.883 1
  22989734.545     9985869.938 3   7781195.567 2
  22298711.420   -12497137.371 4  -9737980.571 2
  25220796.903     3083016.273 2   2402375.038 1
  25763584.337     4697534.857 2   3660408.464 1
  23619671.037    -7179798.881 3  -5594606.574 1
 91  4  5 23 13 15.0040000  0  6 18 19 02 11 16 06
  25677511.836    28384733.603 2  22117927.135 1
  22996549.117    10021677.301 3   7809097.372 2
  22299099.949   -12495082.596 4  -9736379.416 2
  25230526.969     3134162.252 2   2442228.973 1
  25770754.475     4735262.361 2   3689806.447 1
  23616474.960    -7196614.355 3  -5607709.457 1
 91  4  5 23 13 30.0040000  0  6 18 19 02 11 16 06
  25690537.813    28453214.596 2  22171288.753 1
  23003377.789    10057556.216 3   7837054.938 2
  22299506.469   -12492957.141 4  -9734723.209 2
  25240285.812     3185417.751 2   2482168.228 1
  25777947.995     4773067.795 2   3719265.153 1
  23613277.068    -7213414.521 3  -5620800.429 1
 91  4  5 23 13 45.0040000  0  6 18 19 02 11 16 06
  25703574.888    28521707.806 2  22224659.956 1
  23010213.964    10093501.389 3   7865064.123 2
  22299922.290   -12490766.122 4  -9733015.895 2
  25250056.049     3236777.206 2   2522188.507 1
  25785167.901     4810945.749 2   3748780.217 1
  23610079.490    -7230204.412 3  -5633883.376 1
 91  4  5 23 14  0.0040000  0  6 18 19 02 11 16 06
  25716607.165    28590211.029 2  22278039.198 1
  23017073.208    10129510.252 3   7893122.932 2
  22300348.896   -12488512.032 4  -9731259.431 2
  25259846.668     3288237.785 2   2562287.598 1
  25792369.222     4848893.540 2   3778349.743 1
  23606889.695    -7246986.356 3  -5646960.130 1
 91  4  5 23 14 15.0040000  0  6 18 19 02 11 16 06
  25729648.742    28658726.599 2  22331427.806 1
  23023928.561    10165585.800 3   7921233.717 2
  22300791.678   -12486192.307 4  -9729451.831 2
  25269663.375     3339802.031 2   2602467.489 1
  25799613.104     4886913.691 2   3807975.746
  23603696.602    -7263757.528 3  -5660028.478 2
 91  4  5 23 14 30.0040000  0  7 15 18 19 02 11 16 06
  26101273.866           0.075 2         0.493 1
  25742681.611    28727255.810 2  22384827.405 1
  23030810.910    10201729.457 3   7949397.569 2
  22301246.762   -12483805.511 4  -9727591.964 2
  25279497.166     3391470.976 2   2642728.969 1
  25806870.178     4925007.155 2   3837658.811 1
  23600508.901    -7280516.291 3  -5673087.176 1
 91  4  5 23 14 45.0040000  0  7 15 18 19 02 11 16 06
  26097637.084      -19122.586 2    -14900.049 1
  25755732.176    28795800.936 2  22438239.156 1
  23037701.023    10237943.850 3   7977616.550 2
  22301715.335   -12481349.105 4  -9725677.861 2
  25289348.652     3443247.003 2   2683073.883 1
  25814129.050     4963176.227 2   3867400.863 1
  23597325.720    -7297259.878 3  -5686134.030 1
 91  4  5 23 15  0.0040000  0  7 15 18 19 02 11 16 06
  26094003.303      -38202.680 2    -29767.446 1
  25768780.052    28864356.873 2  22491659.473 1
  23044610.943    10274224.377 3   8005887.061 2
  22302192.913   -12478828.030 4  -9723713.371 2
  25299218.111     3495125.034 2   2723498.227 1
  25821406.820     5001415.813 2   3897197.780 1
  23594135.924    -7313992.964 3  -5699172.745 2
 91  4  5 23 15 15.0040000  0  7 15 18 19 02 11 16 06
  26090392.591      -57238.063 2    -44600.049 1
  25781823.706    28932925.046 2  22545089.040 1
  23051522.067    10310572.748 3   8034210.449 2
  22302685.166   -12476240.529 4  -9721697.106 2
  25309108.877     3547106.381 2   2764003.145 1
  25828695.358     5039727.527 2   3927050.961 1
  23590954.523    -7330713.740 3  -5712201.828 1
 91  4  5 23 15 30.0040000  0  7 15 18 19 02 11 16 06
  26086770.205      -76225.502 2    -59395.475 1
  25794882.681    29001507.900 2  22598529.980 1
  23058455.056    10346991.848 3   8062588.930 2
  22303190.926   -12473583.807 4  -9719626.898 2
  25319017.617     3599193.580 2   2804590.508 1
  25836008.203     5078113.544 2   3956962.061 1
  23587776.419    -7347419.322 3  -5725219.100 1
 91  4  5 23 15 45.0040000  0  7 15 18 19 02 11 16 06
  26083166.404      -95169.138 2    -74156.588 1
  25807931.448    29070100.533 2  22651979.010 1
  23065396.456    10383477.147 3   8091018.997 2
  22303707.469   -12470862.581 4  -9717506.443 2
  25328956.022     3651381.660 2   2845256.510 1
  25843323.736     5116569.124 2   3986927.305 1
  23584599.520    -7364114.147 3  -5738227.959 1
 91  4  5 23 16  0.0040000  0  7 15 18 19 02 11 16 06
  26079576.981     -114068.323 2    -88883.017 1
  25820982.902    29138703.120 2  22705435.369 1
  23072351.048    10420029.134 3   8119501.033 1
  22304237.206   -12468076.400 4  -9715335.368 2
  25338903.745     3703670.666 2   2886001.106 1
  25850647.365     5155094.112 2   4016946.680 1
  23581425.325    -7380797.715 3  -5751228.075 2
 91  4  5 23 16 15.0040000  0  7 15 18 19 02 11 16 06
  26075988.466     -132918.488 2   -103571.281 1
  25834051.458    29207319.646 2  22758902.557 1
  23079314.924    10456651.891 3   8148038.213 2
  22304780.728   -12465221.205 4  -9713110.507 2
  25348874.538     3756064.738 2   2926827.607 1
  25857986.281     5193692.714 1   4047023.365 1
  23578251.113    -7397465.512 3  -5764215.885 1
 91  4  5 23 16 30.0040000  0  7 15 18 19 02 11 16 06
  26072405.343     -151720.967 2   -118222.583 1
  25847105.320    29275947.886 2  22812379.312 1
  23086309.373    10493343.613 3   8176629.123 2
  22305338.035   -12462298.966 4  -9710833.419 2
  25358866.323     3808561.446 2   2967734.054 1
  25865345.300     5232362.427 1   4077155.665
  23575084.405    -7414119.399 3  -5777192.867 1
 91  4  5 23 16 45.0040000  0  7 15 18 19 02 11 16 06
  26068842.008     -170474.795 2   -132836.180 1
  25860166.372    29344588.595 2  22865865.383 1
  23093294.538    10530105.300 3   8205274.576 2
  22305906.738   -12459309.034 4  -9708503.570 2
  25368867.096     3861161.217 2   3008720.826 1
  25872721.384     5271103.563 2   4107343.790 1
  23571917.696    -7430758.488 3  -5790158.324 1
 91  4  5 23 17  0.0040000  0  7 15 18 19 02 11 16 06
  26065281.379     -189176.442 2   -147408.739 1
  25873229.535    29413244.503 2  22919363.308 1
  23100308.792    10566940.085 3   8233976.956 2
  22306489.540   -12456248.151 4  -9706118.429 2
  25378901.756     3913866.994 2   3049790.177 1
  25880107.067     5309919.608 2   4137590.252 1
  23568751.285    -7447379.464 3  -5803109.649 1
 91  4  5 23 17 15.0040000  0  7 15 18 19 02 11 16 06
  26061727.939     -207837.649 2   -161949.713 1
  25886300.481    29481902.930 2  22972863.216 1
  23107327.828    10603835.729 3   8262726.776 2
  22307082.830   -12453128.922 4  -9703687.836 2
  25388946.904     3966666.154 2   3090932.323 1
  25887501.457     5348797.338 2   4167884.596 1
  23565595.675    -7463994.507 3  -5816056.360 2
 91  4  5 23 17 30.0040000  0  7 15 18 19 02 11 16 06
  26058187.097     -226448.877 2   -176451.964 1
  25899364.848    29550572.501 2  23026372.101 1
  23114362.465    10640801.090 3   8291530.934 1
  22307691.406   -12449942.290 4  -9701204.715 2
  25399019.623     4019567.175 2   3132153.831 1
  25894921.918     5387745.610 2   4198233.751 1
  23562430.763    -7480594.687 3  -5828991.495 1
 91  4  5 23 17 45.0040000  0  7 15 18 19 02 11 16 06
  26054655.540     -245011.538 2   -190916.132 1
  25912427.697    29619251.565 2  23079888.038 1
  23121406.978    10677834.896 3   8320388.419 2
  22308308.080   -12446689.770 4  -9698670.256 2
  25409104.052     4072568.380 2   3173453.412 1
  25902339.691     5426762.298 2   4228636.279 1
  23559275.747    -7497181.193 3  -5841915.972 1
 91  4  5 23 18  0.0040000  0  7 15 18 19 02 11 16 06
  26051136.581     -263527.491 2   -205344.009 1
  25925504.053    29687937.426 2  23133409.278 1
  23128473.391    10714934.807 3   8349297.383 2
  22308938.242   -12443373.894 4  -9696086.417 2
  25419205.547     4125667.076 2   3214828.949 1
  25909785.629     5465844.874 2   4259090.103 1
  23556124.342    -7513756.213 3  -5854831.512 1
 91  4  5 23 18 15.0040000  0  7 15 18 19 02 11 16 06
  26047613.417     -281994.536 2   -219733.765 1
  25938577.703    29756631.752 2  23186937.122 1
  23135543.400    10752102.476 3   8378259.181 2
  22309582.801   -12439992.986 4  -9693451.906 2
  25429334.037     4178864.628 2   3256281.545 1
  25917235.773     5504994.683 2   4289596.332
  23552972.309    -7530318.003 3  -5867736.722 1
 91  4  5 23 18 30.0040000  0  7 15 18 19 02 11 16 06
  26044113.636     -300410.845 2   -234084.272 1
  25951648.056    29825335.955 2  23240473.097 1
  23142628.991    10789339.908 3   8407275.340 1
  22310240.534   -12436545.377 4  -9690765.429 2
  25439469.420     4232162.628 2   3297812.377 1
  25924696.404     5544213.398 2   4320156.177 1
  23549823.592    -7546864.595 3  -5880630.100 1
 91  4  5 23 18 45.0040000  0  7 15 18 19 02 11 16 06
  26040621.952     -318778.887 2   -248397.065 1
  25964724.394    29894046.613 2  23294013.678 1
  23149727.181    10826644.009 3   8436343.443 2
  22310906.382   -12433034.174 4  -9688029.396 2
  25449635.987     4285557.553 2   3339418.705 1
  25932167.837     5583497.613 2   4350767.094 1
  23546675.468    -7563398.938 3  -5893513.926 1
 91  4  5 23 19  0.0040000  0  7 15 18 19 02 11 16 06
  26037135.957     -337096.959 2   -262670.807 1
  25977800.436    29962764.575 2  23347559.964 1
  23156841.547    10864016.172 3   8465464.573 2
  22311587.517   -12429458.252 4  -9685242.926 2
  25459809.150     4339050.193 2   3381101.268 1
  25939651.852     5622847.947 2   4381429.556 1
  23543532.160    -7579919.681 3  -5906387.143 2
 91  4  5 23 19 15.0040000  0  7 15 18 19 02 11 16 06
  26033661.078     -355363.684 2   -276904.377 1
  25990883.981    30031490.523 2  23401112.770 1
  23163960.730    10901457.185 3   8494639.354 2
  22312279.139   -12425816.600 4  -9682405.250 2
  25470010.477     4392641.268 2   3422860.491 1
  25947158.953     5662265.438 2   4412144.320 1
  23540386.724    -7596425.765 3  -5919248.981 1
 91  4  5 23 19 30.0040000  0  7 15 18 19 02 11 16 06
  26030189.183     -373577.143 2   -291096.555 1
  26003958.836    30100225.766 2  23454672.564 1
  23171105.669    10938968.901 3   8523869.229 1
  22312986.640   -12422107.586 4  -9679515.072 2
  25480230.703     4446332.125 2   3464697.460 1
  25954664.553     5701750.916 2   4442912.161 1
  23537251.792    -7612915.344 3  -5932097.942 1
 91  4  5 23 19 45.0040000  0  7 15 18 19 02 11 16 06
  26026737.966     -391737.711 2   -305247.558 1
  26017038.786    30168969.109 2  23508238.611 1
  23178255.722    10976550.314 3   8553153.419 1
  22313703.146   -12418332.410 4  -9676573.336 2
  25490463.511     4500121.523 2   3506611.219 1
  25962204.635     5741303.237 2   4473731.997 1
  23534119.565    -7629389.345 3  -5944934.755 1
 91  4  5 23 20  0.0040000  0  7 15 18 19 02 11 16 06
  26023289.157     -409846.211 2   -319357.939 1
  26030129.520    30237719.357 2  23561810.109 1
  23185425.266    11014200.250 3   8582490.989 2
  22314436.439   -12414492.168 4  -9673580.912 2
  25500714.327     4554007.951 2   3548600.598 1
  25969726.133     5780920.951 2   4504602.815 1
  23530985.244    -7645848.588 3  -5957760.052 1
 91  4  5 23 20 15.0040000  0  7 15 18 19 02 11 16 06
  26019843.036     -427900.883 1   -333426.684 1
  26043209.157    30306477.659 2  23615388.204 1
  23192595.997    11051920.573 3   8611883.412 2
  22315177.829   -12410585.270 4  -9670536.541 2
  25510990.307     4607992.820 2   3590666.637 1
  25977290.488     5820605.523 2   4535525.931 1
  23527858.095    -7662291.308 3  -5970572.481 1
 91  4  5 23 20 30.0040000  0  7 15 18 19 02 11 16 06
  26016426.597     -445905.463 2   -347456.090 1
  26056297.797    30375239.703 2  23668968.790 1
  23199789.517    11089707.040 3   8641327.368 2
  22315934.209   -12406615.982 4  -9667443.557 2
  25521280.089     4662071.458 2   3632805.830 1
  25984856.955     5860352.337 2   4566497.597 1
  23524729.167    -7678721.668 3  -5983375.289 2
 91  4  5 23 20 45.0040000  0  7 15 18 19 02 11 16 06
  26013011.066     -463854.956 2   -361442.750 1
  26069378.044    30444009.745 2  23722555.628
  23206988.133    11127564.161 3   8670826.394 1
  22316704.060   -12402579.991 4  -9664298.602 2
  25531591.144     4716247.971 2   3675021.282 1
  25992439.615     5900165.398 2   4597520.556 1
  23521605.037    -7695135.021 3  -5996164.836 1
 91  4  5 23 21  0.0040000  0  6 18 19 02 11 16 06
  26082461.886    30512783.844 2  23776145.917 1
  23214210.744    11165488.698 3   8700377.930 2
  22317482.933   -12398480.674 4  -9661104.287 2
  25541913.907     4770518.835 2   3717310.171 1
  26000019.554     5940041.191 2   4628592.624 1
  23518486.892    -7711534.511 3  -6008943.593 1
 91  4  5 23 21 15.0040000  0  7 15 18 19 02 11 16 06
  26006194.383        4008.62511      3126.277 1
  26095557.123    30581558.470 2  23829736.429 1
  23221435.430    11203477.356 3   8729979.463 1
  22318273.480   -12394321.387 4  -9657863.252 2
  25552261.537     4824880.303 2   3759669.707 1
  26007622.299     5979975.947 2   4659710.371 1
  23515366.357    -7727923.432 3  -6021714.124 1
 91  4  5 23 21 30.0040000  0  7 15 18 19 02 11 16 06
  26002824.118      -13786.788 2    -10740.330 1
  26108641.872    30650336.549 2  23883329.594 1
  23228684.722    11241533.353 2   8759633.446 1
  22319077.831   -12390099.092 4  -9654573.124 2
  25562622.360     4879335.307 2   3802102.102 1
  26015231.624     6019972.571 2   4690876.325 1
  23512248.509    -7744298.322 3  -6034473.721 1
 91  4  5 23 21 45.0040000  0  7 15 18 19 02 11 16 06
  25999447.256      -31529.603 2    -24565.748 1
  26121730.809    30719117.507 2  23936925.315 1
  23235933.996    11279656.310 3   8789339.609 2
  22319891.761   -12385814.359 4  -9651234.342 2
  25573002.081     4933883.003 2   3844606.702 1
  26022853.547     6060030.151 2   4722089.940 1
  23509138.165    -7760659.692 3  -6047222.763 1
 91  4  5 23 22  0.0040000  0  7 15 18 19 02 11 16 06
  25996078.195      -49217.498 2    -38348.338 1
  26134822.137    30787902.547 2  23990523.821 1
  23243203.670    11317847.891 3   8819099.255 2
  22320717.697   -12381465.483 4  -9647845.577 2
  25583399.479     4988524.695 2   3887184.614 1
  26030488.960     6100150.087 2   4753352.183 1
  23506026.913    -7777005.525 3  -6059959.720 1
 91  4  5 23 22 15.0040000  0  6 15 18 19 02 11 06
  25992720.808      -66850.308 2    -52088.058 1
  26147917.373    30856691.352 2  24044125.299 1
  23250481.719    11356107.969 3   8848912.258 2
  22321559.513   -12377052.569 4  -9644406.915 2
  25593819.964     5043259.797 2   3929835.289 1
  23502924.963    -7793335.985 3  -6072684.673 1
 91  4  5 23 22 30.0040000  0  6 15 18 19 02 11 06
  25989382.931      -84427.417 2    -65784.547 1
  26161000.918    30925483.945 2  24097729.761 1
  23257778.371    11394437.075 3   8878779.049 1
  22322412.114   -12372575.438 4  -9640918.197 2
  25604252.437     5098088.456 2   3972558.851 1
  23499814.322    -7809650.552 3  -6085397.242 1
 91  4  5 23 22 45.0040000  0  7 15 18 19 02 11 16 06
  25986042.034     -101950.137 2    -79438.493 1
  26174087.762    30994278.472 2  24151335.638 1
  23265079.524    11432833.448 3   8908698.279 2
  22323276.719   -12368035.948 4  -9637380.909 2
  25614708.904     5153008.721 2   4015353.759 1
  26053470.164       27059.76012     21074.124 1
  23496712.371    -7825950.583 3  -6098098.511 1
 91  4  5 23 23  0.0040000  0  6 15 18 19 02 11 06
  25982724.538     -119415.980 2    -93048.475 1
  26187186.890    31063076.946 2  24204945.006 1
  23272409.453    11471299.304 2   8938671.634 2
  22324150.906   -12363431.822 4  -9633793.249 2
  25625171.967     5208022.357 2   4058221.504 1
  23493611.014    -7842233.952 3  -6110786.816 1
 91  4  5 23 23 15.0040000  0  7 15 18 19 02 11 16 06
  25979410.026     -136828.388 1   -106616.464 1
  26200275.234    31131874.977 2  24258553.721 1
  23279736.974    11509831.094 3   8968696.374 2
  22325040.692   -12358766.955 4  -9630158.257 2
  25635655.098     5263125.296 2   4101158.743 1
  26068845.621       27075.550 2     21086.453 1
  23490519.254    -7858504.210 3  -6123464.859 1
 91  4  5 23 23 30.0040000  0  6 15 18 19 02 11 06
  25976104.519     -154186.080 2   -120141.928 1
  26213367.172    31200672.822 2  24312162.298 1
  23287082.190    11548429.308 3   8998772.857 2
  22325936.778   -12354040.726 4  -9626475.459 2
  25646155.331     5318317.714 2   4144165.774 1
  23487427.791    -7874760.576 3  -6136132.091 2
 91  4  5 23 23 45.0040000  0  6 15 18 19 02 11 06
  25972801.995     -171487.169 1   -133623.188 1
  26226461.205    31269471.935 2  24365772.167 1
  23294436.095    11587095.695 3   9028902.484 2
  22326849.337   -12349251.391 4  -9622743.481 2
  25656681.651     5373601.031 2   4187243.624 1
  23484331.843    -7891001.296 3  -6148787.146 1
 91  4  5 23 24  0.0040000  0  5 18 19 02 11 06
  26239554.941    31338274.747 2  24419384.968 1
  23301810.086    11625832.641 3   9059087.067 1
  22327773.012   -12344396.854 4  -9618960.693 2
  25667215.458     5428977.258 2   4230393.871 1
  23481250.867    -7907223.748 3  -6161427.942 1
 91  4  5 23 24 15.0040000  0  6 15 18 19 02 11 06
  25966253.330        4097.02212      3195.496 1
  26252650.160    31407076.614 2  24472996.648 1
  23309191.877    11664635.678 3   9089323.155 2
  22328706.861   -12339481.717 4  -9615130.695 2
  25677776.853     5484441.698 2   4273612.837 1
  23478164.203    -7923432.215 3  -6174057.877 2
 91  4  5 23 24 30.0040000  0  5 18 19 02 11 06
  26265745.711    31475877.775 2  24526608.138 1
  23316593.754    11703505.666 2   9119611.428 1
  22329657.793   -12334505.161 4  -9611252.834 2
  25688347.235     5539994.780 2   4316900.884 1
  23475080.837    -7939625.862 3  -6186676.237 2
 91  4  5 23 24 45.0040000  0  4 19 02 11 06
  23323994.740    11742443.047 3   9149952.202 2
  22330614.745   -12329466.994 4  -9607326.962 2
  25698939.500     5595636.626 2   4360258.077 1
  23472003.177    -7955804.003 3  -6199282.527 1
 91  4  5 23 25  0.0040000  0  4 19 02 11 06
  23331424.484    11781451.396 3   9180348.279 2
  22331585.763   -12324363.656 4  -9603350.312 2
  25709536.860     5651370.250 2   4403686.822 1
  23468927.593    -7971963.198 3  -6211874.061 1
 91  4  5 23 25 15.0040000  0  4 19 02 11 06
  23338857.841    11820527.578 3   9210797.233 1
  22332569.676   -12319198.460 4  -9599325.458 2
  25720160.011     5707192.197 2   4447184.391 1
  23465857.419    -7988106.267 3  -6224453.014 2
 91  4  5 23 25 30.0040000  0  4 19 02 11 06
  23346310.079    11859672.012 3   9241299.361 2
  22333563.501   -12313971.026 4  -9595252.098 2
  25730795.134     5763102.530 2   4490750.849 1
  23462789.357    -8004232.834 3  -6237019.127 1
 91  4  5 23 25 45.0040000  0  4 19 02 11 06
  23353770.116    11898883.449 3   9271853.668 2
  22334566.906   -12308682.635 4  -9591131.256 2
  25741455.454     5819099.606 2   4534384.860 1
  23459724.279    -8020343.894 3  -6249573.136 2
 91  4  5 23 26  0.0040000  0  4 19 02 11 06
  23361254.148    11938164.340 2   9302462.118 2
  22335587.098   -12303330.855 4  -9586961.016 2
  25752126.280     5875185.604 2   4578088.177 1
  23456658.293    -8036436.821 3  -6262112.987 1
 91  4  5 23 26 15.0040000  0  5 15 19 02 11 06
  25940487.071        4159.384 2      3244.056 1
  23368731.863    11977511.433 3   9333122.144 2
  22336616.591   -12297919.204 4  -9582744.116 2
  25762817.470     5931356.749 2   4621857.817 1
  23453598.013    -8052514.850 3  -6274641.274 2
 91  4  5 23 26 30.0040000  0  4 19 02 11 06
  23376239.261    12016924.622 2   9363833.682 1
  22337661.056   -12292447.797 4  -9578480.659 2
  25773523.057     5987612.526 2   4665693.458 1
  23450541.625    -8068577.973 3  -6287157.937 1
 91  4  5 23 26 45.0040000  0  5 15 19 02 11 06
  25934172.239        4176.40112      3257.092
  23383745.769    12056408.743 3   9394600.499 2
  22338713.339   -12286911.898 4  -9574166.942 2
  25784246.931     6043957.638 2   4709598.666 1
  23447487.034    -8084621.102 3  -6299659.033 2
 91  4  5 23 27  0.0040000  0  5 15 19 02 11 06
  25931018.723       -5733.683 2     -4465.006 1
  23391275.363    12095958.299 3   9425418.298 2
  22339779.984   -12281317.013 4  -9569807.266 2
  25794984.905     6100386.190 2   4753568.934 1
  23444442.355    -8100649.590 3  -6312148.700 2
 91  4  5 23 27 15.0040000  0  5 15 19 02 11 06
  25927889.794      -22208.845 2    -17302.628 1
  23398806.144    12135574.391 2   9456287.933 2
  22340852.649   -12275662.261 4  -9565400.939 2
  25805736.054     6156898.738 2   4797604.601 1
  23441393.767    -8116662.401 3  -6324626.160 1
 91  4  5 23 27 30.0040000  0  5 15 19 02 11 06
  25924765.961      -38621.104 2    -30091.354 1
  23406368.406    12175259.765 2   9487211.567 1
  22341942.101   -12269945.175 4  -9560946.035 2
  25816510.307     6213497.639 2   4841707.561 1
  23438346.663    -8132656.611 3  -6337089.114 1
 91  4  5 23 27 45.0040000  0  5 15 19 02 11 06
  25921651.708      -54970.994 2    -42831.427 1
  23413926.182    12215013.231 3   9518188.243 1
  22343039.335   -12264166.657 4  -9556443.272 3
  25827295.344     6270181.583 2   4885876.797 1
  23435310.080    -8148633.160 3  -6349538.306 1
 91  4  5 23 28  0.0040000  0  5 15 19 02 11 06
  25918545.866      -71256.325 2    -55521.292 1
  23421509.122    12254836.752 2   9549219.514 2
  22344152.171   -12258325.023 4  -9551891.326 2
  25838102.561     6326952.047 2   4930113.514 1
  23432268.682    -8164589.931 3  -6361972.100 2
 91  4  5 23 28 15.0040000  0  5 15 19 02 11 06
  25915464.297      -87475.298 2    -68159.682 1
  23429096.581    12294731.627 2   9580306.383 2
  22345275.179   -12252419.100 4  -9547289.275 2
  25848925.953     6383809.876 2   4974418.198 1
  23429234.176    -8180525.653 3  -6374389.486 2
 91  4  5 23 28 30.0040000  0  5 15 19 02 11 06
  25912407.315     -103630.739 2    -80748.192 1
  23436704.998    12334694.751 2   9611446.433 1
  22346414.993   -12246452.116 4  -9542639.650 2
  25859752.068     6440751.449 2   5018788.191 1
  23426210.472    -8196443.305 3  -6386792.774 2
 91  4  5 23 28 45.0040000  0  5 15 19 02 11 06
  25909330.842     -119724.116 2    -93288.518 1
  23444316.434    12374724.394 2   9642638.338 1
  22347561.699   -12240425.940 4  -9537943.910 2
  25870600.956     6497774.831 2   5063221.944 1
  23423187.065    -8212344.436 3  -6399183.209 2
 91  4  5 23 29  0.0040000  0  5 15 19 02 11 06
  25906275.658     -135754.317 2   -105779.572
  23451959.351    12414821.433 2   9673882.742 1
  22348719.207   -12234339.836 4  -9533201.462 2
  25881472.023     6554880.505 2   5107719.795 1
  23420162.454    -8228228.033 3  -6411559.966 2
 91  4  5 23 29 15.0050000  0  5 15 19 02 11 06
  25903239.061     -151719.033 2   -118219.377 1
  23459592.655    12454991.408 2   9705183.991 2
  22349886.891   -12228190.736 4  -9528409.923 2
  25892356.896     6612074.454 2   5152286.474 1
  23417144.145    -8244092.279 3  -6423921.652 2
 91  4  5 23 29 30.0050000  0  5 15 19 02 11 06
  25900217.451     -167614.653 2   -130605.373 1
  23467250.857    12495230.041 2   9736538.714 1
  22351069.876   -12221978.377 4  -9523569.109 2
  25903249.549     6669350.039 2   5196916.710 1
  23414126.444    -8259933.789 3  -6436265.618 2
 91  4  5 23 29 45.0050000  0  5 15 19 02 11 06
  25897205.439     -183448.574 2   -142943.613 1
  23474923.753    12535533.599 2   9767944.051 1
  22352261.552   -12215708.909 4  -9518683.774 2
  25914170.995     6726704.315 2   5241608.285 1
  23411116.823    -8275759.909 3  -6448597.581 2
 91  4  5 23 30  0.0050000  0  5 15 19 02 11 06
  25894213.215     -199210.238 2   -155225.230 1
  23482600.837    12575912.001 2   9799407.695 1
  22353466.716   -12209372.251 4  -9513746.083 2
  25925096.628     6784147.002 2   5286368.737 1
  23408112.000    -8291560.413 3  -6460909.596 2
 91  4  5 23 30 15.0050000  0  5 15 19 02 11 06
  25891211.987     -214907.404 2   -167456.625 1
  23490303.101    12616357.331 2   9830923.496 2
  22354686.574   -12202976.432 4  -9508762.311 3
  25936037.252     6841669.737 2   5331191.587 1
  23405108.678    -8307343.022 3  -6473207.636 2
 91  4  5 23 30 30.0050000  0  5 15 19 02 11 06
  25888247.335     -230536.570 2   -179635.095 1
  23498014.666    12656872.945 2   9862494.055 2
  22355915.121   -12196518.372 4  -9503730.023 3
  25947006.057     6899275.308 2   5376078.982 1
  23402107.153    -8323104.567 3  -6485489.301 2
 91  4  5 23 30 45.0050000  0  5 15 19 02 11 06
  25885285.684     -246097.184 2   -191760.109 1
  23505734.625    12697458.821 2   9894119.368 2
  22357157.158   -12189998.294 4  -9498649.422 3
  25957981.755     6956963.385 2   5421030.629 1
  23399113.132    -8338844.919 3  -6497754.443 2
 91  4  5 23 31  0.0050000  0  5 15 19 02 11 06
  25882338.133     -261591.336 2   -203833.365 1
  23513469.871    12738112.452 2   9925797.476 2
  22358408.496   -12183418.559 4  -9493522.317 2
  25968982.949     7014731.198 2   5466044.438 1
  23396122.409    -8354566.103 3  -6510004.630 2
 91  4  5 23 31 15.0050000  0  6 15 19 13 02 11 06
  25879407.962     -277018.118 2   -215854.055 1
  23521216.493    12778834.213 2   9957528.665 1
  26049604.630           0.486 2         0.359 1
  22359670.024   -12176778.676 4  -9488348.362 2
  25979985.625     7072578.821 2   5511120.461 1
  23393131.668    -8370267.715 3  -6522239.597 2
 91  4  5 23 31 30.0050000  0  5 15 19 02 11 06
  25876476.291     -292376.033 2   -227821.220 1
  23528979.921    12819625.378 2   9989313.942 2
  22360946.246   -12170077.752 4  -9483126.831 2
  25991010.795     7130507.032 2   5556259.252 1
  23390148.135    -8385948.358 3  -6534458.194 2
 91  4  5 23 31 45.0050000  0  5 15 19 02 11 06
  25873568.299     -307663.433 2   -239733.384 1
  23536756.244    12860487.199 2  10021154.276 1
  22362232.048   -12163314.820 4  -9477856.985 2
  26002050.954     7188516.583 2   5601461.464 1
  23387167.009    -8401606.744 3  -6546659.469 2
 91  4  5 23 32  0.0050000  0  6 15 19 13 02 11 06
  25870664.216     -322880.283 2   -251590.515 1
  23544551.448    12901419.684 2  10053049.658 2
  26022417.958       -7933.84812     -6182.189 1
  22363532.246   -12156489.767 4  -9472538.740 3
  26013107.307     7246607.132 2   5646726.729 1
  23384191.869    -8417242.680 3  -6558843.242 2
 91  4  5 23 32 15.0050000  0  6 15 19 13 02 11 06
  25867788.298     -338026.727 2   -263392.877 1
  23552348.746    12942422.174 2  10084999.610 1
  26013350.127      -55544.604 2    -43281.288 1
  22364839.337   -12149603.393 4  -9467172.705 2
  26024175.946     7304777.826 2   5692054.476 1
  23381221.511    -8432856.683 3  -6571009.933 2
 91  4  5 23 32 30.0050000  0  6 15 19 13 02 11 06
  25864923.793     -353103.081 2   -275140.548 1
  23560166.444    12983494.079 2  10117003.645 1
  26004295.209     -103144.008 2    -80371.956 1
  22366164.734   -12142656.281 4  -9461759.346 2
  26035258.073     7363027.592 2   5737443.852 1
  23378251.780    -8448449.220 3  -6583159.892 2
 91  4  5 23 32 45.0050000  0  6 15 19 13 02 11 06
  25862067.367     -368108.519 2   -286833.021 1
  23567994.612    13024635.656 2  10149061.970 1
  25995237.272     -150731.502 2   -117453.027 1
  22367497.005   -12135648.135 4  -9456298.423 2
  26046361.175     7421356.493 2   5782894.874 1
  23375293.113    -8464019.701 3  -6595292.669 2
 91  4  5 23 33  0.0050000  0  6 15 19 13 02 11 06
  25859225.337     -383040.998 2   -298468.600 1
  23575835.692    13065848.504 2  10181175.840 2
  25986176.945     -198305.108 1   -154523.591 1
  22368841.876   -12128577.731 4  -9450788.995 2
  26057469.984     7479765.616 2   5828408.401 1
  23372334.778    -8479566.550 3  -6607407.014 2
 91  4  5 23 33 15.0050000  0  6 15 19 13 02 11 06
  25856395.295     -397900.107 2   -310046.955 1
  23583691.449    13107132.534 2  10213345.169 1
  25977136.109     -245864.411 2   -191583.005 1
  22370200.829   -12121445.063 4  -9445231.049 2
  26068599.785     7538254.682 2   5873984.297 1
  23369377.018    -8495089.483 3  -6619502.747 2
 91  4  5 23 33 30.0050000  0  6 15 19 13 02 11 06
  25853587.433     -412690.207 2   -321571.655 1
  23591563.992    13148483.338 2  10245566.522 1
  25968089.864     -293413.474 2   -228634.466 1
  22371568.193   -12114254.676 4  -9439628.120 2
  26079750.561     7596818.696 2   5919618.531 1
  23366427.059    -8510592.851 3  -6631583.227 2
 91  4  5 23 33 45.0050000  0  6 15 19 13 02 11 06
  25850769.380     -427411.562 2   -333042.705 1
  23599444.650    13189900.622 2  10277839.704 1
  25959040.931     -340952.563 2   -265677.815 1
  22372947.232   -12107006.861 4  -9433980.457 2
  26090906.747     7655456.913 2   5965310.600 1
  23363482.492    -8526076.906 3  -6643648.650 2
 91  4  5 23 34  0.0050000  0  6 15 19 13 02 11 06
  25847990.904     -442062.011 2   -344458.514 1
  23607344.783    13231386.128 2  10310166.008 1
  25950000.689     -388479.171 2   -302711.752 1
  22374336.461   -12099700.197 4  -9428286.925 2
  26102084.502     7714170.747 2   6011061.645 1
  23360538.832    -8541539.854 3  -6655697.642 2
 91  4  5 23 34 15.0050000  0  6 15 19 13 02 11 06
  25845209.741     -456636.935 2   -355815.457 1
  23615246.398    13272944.041 2  10342548.752 1
  25940957.445     -435989.081 2   -339732.225 1
  22375740.104   -12092330.439 4  -9422544.232 2
  26113270.057     7772964.023 2   6056874.484 1
  23357601.175    -8556977.238 3  -6667726.708 1
 91  4  5 23 34 30.0050000  0  6 15 19 13 02 11 06
  25842458.836     -471136.880 2   -367114.069 1
  23623170.821    13314573.191 2  10374986.989 1
  25931916.313     -483483.030 2   -376740.693 1
  22377153.921   -12084899.029 4  -9416753.500 3
  26124469.100     7831835.138 2   6102748.066 1
  23354668.300    -8572390.020 3  -6679736.607 2
 91  4  5 23 34 45.0050000  0  6 15 19 13 02 11 06
  25839701.946     -485566.263 2   -378357.584 1
  23631097.024    13356269.024 2  10407477.190 1
  25922887.466     -530964.859 2   -413739.750 1
  22378577.928   -12077410.613 4  -9410918.342 3
  26135689.433     7890779.379 2   6148678.562 1
  23351740.223    -8587782.681 3  -6691730.833 2
 91  4  5 23 35  0.0050000  0  6 15 19 13 02 11 06
  25836987.320     -499920.568 2   -389542.688 1
  23639052.928    13398035.436 2  10440022.421 1
  25913852.615     -578430.475 2   -450726.122 1
  22380014.832   -12069861.311 4  -9405035.747 3
  26146919.957     7949800.394 2   6194668.921 1
  23348812.757    -8603150.953 3  -6703706.026 2
 91  4  5 23 35 15.0050000  0  6 15 19 13 02 11 06
  25834267.303     -514200.410 2   -400669.671 1
  23647012.408    13439871.530 2  10472621.920 2
  25904828.567     -625880.450 2   -487700.194 1
  22381464.927   -12062251.811 4  -9399106.242 2
  26158165.785     8008896.777 2   6240717.961 1
  23345894.278    -8618495.735 3  -6715662.959 2
 91  4  5 23 35 30.0050000  0  6 15 19 13 02 11 06
  25831561.978     -528408.862 2   -411741.087 1
  23654988.990    13481773.866 2  10505273.040 1
  25895786.824     -673317.414 2   -524664.267 1
  22382920.729   -12054585.699 4  -9393132.627 2
  26169423.287     8068064.701 2   6286822.780 1
  23342976.392    -8633820.239 3  -6727604.074 2
 91  4  5 23 35 45.0050000  0  6 15 19 13 02 11 06
  25828869.846     -542541.544 2   -422753.379 1
  23662967.073    13523746.529 2  10537978.956 1
  25886776.264     -720737.416 2   -561615.143 1
  22384394.505   -12046859.132 4  -9387111.891 2
  26180697.872     8127307.794 2   6332986.180 1
  23340068.715    -8649120.212 3  -6739526.061 2
 91  4  5 23 36  0.0050000  0  6 15 19 13 02 11 06
  25826196.594     -556598.687 2   -433706.935 1
  23670973.320    13565788.983 2  10570739.269 2
  25877754.903     -768140.683 2   -598552.542 1
  22385872.783   -12039072.969 4  -9381044.728 3
  26191987.169     8186625.268 2   6379207.509 1
  23337157.722    -8664396.064 3  -6751429.273 2
 91  4  5 23 36 15.0050000  0  6 15 19 13 02 11 06
  25823535.331     -570581.776 2   -444602.699 1
  23678990.369    13607899.409 2  10603552.512 1
  25868733.245     -815528.451 2   -635477.888 1
  22387366.643   -12031228.713 4  -9374932.293 3
  26203286.638     8246014.973 2   6425485.132 1
  23334259.921    -8679649.295 3  -6763314.837 2
 91  4  5 23 36 30.0050000  0  6 15 19 13 02 11 06
  25820889.076     -584490.713 2   -455440.677 1
  23687014.014    13650077.565 2  10636418.556 2
  25859713.699     -862900.648 2   -672391.081 1
  22388871.603   -12023326.851 4  -9368774.968 3
  26214600.504     8305476.261 2   6471818.562 1
  23331358.840    -8694880.207 3  -6775183.032 2
 91  4  5 23 36 45.0050000  0  6 15 19 13 02 11 06
  25818250.289     -598322.095 2   -466218.286 1
  23695056.557    13692326.616 2  10669339.837 2
  25850709.125     -910253.791 2   -709289.386 1
  22390384.362   -12015364.423 4  -9362570.464 3
  26225932.362     8365011.924 2   6518209.914 1
  23328464.041    -8710085.289 3  -6787031.090 2
 91  4  5 23 37  0.0050000  0  6 15 19 13 02 11 06
  25815625.008     -612077.697 2   -476936.809 1
  23703108.088    13734644.170 2  10702314.492 1
  25841703.661       -7840.89412     -6110.666 1
  22391910.610   -12007343.655 4  -9356320.474 2
  26237272.613     8424619.272 2   6564657.157 1
  23325576.431    -8725266.850 3  -6798860.798 2
 91  4  5 23 37 15.0050000  0  6 15 19 13 02 11 06
  25813033.913     -625759.201 2   -487597.580 1
  23711172.496    13777028.346 2  10735341.072 1
  25832692.804      -55161.297 2    -42983.622 1
  22393449.144   -11999266.706 4  -9350026.718 2
  26248622.758     8484295.904 2   6611158.378 1
  23322691.840    -8740426.708 3  -6810673.626 2
 91  4  5 23 37 30.0050000  0  6 15 19 13 02 11 06
  25810442.206     -639363.170 2   -498198.031 1
  23719248.003    13819482.064 2  10768421.815 1
  25823694.530     -102462.987 2    -79841.876 1
  22395000.259   -11991130.632 4  -9343686.894 2
  26260003.476     8544044.264 2   6657715.504 1
  23319812.921    -8755561.707 3  -6822467.063 2
 91  4  5 23 37 45.0050000  0  6 15 19 13 02 11 06
  25807864.286     -652887.870 2   -508736.668 1
  23727340.298    13862006.972 2  10801558.068 1
  25814696.552     -149743.756 2   -116683.830 1
  22396556.190   -11982933.957 4  -9337299.848 3
  26271389.603     8603865.783 2   6704329.594 1
  23316934.629    -8770669.928 3  -6834239.636 2
 91  4  5 23 38  0.0050000  0  6 15 19 13 02 11 06
  25805307.061     -666330.802 2   -519211.560 1
  23735451.194    13904605.179 2  10834751.403 1
  25805702.186     -197001.048 2   -153507.470 1
  22398130.391   -11974674.643 4  -9330863.997 3
  26282778.418     8663762.266 2   6751002.115 1
  23314068.012    -8785749.235 3  -6845989.699 1
 91  4  5 23 38 15.0050000  0  6 15 19 13 02 11 06
  25802776.814     -679698.117 2   -529627.519 1
  23743566.871    13947270.138 2  10867996.785 1
  25796711.415     -244241.159 2   -190318.144 1
  22399708.205   -11966359.392 4  -9324384.554 2
  26294192.117     8723726.723 2   6797727.630 1
  23311201.692    -8800805.899 3  -6857722.103 1
 91  4  5 23 38 30.0050000  0  6 15 19 13 02 11 06
  25800244.456     -692985.808 2   -539981.451 1
  23751699.632    13990005.407 2  10901296.931 1
  25787732.632     -291460.006 2   -227111.823 1
  22401306.104   -11957984.600 4  -9317858.711 3
  26305621.695     8783762.349 2   6844508.583 1
  23308339.874    -8815836.293 3  -6869434.047 2
 91  4  5 23 38 45.0050000  0  6 15 19 13 02 11 06
  25797723.214     -706191.124 2   -550271.147 1
  23759849.792    14032813.294 2  10934653.655 1
  25778743.048     -338654.672 2   -263887.116 1
  22402908.488   -11949547.980 4  -9311284.699 3
  26317061.185     8843871.202 2   6891346.592 1
  23305487.950    -8830837.669 3  -6881123.368 2
 91  4  5 23 39  0.0050000  0  6 15 19 13 02 11 06
  25795222.632     -719320.738 2   -560501.858 1
  23768005.953    14075686.911 2  10968061.621 1
  25769768.768     -385832.018 2   -300648.734 1
  22404526.175   -11941056.644 4  -9304668.041 3
  26328509.645     8904045.934 2   6938235.903 1
  23302635.415    -8845816.964 3  -6892795.486 2
 91  4  5 23 39 15.0050000  0  6 15 19 13 02 11 06
  25792744.248     -732371.540 2   -570671.242 1
  23776175.901    14118629.183 2  11001523.096 1
  25760799.268     -432988.809 2   -337394.411 1
  22406151.052   -11932507.692 4  -9298006.492 3
  26339974.316     8964289.104 2   6985178.623 1
  23299791.291    -8860770.977 3  -6904447.900 2
 91  4  5 23 39 30.0050000  0  6 15 19 13 02 11 06
  25790279.963     -745341.342 2   -580777.447 1
  23784365.620    14161641.595 2  11035039.208 1
  25751823.784     -480123.050 2   -374122.185 1
  22407789.715   -11923899.676 4  -9291298.926 3
  26351450.679     9024601.984 2   7032175.576 1
  23296952.263    -8875697.991 3  -6916079.271 2
 91  4  5 23 39 45.0050000  0  6 15 19 13 02 11 06
  25787818.959     -758229.072 2   -590819.695 1
  23792556.560    14204724.877 2  11068610.557 1
  25742857.897     -527233.548 2   -410831.903 1
  22409440.069   -11915231.835 4  -9284544.741 2
  26362933.027     9084984.850 2   7079227.149 1
  23294114.125    -8890597.201 3  -6927689.000 2
 91  4  5 23 40  0.0050000  0  6 15 19 13 02 11 06
  25785388.248     -771034.159 2   -600797.537 1
  23800771.774    14247879.089 2  11102237.127 1
  25733897.088     -574319.755 2   -447522.501 1
  22411100.021   -11906504.206 4  -9277743.959 3
  26374444.150     9145437.493 2   7126333.065 1
  23291284.973    -8905468.119 3  -6939276.660 2
 91  4  5 23 40 15.0050000  0  6 15 19 13 02 11 06
  25782972.527     -783755.753 2   -610710.271 1
  23808997.475    14291105.101 2  11135919.676 1
  25724940.188     -621380.317 2   -484193.031 1
  22412773.462   -11897716.112 4  -9270896.071 3
  26385959.182     9205960.303 2   7173493.654 1
  23288462.139    -8920309.871 3  -6950841.602 2
 91  4  5 23 40 30.0050000  0  6 15 19 13 02 11 06
  25780557.400     -796395.695 2   -620559.551 1
  23817231.866    14334400.859 2  11169656.576 1
  25715988.383     -668417.448 2   -520845.206 1
  22414459.188   -11888869.700 4  -9264002.740 3
  26397486.203     9266550.731 2   7220706.892 1
  23285638.990    -8935124.451 3  -6962385.360 2
 91  4  5 23 40 45.0050000  0  5 15 19 02 11 06
  25778171.047     -808954.344 2   -630345.277 1
  23825491.159    14377765.435 2  11203447.104 1
  22416149.416   -11879965.794 4  -9257064.604 3
  26409028.806     9327207.720 2   7267972.043 1
  23282827.830    -8949912.478 3  -6973908.436 2
 91  4  5 23 41  0.0050000  0  6 15 19 13 02 11 06
  25775798.481     -821430.742 2   -640067.141 1
  23833751.342    14421199.458 2  11237291.734 1
  25698103.079      -26514.97912    -20661.669 1
  22417857.636   -11871003.953 4  -9250081.334 3
  26420587.307     9387931.387 2   7315289.107 1
  23280021.468    -8964673.108 3  -6985410.178 2
 91  4  5 23 41 15.0050000  0  6 15 19 13 02 11 06
  25773446.610     -833825.761 2   -649725.385 1
  23842033.110    14464701.595 2  11271189.441 1
  25689155.166      -73481.347 2    -57259.085 1
  22419572.451   -11861985.621 4  -9243054.037 3
  26432154.795     9448720.243 2   7362657.000 1
  23277213.624    -8979407.492 3  -6996891.447 2
 91  4  5 23 41 30.0050000  0  6 15 19 13 02 11 06
  25771107.932     -846139.441 2   -659320.309
  23850322.958    14508271.508 2  11305139.993 1
  25680223.446     -120424.561 2    -93838.461 1
  22421298.958   -11852911.218 4  -9235983.045 2
  26443734.288     9509573.601 2   7410075.161 1
  23274415.062    -8994115.717 3  -7008352.350 2
 91  4  5 23 41 45.0050000  0  6 15 19 13 02 11 06
  25768741.979     -858369.663 2   -668850.229 1
  23858626.609    14551910.901 2  11339144.645 1
  25671295.932     -167342.516 2   -130397.711 1
  22423036.250   -11843779.359 4  -9228867.295 3
  26455320.360     9570492.544 2   7457544.361 1
  23271620.689    -9008796.094 3  -7019791.554 2
 91  4  5 23 42  0.0050000  0  6 15 19 13 02 11 06
  25766449.160     -870516.392 2   -678315.024 1
  23866947.048    14595619.832 2  11373203.492 1
  25662360.025     -214234.639 1   -166937.092 1
  22424786.437   -11834589.771 4  -9221706.558 3
  26466924.127     9631476.927 2   7505064.637 1
  23268835.320    -9023448.284 3  -7031208.777 2
 91  4  5 23 42 15.0050000  0  6 15 19 13 02 11 06
  25764162.047     -882582.147 2   -687716.852 1
  23875271.098    14639394.997 2  11407313.974 1
  25653455.283     -261103.961 2   -203458.693 1
  22426545.628   -11825345.678 4  -9214503.342 2
  26478549.479     9692523.049 2   7552632.952 1
  23266045.746    -9038075.377 3  -7042606.463 2
 91  4  5 23 42 30.0050000  0  6 15 19 13 02 11 06
  25761875.528     -894566.397 2   -697055.090 1
  23883617.311    14683236.688 2  11441476.266 2
  25644545.447     -307949.462 2   -239961.496 1
  22428314.399   -11816046.933 4  -9207257.551 3
  26490176.036     9753630.872 2   7600249.197 1
  23263272.069    -9052676.861 3  -7053984.186 2
 91  4  5 23 42 45.0050000  0  6 15 19 13 02 11 06
  25759606.389     -906467.914 2   -706328.933 1
  23891970.433    14727146.154 2  11475691.394 1
  25635641.019     -354769.944 2   -276445.220 1
  22430095.473   -11806692.660 4  -9199968.488 2
  26501815.767     9814801.157 2   7647914.157 1
  23260497.188    -9067251.357 3  -7065340.869 2
 91  4  5 23 43  0.0050000  0  6 15 19 13 02 11 06
  25757361.855     -918285.616 2   -715537.321 1
  23900343.030    14771123.753 2  11509959.588 1
  25626739.576     -401564.435 2   -312908.539 1
  22431884.627   -11797282.326 4  -9192635.731 3
  26513472.007     9876034.228 2   7695628.242 1
  23257730.403    -9081798.158 3  -7076675.977 2
 91  4  5 23 43 15.0050000  0  6 15 19 13 02 11 06
  25755130.199     -930021.466 2   -724681.993 1
  23908727.040    14815167.172 2  11544279.091 1
  25617833.351     -448334.726 2   -349352.769 1
  22433685.175   -11787818.336 4  -9185261.180 3
  26525135.139     9937327.132 2   7743388.892 1
  23254967.528    -9096319.463 3  -7087991.230 2
 91  4  5 23 43 30.0050000  0  6 15 19 13 02 11 06
  25752911.124     -941671.731 2   -733759.961 1
  23917117.924    14859279.668 2  11578652.419 1
  25608946.898     -495077.238 2   -385775.298 1
  22435499.823   -11778297.462 4  -9177842.300 3
  26536806.054     9998682.966 2   7791198.558 1
  23252207.933    -9110811.878 3  -7099283.957 2
 91  4  5 23 43 45.0050000  0  6 15 19 13 02 11 06
  25750718.452     -953235.200 2   -742770.429 1
  23925530.395    14903462.167 2  11613080.267 1
  25600054.145     -541790.739 2   -422175.392 1
  22437319.567   -11768718.890 4  -9170378.454 2
  26548487.770    10060102.260 2   7839057.678 1
  23249457.028    -9125274.090 3  -7110553.142 2
 91  4  5 23 44  0.0050000  0  6 15 19 13 02 11 06
  25748513.774     -964712.962 2   -751714.333
  23933945.274    14947713.234 2  11647561.580 1
  25591165.597     -588476.348 2   -458553.577 1
  22439153.689   -11759084.220 4  -9162870.903 3
  26560197.652    10121583.140 2   7886964.832 1
  23246708.235    -9139707.475 3  -7121799.884 2
 91  4  5 23 44 15.0050000  0  6 15 19 13 02 11 06
  25746358.271     -976105.787 2   -760591.816 1
  23942377.533    14992032.162 2  11682095.738 1
  25582285.757     -635134.574 2   -494910.811 1
  22440999.225   -11749394.308 4  -9155320.304 2
  26571904.253    10183124.394 2   7934919.025 1
  23243968.429    -9154112.720 3  -7133024.687 2
 91  4  5 23 44 30.0050000  0  6 15 19 13 02 11 06
  25744217.147     -987411.721 2   -769401.525 1
  23950825.393    15036420.082 2  11716683.698 1
  25573405.603     -681763.482 2   -531245.247 1
  22442853.136   -11739647.966 4  -9147725.725 3
  26583632.143    10244726.990 2   7982921.074 1
  23241234.032    -9168488.242 3  -7144226.345 2
 91  4  5 23 44 45.0050000  0  6 15 19 13 02 11 06
  25742071.834     -998628.205 2   -778141.505 1
  23959284.037    15080879.283 2  11751327.185 1
  25564541.032     -728360.156 2   -567554.169 1
  22444718.442   -11729842.727 4  -9140085.263 3
  26595359.108    10306392.985 2   8030972.361 1
  23238501.118    -9182831.506 3  -7155402.845 2
 91  4  5 23 45  0.0050000  0  6 15 19 13 02 11 06
  25739961.597    -1009759.140 2   -786814.814 1
  23967765.768    15125405.417 2  11786022.785 1
  25555674.681     -774928.556 2   -603841.170 1
  22446596.050   -11719982.959 4  -9132402.307 3
  26607114.586    10368117.851 2   8079069.701 1
  23235779.897    -9197146.490 3  -7166557.318 2
 91  4  5 23 45 15.0050000  0  6 15 19 13 02 11 06
  25737832.775    -1020807.020 2   -795423.438 1
  23976244.497    15169995.606 2  11820768.331 1
  25546820.912     -821471.597 2   -640108.264 1
  22448480.238   -11710071.818 4  -9124679.318 3
  26618864.045    10429898.056 2   8127210.105 1
  23233061.694    -9211436.036 3  -7177691.969 2
 91  4  5 23 45 30.0050000  0  6 15 19 13 02 11 06
  25735768.990    -1031767.720 2   -803964.021 1
  23984745.406    15214653.902 2  11855566.973 1
  25537964.438     -867984.695 2   -676352.173 1
  22450377.024   -11700105.281 4  -9116913.163 3
  26630624.305    10491737.283 2   8175396.494 1
  23230345.864    -9225695.980 3  -7188803.552 2
 91  4  5 23 45 45.0050000  0  6 15 19 13 02 11 06
  25733693.828    -1042640.396 2   -812436.191 1
  23993254.411    15259380.716 2  11890418.985 1
  25529124.157     -914466.979 2   -712572.053 1
  22452284.001   -11690082.997 4  -9109103.576 3
  26642412.137    10553635.729 2   8223628.954 1
  23227638.148    -9239925.585 3  -7199891.498 2
 91  4  5 23 46  0.0050000  0  6 15 19 13 02 11 06
  25731641.455    -1053421.409 2   -820836.914 1
  24001784.112    15304179.243 2  11925326.854 1
  25520282.080     -960914.817 2   -748765.024 1
  22454203.874   -11680002.036 4  -9101248.257 2
  26654200.282    10615596.141 2   8271909.788 1
  23224937.902    -9254121.518 3  -7210953.199 2
 91  4  5 23 46 15.0050000  0  6 15 19 13 02 11 06
  25729615.450    -1064113.994 2   -829168.623 1
  24010321.300    15349046.210 2  11960288.090 1
  25511448.396    -1007331.137 2   -784933.782 1
  22456132.437   -11669865.639 4  -9093349.744 3
  26666005.215    10677614.960 2   8320236.051 1
  23222242.768    -9268286.894 3  -7221991.096 2
 91  4  5 23 46 30.0050000  0  6 15 19 13 02 11 06
  25727591.853    -1074717.311 2   -837430.828 1
  24018871.680    15393981.846 2  11995302.800 1
  25502627.904    -1053715.551 2   -821077.706 1
  22458070.895   -11659673.606 4  -9085407.889 2
  26677817.930    10739691.922 2   8368607.661 1
  23219551.246    -9282421.209 3  -7233004.785 2
 91  4  5 23 46 45.0050000  0  6 15 19 13 02 11 06
  25725603.628    -1085235.611 2   -845626.817 1
  24027431.954    15438981.743 2  12030367.587 1
  25493806.801    -1100071.853 2   -857199.332 1
  22460021.044   -11649430.310 4  -9077426.081 3
  26689640.854    10801822.306 2   8417020.930 1
  23216866.600    -9296528.664 3  -7243997.541 2
 91  4  5 23 47  0.0050000  0  6 15 19 13 02 11 06
  25723610.307    -1095665.704 2   -853753.968 1
  24036012.017    15484048.562 2  12065484.531 1
  25484989.014    -1146397.184 2   -893296.748 1
  22461980.197   -11639133.332 4  -9069402.441 3
  26701479.658    10864008.539 2   8465477.742 1
  23214188.847    -9310606.427 3  -7254967.171 2
 91  4  5 23 47 15.0050000  0  5 15 19 13 02 06
  25721641.870    -1106001.201 2   -861807.578 1
  24044598.972    15529188.532 2  12100658.472 1
  25476180.511    -1192684.780 2   -929365.210 1
  22463951.321   -11628776.370 4  -9061332.063 3
  23211515.910    -9324648.016 3  -7265908.605 2
 91  4  5 23 47 30.0050000  0  5 15 19 13 02 06
  25719686.625    -1116245.852 2   -869790.336 1
  24053201.807    15574397.361 2  12135886.056 1
  25467392.686    -1238938.257 2   -965407.099 1
  22465931.764   -11618363.775 4  -9053218.338 3
  23208851.349    -9338657.480 3  -7276824.998 2
 91  4  5 23 47 45.0050000  0  5 15 19 13 02 06
  25717749.668    -1126399.604 2   -877702.177 1
  24061816.055    15619674.626 2  12171166.976 1
  25458575.196    -1285157.877 2  -1001422.246 1
  22467923.584   -11607895.895 4  -9045061.520 2
  23206193.087    -9352635.040 3  -7287716.542 2
 91  4  5 23 48  0.0050000  0  5 15 19 13 02 06
  25715849.881    -1136462.013 2   -885542.898 1
  24070447.980    15665020.696 2  12206501.538 1
  25449792.780    -1331342.836 2  -1037410.356 1
  22469926.799   -11597372.632 4  -9036861.560 3
  23203537.234    -9366579.965 3  -7298582.658 2
 91  4  5 23 48 15.0050000  0  5 15 19 13 02 06
  25713947.406    -1146430.609 2   -893310.638 1
  24079088.594    15710437.521 2  12241891.197 1
  25441009.457    -1377490.630 2  -1073369.514 1
  22471940.502   -11586791.861 4  -9028616.782 3
  23200891.257    -9380490.137 3  -7309421.702 2
 91  4  5 23 48 30.0050000  0  5 15 19 13 02 06
  25712074.596    -1156305.959 2   -901005.498
  24087744.496    15755923.953 2  12277335.099 1
  25432241.718    -1423602.243 2  -1109300.877 1
  22473964.693   -11576155.011 4  -9020328.304 3
  23198250.394    -9394366.478 3  -7320234.354 2
 91  4  5 23 48 45.0050000  0  5 15 19 13 02 06
  25710208.696    -1166088.846 2   -908628.529 1
  24096409.698    15801478.972 2  12312832.465 1
  25423472.495    -1469678.322 2  -1145204.113 1
  22475998.795   -11565462.940 4  -9011996.806 3
  23195614.015    -9408209.886 3  -7331021.362 2
 91  4  5 23 49  0.0050000  0  5 15 19 13 02 06
  25708343.984    -1175783.211 2   -916182.392 1
  24105098.284    15847098.377 2  12348379.984 1
  25414702.975    -1515722.751 2  -1181083.121 1
  22478043.978   -11554720.243 4  -9003625.851 3
  23192985.436    -9422024.229 3  -7341785.727 2
 91  4  5 23 49 15.0050000  0  5 15 19 13 02 06
  25706543.732    -1185381.251 2   -923661.306 1
  24113785.979    15892789.700 2  12383983.560 1
  25405949.335    -1561727.189 2  -1216930.936 1
  22480097.554   -11543919.182 4  -8995209.409 3
  23190361.953    -9435801.810 3  -7352521.438 2
 91  4  5 23 49 30.0050000  0  5 15 19 13 02 06
  25704727.286    -1194884.917 2   -931066.738 1
  24122504.230    15938550.674 2  12419641.392 1
  25397196.585    -1607693.678 2  -1252749.205 1
  22482164.916   -11533062.074 4  -8986749.319 3
  23187749.847    -9449544.567 3  -7363230.011 2
 91  4  5 23 49 45.0050000  0  5 15 19 13 02 06
  25702926.738    -1204298.691 2   -938402.026 1
  24131217.403    15984376.799 2  12455350.012 1
  25388461.826    -1653626.671 2  -1288540.949 1
  22484240.690   -11522153.804 4  -8978249.342 3
  23185138.056    -9463257.100 3  -7373915.053 2
 91  4  5 23 50  0.0050000  0  5 15 19 13 02 06
  25701157.967    -1213616.875 2   -945662.880 1
  24139954.256    16030272.983 2  12491113.207 1
  25379735.182    -1699520.550 2  -1324302.529 1
  22486327.544   -11511189.395 4  -8969705.624 3
  23182536.159    -9476934.131 3  -7384572.417 2
 91  4  5 23 50 15.0050000  0  5 15 19 13 02 06
  25699407.762    -1222839.599 2   -952849.361 1
  24148701.596    16076238.849 2  12526930.691 1
  25371004.611    -1745375.248 2  -1360033.296 1
  22488423.385   -11500169.030 4  -8961118.311 3
  23179939.653    -9490575.699 3  -7395202.153 2
 91  4  5 23 50 30.0050000  0  5 15 19 13 02 06
  25697671.971    -1231968.635 2   -959962.769 1
  24157454.940    16122272.206 2  12562800.779 1
  25362284.859    -1791192.391 2  -1395734.982 1
  22490531.231   -11489094.880 4  -8952489.083 3
  23177350.059    -9504183.604 3  -7405805.647 2
 91  4  5 23 50 45.0050000  0  5 15 19 13 02 06
  25695948.762    -1241003.400 2   -967002.784 1
  24166228.072    16168373.202 2  12598723.550 1
  25353576.188    -1836971.530 2  -1431406.836
  22492648.065   -11477967.031 4  -8943818.002 3
  23174767.950    -9517757.670 3  -7416382.794 2
 91  4  5 23 51  0.0050000  0  5 15 19 13 02 06
  25694254.940    -1249942.377 2   -973968.103 1
  24175024.587    16214543.119 2  12634700.042 1
  25344870.205    -1882711.043 2  -1467047.801 1
  22494778.091   -11466784.169 4  -8935104.068 3
  23172191.530    -9531296.395 3  -7426932.388 2
 91  4  5 23 51 15.0050000  0  5 15 19 13 02 06
  25692553.316    -1258787.725 2   -980860.553 1
  24183816.286    16260779.465 2  12670728.317 1
  25336176.838    -1928413.143 2  -1502659.590 1
  22496913.212   -11455548.931 4  -8926349.316 3
  23169622.596    -9544801.942 3  -7437456.134 2
 91  4  5 23 51 30.0050000  0  5 15 19 13 02 06
  25690896.663    -1267537.084 2   -987678.190 1
  24192632.589    16307084.213 2  12706809.878 1
  25327479.248    -1974075.363 2  -1538240.778 1
  22499062.119   -11444259.484 4  -8917552.319 3
  23167058.182    -9558272.175 3  -7447952.373 2
 91  4  5 23 51 45.0050000  0  5 15 19 13 02 06
  25689250.496    -1276191.769 2   -994421.895 1
  24201447.689    16353455.867 2  12742943.552 1
  25318799.667    -2019698.837 2  -1573791.731 1
  22501220.031   -11432917.306 4  -8908714.236 3
  23164500.643    -9571708.393 3  -7458422.095 2
 91  4  5 23 52  0.0050000  0  5 15 19 13 02 06
  25687635.217    -1284749.951 2  -1001090.510
  24210293.658    16399895.706 2  12779130.392 1
  25310130.556    -2065281.736 2  -1609311.120 1
  22503386.632   -11421521.153 4  -8899834.093 3
  23161954.813    -9585108.974 3  -7468864.058 2
 91  4  5 23 52 15.0050000  0  5 15 19 13 02 06
  25686004.058    -1293214.487 2  -1007686.220 1
  24219142.629    16446400.645 2  12815367.934 1
  25301470.152    -2110826.791 2  -1644800.560 1
  22505567.927   -11410074.063 4  -8890914.260 3
  23159407.169    -9598476.794 3  -7479280.483 2
 91  4  5 23 52 30.0050000  0  5 15 19 13 02 06
  25684414.256    -1301584.113 2  -1014207.881 1
  24228004.198    16492971.598 2  12851656.954 1
  25292802.856    -2156332.606 2  -1680259.414 1
  22507754.910   -11398575.163 4  -8881954.053 3
  23156871.827    -9611810.629 3  -7489670.445 2
 91  4  5 23 52 45.0050000  0  5 15 19 13 02 06
  25682851.728    -1309857.579 2  -1020654.713 1
  24236872.067    16539609.376 2  12887998.007 1
  25284146.658    -2201798.107 2  -1715686.914 1
  22509952.678   -11387023.797 4  -8872952.968 3
  23154341.283    -9625109.569 3  -7500033.188 2
 91  4  5 23 53  0.0050000  0  5 15 19 13 02 06
  25681283.216    -1318033.694 2  -1027025.564 1
  24245759.707    16586314.748 2  12924391.749 1
  25275511.435    -2247221.854 2  -1751082.162 1
  22512162.451   -11375419.097 4  -8863910.319 3
  23151815.836    -9638372.345 3  -7510367.780 2
 91  4  5 23 53 15.0050000  0  5 15 19 13 02 06
  25679757.875    -1326115.332 2  -1033322.942 1
  24254662.948    16633084.558 2  12960835.695 1
  25266867.819    -2292606.631 2  -1786447.108 1
  22514380.025   -11363764.283 4  -8854828.628 2
  23149299.375    -9651601.971 3  -7520676.530 2
 91  4  5 23 53 30.0050000  0  5 15 19 13 02 06
  25678233.127    -1334102.556 2  -1039546.674 1
  24263584.477    16679918.175 2  12997329.354 1
  25258240.990    -2337952.624 2  -1821781.664 1
  22516606.586   -11352059.880 4  -8845708.292 3
  23146788.916    -9664798.809 3  -7530959.734 2
 91  4  5 23 53 45.0050000  0  5 15 19 13 02 06
  25676734.764    -1341990.826 2  -1045693.283 1
  24272498.205    16726820.021 2  13033876.206 1
  25249621.647    -2383255.155 2  -1857082.173 1
  22518844.524   -11340301.565 4  -8836545.939 2
  23144282.943    -9677958.067 3  -7541213.661 2
 91  4  5 23 54  0.0050000  0  5 15 19 13 02 06
  25675241.793    -1349781.061 2  -1051763.425 1
  24281443.413    16773789.123 2  13070475.441 1
  25241002.024    -2428514.740 2  -1892349.174 1
  22521093.578   -11328490.545 4  -8827342.529 3
  23141786.567    -9691080.791 3  -7551439.114 2
 91  4  5 23 54 15.0050000  0  5 15 19 13 02 06
  25673773.113    -1357474.359 2  -1057758.096 1
  24290384.713    16820823.571 2  13107125.579 1
  25232399.765    -2473732.565 2  -1927584.035 1
  22523348.006   -11316628.483 4  -8818099.346 3
  23139294.694    -9704168.340 3  -7561637.149 2
 91  4  5 23 54 30.0050000  0  5 15 19 13 02 06
  25672336.210    -1365069.973 2  -1063676.750 1
  24299348.803    16867924.087 2  13143827.250 1
  25223799.320    -2518907.845 2  -1962785.390 1
  22525615.941   -11304715.164 4  -8808816.215 3
  23136810.323    -9717220.045 3  -7571807.264 2
 91  4  5 23 54 45.0050000  0  5 15 19 13 02 06
  25670912.202    -1372567.892 2  -1069519.171 1
  24308321.897    16915090.452 2  13180580.171 1
  25215219.868    -2564040.614 2  -1997953.550 1
  22527894.067   -11292750.862 4  -8799493.369 3
  23134338.238    -9730235.860 3  -7581949.422 2
 91  4  5 23 55  0.0050000  0  5 15 19 13 02 06
  25669506.762    -1379969.804 2  -1075286.806 1
  24317313.278    16962320.301 2  13217382.602 1
  25206642.807    -2609132.549 2  -2033089.897 1
  22530178.789   -11280737.602 4  -8790132.360 2
  23131864.338    -9743217.756 3  -7592065.137 2
 91  4  5 23 55 15.0050000  0  5 15 19 13 02 06
  25668115.438    -1387271.620 2  -1080976.382 1
  24326312.739    17009617.354 2  13254237.404 1
  25198064.245    -2654179.438 2  -2068191.586 1
  22532475.796   -11268671.811 4  -8780730.420 2
  23129402.148    -9756161.654 3  -7602151.257 2
 91  4  5 23 55 30.0050000  0  5 15 19 13 02 06
  25666741.792    -1394469.720 2  -1086585.251 1
  24335332.600    17056985.014 2  13291147.202 1
  25189504.861    -2699177.690 2  -2103255.360 1
  22534782.698   -11256550.226 4  -8771285.018 3
  23126944.756    -9769064.075 3  -7612205.049 2
 91  4  5 23 55 45.0050000  0  5 15 19 13 02 06
  25665398.719    -1401566.502 2  -1092115.181 1
  24344352.164    17104420.575 2  13328109.912 1
  25180948.793    -2744129.276 2  -2138282.382 1
  22537098.586   -11244375.275 4  -8761798.026 2
  23124497.851    -9781927.198 4  -7622228.210 2
 91  4  5 23 56  0.0050000  0  5 15 19 13 02 06
  25664063.742    -1408564.229 2  -1097567.777 1
  24353397.502    17151921.163 2  13365123.295 1
  25172403.805    -2789036.626 2  -2173274.898 1
  22539425.276   -11232149.952 4  -8752271.774 3
  23122058.433    -9794753.815 3  -7632222.930 2
 91  4  5 23 56 15.0050000  0  5 15 19 13 02 06
  25662751.241    -1415464.498 2  -1102944.487 1
  24362444.323    17199485.352 2  13402186.226 1
  25163861.225    -2833900.976 2  -2208233.886 1
  22541761.563   -11219875.863 4  -8742707.539 3
  23119622.627    -9807545.095 3  -7642190.134 2
 91  4  5 23 56 30.0050000  0  5 15 19 13 02 06
  25661457.936    -1422265.058 2  -1108243.636 1
  24371511.857    17247114.617 2  13439299.900 1
  25155339.028    -2878720.424 2  -2243157.955 1
  22544104.743   -11207551.388 4  -8733104.034 3
  23117193.399    -9820299.300 3  -7652128.440 2
 91  4  5 23 56 45.0050000  0  5 15 19 13 02 06
  25660178.434    -1428962.864 2  -1113462.921 1
  24380584.766    17294811.964 2  13476466.578 1
  25146817.423    -2923491.384 2  -2278044.647 1
  22546462.303   -11195173.682 4  -8723459.045 2
  23114776.475    -9833013.278 3  -7662035.383 2
 91  4  5 23 57  0.0050000  0  5 15 19 13 02 06
  25658930.691    -1435559.077 2  -1118602.815 1
  24389679.279    17342575.819 2  13513685.129 1
  25138303.916    -2968215.173 2  -2312894.533 1
  22548824.382   -11182744.423 4  -8713773.888 3
  23112366.146    -9845688.183 4  -7671911.902 2
 91  4  5 23 57 15.0050000  0  5 15 19 13 02 06
  25657685.949    -1442057.373 2  -1123666.354 1
  24398773.181    17390401.996 2  13550952.242 1
  25129797.301    -3012895.458 2  -2347710.251 1
  22551202.323   -11170267.729 4  -8704051.774 3
  23109959.115    -9858327.969 3  -7681761.041 2
 91  4  5 23 57 30.0050000  0  5 15 19 13 02 06
  25656466.092    -1448455.296 2  -1128651.664 1
  24407895.265    17438292.661 2  13588269.526 1
  25121305.676    -3057529.851 2  -2382490.497 1
  22553583.283   -11157741.505 4  -8694291.058 3
  23107561.665    -9870930.183 3  -7691580.908 2
 91  4  5 23 57 45.0050000  0  5 15 19 13 02 06
  25655266.930    -1454748.879 2  -1133555.579 1
  24417014.958    17486251.539 2  13625640.038 1
  25112817.663    -3102114.136 2  -2417231.677 1
  22555978.325   -11145162.249 4  -8684489.025 3
  23105168.716    -9883490.986 3  -7701368.507 2
 91  4  5 23 58  0.0050000  0  5 15 19 13 02 06
  25654095.340    -1460939.818 2  -1138379.660 1
  24426159.517    17534276.719 2  13663062.199 1
  25104351.812    -3146649.606 2  -2451934.456 1
  22558382.058   -11132531.798 4  -8674647.106 2
  23102785.680    -9896011.798 4  -7711124.954 2
 91  4  5 23 58 15.0050000  0  5 15 19 13 02 06
  25652947.726    -1467026.986 2  -1143122.825 1
  24435305.299    17582368.731 2  13700536.438 1
  25095879.086    -3191135.238 2  -2486598.395 1
  22560794.481   -11119849.385 4  -8664764.679 3
  23100414.020    -9908491.977 3  -7720849.725 2
 91  4  5 23 58 30.0050000  0  5 15 19 13 02 06
  25651794.127    -1473010.667 2  -1147785.286 1
  24444473.242    17630527.097 2  13738062.377 1
  25087425.537    -3235571.367 2  -2521224.097 1
  22563218.909   -11107115.572 4  -8654842.215 3
  23098044.752    -9920931.748 3  -7730543.009 2
 91  4  5 23 58 45.0050000  0  5 15 19 13 02 06
  25650675.900    -1478929.622 2  -1152397.355 1
  24453636.997    17678712.474 2  13775609.361 1
  25078972.896    -3279996.714 2  -2555841.333 1
  22565644.821   -11094369.763 4  -8644910.404 3
  23095677.595    -9933369.986 3  -7740235.110 2
 91  4  5 23 59  0.0050000  0  5 15 19 13 02 06
  25649559.784    -1484766.944 2  -1156945.936 1
  24462823.245    17726941.759 2  13813190.546 1
  25070526.240    -3324393.944 2  -2590436.470 1
  22568072.844   -11081595.147 4  -8634956.146 3
  23093315.830    -9945789.512 3  -7749912.614 2
 91  4  5 23 59 15.0060000  0  5 15 19 13 02 06
  25948270.590    -1490478.687 2  -1161396.528 1
  24771805.232    17775258.461 2  13850839.856 1
  25361873.840    -3368719.015 2  -2624975.355
  22870313.114   -11068748.135 4  -8624945.468 2
  23390753.120    -9958146.664 3  -7759541.525 2
 91  4  5 23 59 30.0060000  0  5 15 19 13 02 06
  25647410.566    -1496075.275 2  -1165757.370 1
  24481226.300    17823655.146 2  13888551.488 1
  25053662.318    -3412985.621 2  -2659468.972 1
  22572976.551   -11055838.627 4  -8614886.098 3
  23088621.673    -9970452.604 4  -7769130.534 2
 91  4  5 23 59 45.0060000  0  5 15 19 13 02 06
  25646363.989    -1501557.810 2  -1170029.331 1
  24490445.512    17872123.688 2  13926319.089 1
  25045262.132    -3457188.664 2  -2693912.657 1
  22575443.540   -11042870.145 4  -8604780.773 2
  23086290.795    -9982707.244 4  -7778679.561 2
 91  4  6  0  0  0.0060000  0  5 15 19 13 02 06
  25645348.893    -1506924.886 2  -1174211.491 1
  24499691.109    17920668.566 2  13964146.257 1
  25036850.848    -3501329.446 2  -2728307.878 1
  22577922.832   -11029840.464 4  -8594627.753 2
  23083967.106    -9994909.799 4  -7788188.005 2
 91  4  6  0  0 15.0060000  0  5 15 19 13 02 06
  25644347.896    -1512180.069 2  -1178306.321 1
  24508939.410    17969285.870 2  14002029.774 1
  25028453.664    -3545411.642 2  -2762657.399 1
  22580412.612   -11016753.589 4  -8584430.180 2
  23081655.703   -10007064.035 4  -7797658.809 2
 91  4  6  0  0 30.0060000  0  5 15 19 13 02 06
  25643363.372    -1517325.457 2  -1182315.597 1
  24518209.000    18017972.961 2  14039967.733 1
  25020083.161    -3589437.410 2  -2796963.401 1
  22582914.973   -11003612.138 4  -8574190.082 3
  23079351.192   -10019171.928 4  -7807093.484 2
 91  4  6  0  0 45.0060000  0  5 15 19 13 02 06
  25642402.842    -1522364.729 2  -1186242.325 1
  24527473.775    18066725.826 2  14077956.908 1
  25011720.441    -3633410.382 2  -2831227.841 1
  22585423.634   -10990420.302 4  -8563910.704 3
  23077054.482   -10031237.549 4  -7816495.220 2
 91  4  6  0  1  0.0060000  0  5 15 19 13 02 06
  25641459.379    -1527297.119 2  -1190085.679 1
  24536769.453    18115545.004 2  14115997.753 1
  25003359.535    -3677329.685 2  -2865450.430 1
  22587943.393   -10977177.493 4  -8553591.619 3
  23074767.962   -10043260.020 4  -7825863.337 2
 91  4  6  0  1 15.0060000  0  5 15 19 13 02 06
  25640556.121    -1532086.003 2  -1193817.123 1
  24546076.213    18164466.795 2  14154118.559 1
  24995024.107    -3721158.516 2  -2899602.528 1
  22590481.737   -10963847.400 4  -8543204.532 3
  23072494.042   -10055202.612 4  -7835169.206 2
 91  4  6  0  1 30.0060000  0  5 15 19 13 02 06
  25639664.537    -1536762.035 2  -1197460.701 1
  24555402.744    18213460.225 2  14192295.205 1
  24986695.275    -3764927.302 2  -2933707.827 1
  22593027.270   -10950460.911 4  -8532773.486 3
  23070233.017   -10067096.107 4  -7844436.814 2
 91  4  6  0  1 45.0060000  0  5 15 19 13 02 06
  25638792.741    -1541333.450 2  -1201022.848 1
  24564735.888    18262516.715 2  14230521.005 1
  24978369.427    -3808644.105 2  -2967772.688 1
  22595585.698   -10937026.697 4  -8522305.259 3
  23067974.680   -10078948.813 3  -7853672.658 2
 91  4  6  0  2  0.0060000  0  5 15 19 13 02 06
  25637947.016    -1545798.044 2  -1204501.676 1
  24574081.317    18311638.276 2  14268797.458 1
  24970054.695    -3852306.579 2  -3001795.610 1
  22598149.833   -10923542.757 4  -8511798.284 3
  23065727.423   -10090758.324 4  -7862874.820 2
 91  4  6  0  2 15.0060000  0  5 15 19 13 02 06
  25637129.491    -1550156.985 2  -1207898.138 1
  24583442.643    18360823.136 2  14307123.232 1
  24961764.236    -3895916.198 2  -3035776.910 1
  22600725.643   -10910011.005 4  -8501254.057 3
  23063491.282   -10102526.426 3  -7872044.719 2
 91  4  6  0  2 30.0060000  0  5 15 19 13 02 06
  25636310.151    -1554408.020 2  -1211210.569 1
  24592812.642    18410073.415 2  14345500.002 1
  24953473.464    -3939470.126 2  -3069715.270 1
  22603310.753   -10896429.174 4  -8490670.795 3
  23061259.626   -10114250.414 3  -7881180.259 2
 91  4  6  0  2 45.0060000  0  5 15 19 13 02 06
  25635522.291    -1558553.544 2  -1214440.731 1
  24602194.647    18459386.465 2  14383925.703 1
  24945197.401    -3982970.902 2  -3103611.780 1
  22605903.960   -10882799.944 4  -8480050.604 3
  23059034.863   -10125932.829 3  -7890283.383 2
 91  4  6  0  3  0.0060000  0  5 15 19 13 02 06
  25634751.236    -1562591.092 2  -1217586.823 1
  24611593.753    18508764.361 2  14422401.944 1
  24936928.232    -4026415.892 2  -3137465.241 1
  22608508.562   -10869121.230 4  -8469391.863 3
  23056818.494   -10137571.195 4  -7899352.190 2
 91  4  6  0  3 15.0060000  0  5 15 19 13 02 06
  25634008.642    -1566524.141 2  -1220651.468 1
  24621009.629    18558203.208 2  14460925.616 1
  24928666.251    -4069808.685 2  -3171277.636 1
  22611118.556   -10855396.968 4  -8458697.609 2
  23054614.426   -10149169.053 4  -7908389.435 2
 91  4  6  0  3 30.0060000  0  5 15 19 13 02 06
  25633284.353    -1570347.268 2  -1223630.412 1
  24630427.913    18607708.093 2  14499500.789 1
  24920427.341    -4113143.499 2  -3205045.249 1
  22613740.242   -10841622.089 4  -8447963.935 2
  23052413.954   -10160721.113 4  -7917390.986 2
 91  4  6  0  3 45.0060000  0  5 15 19 13 02 06
  25632582.226    -1574063.279 2  -1226525.923 1
  24639848.884    18657275.780 2  14538124.875 1
  24912186.946    -4156423.378 2  -3238770.075 1
  22616370.007   -10827799.830 4  -8437193.336 3
  23050225.452   -10172230.324 4  -7926359.153 2
 91  4  6  0  4  0.0060000  0  5 15 19 13 02 06
  25631883.711    -1577675.877 2  -1229340.837 1
  24649312.731    18706902.034 2  14576794.630 1
  24903966.341    -4199651.721 2  -3272454.312 1
  22619008.183   -10813934.299 4  -8426389.021 3
  23048041.767   -10183700.400 3  -7935296.828 2
 91  4  6  0  4 15.0060000  0  5 15 19 13 02 06
  25631208.283    -1581178.905 2  -1232070.371 1
  24658761.291    18756593.007 2  14615514.810 1
  24895743.938    -4242822.243 2  -3306093.920 1
  22621656.551   -10800019.470 4  -8415546.285 3
  23045865.271   -10195125.048 3  -7944199.109 2
 91  4  6  0  4 30.0060000  0  5 15 19 13 02 06
  25630573.916    -1584574.936 2  -1234716.616 1
  24668222.153    18806346.088 2  14654283.365 1
  24887549.106    -4285937.384 2  -3339689.910 1
  22624312.107   -10786057.962 4  -8404667.176 3
  23043701.985   -10206506.769 3  -7953067.920 2
 91  4  6  0  4 45.0060000  0  5 15 19 13 02 06
  25629947.662    -1587865.232 2  -1237280.405 1
  24677700.378    18856159.517 2  14693098.934 1
  24879349.790    -4328998.149 2  -3373243.917 1
  22626981.170   -10772051.505 4  -8393753.044 3
  23041544.964   -10217846.911 4  -7961904.339 2
 91  4  6  0  5  0.0060000  0  5 15 19 13 02 06
  25629336.084    -1591046.511 2  -1239759.246 1
  24687197.816    18906035.973 2  14731963.619 1
  24871163.055    -4372001.535 2  -3406752.847 1
  22629651.717   -10757997.502 4  -8382801.870 2
  23039393.666   -10229142.420 4  -7970705.992 2
 91  4  6  0  5 15.0060000  0  5 15 19 13 02 06
  25628747.279    -1594118.757 2  -1242153.069 1
  24696698.832    18955975.287 2  14770877.318 1
  24862982.620    -4414947.183 2  -3440216.878 1
  22632337.864   -10743896.293 4  -8371813.896 3
  23037252.245   -10240393.325 4  -7979472.882 2
 91  4  6  0  5 30.0060000  0  5 15 19 13 02 06
  25628180.688    -1597079.892 2  -1244460.336
  24706215.744    19005979.203 2  14809841.344 1
  24854830.663    -4457832.927 2  -3473634.550 1
  22635028.792   -10729745.890 4  -8360787.606 3
  23035122.516   -10251597.499 4  -7988203.352 2
 91  4  6  0  5 45.0060000  0  5 15 19 13 02 06
  25627634.165    -1599931.976 2  -1246682.745 1
  24715738.346    19056045.039 2  14848853.599 1
  24846682.005    -4500660.746 2  -3507007.010 1
  22637732.023   -10715548.852 4  -8349724.963 3
  23032996.085   -10262757.077 4  -7996899.079 2
 91  4  6  0  6  0.0060000  0  5 15 19 13 02 06
  25627124.810    -1602673.824 2  -1248819.173 1
  24725281.643    19106174.097 2  14887915.122 1
  24838542.927    -4543429.286 2  -3540333.395 1
  22640438.552   -10701303.967 4  -8338625.035 2
  23030881.048   -10273870.711 4  -8005559.017 2
 91  4  6  0  6 15.0060000  0  5 15 19 13 02 06
  25626619.958    -1605302.303 2  -1250867.198 1
  24734830.332    19156369.276 2  14927028.174 1
  24830418.856    -4586135.081 2  -3573610.497 1
  22643164.869   -10687008.336 4  -8327485.577 3
  23028775.907   -10284935.050 4  -8014180.514 2
 91  4  6  0  6 30.0060000  0  5 15 19 13 02 06
  25626142.398    -1607823.191 2  -1252831.500 1
  24744398.513    19206624.147 2  14966187.745 1
  24822296.285    -4628784.183 2  -3606843.689 1
  22645889.982   -10672668.714 4  -8316311.837 3
  23026679.769   -10295956.387 4  -8022768.532 2
 91  4  6  0  6 45.0060000  0  5 15 19 13 02 06
  25625685.499    -1610231.789 2  -1254708.276 1
  24753964.583    19256943.043 2  15005397.170 1
  24814192.893    -4671371.776 2  -3640028.653 1
  22648631.586   -10658280.512 4  -8305100.231 2
  23024592.007   -10306930.065 4  -8031319.407 2
 91  4  6  0  7  0.0060000  0  5 15 19 13 02 06
  25625243.607    -1612528.396 2  -1256497.694 1
  24763563.948    19307325.457 2  15044656.117 1
  24806099.395    -4713898.007 2  -3673166.179 1
  22651373.783   -10643844.161 4  -8293851.110 3
  23022513.547   -10317856.167 4  -8039833.196 2
 91  4  6  0  7 15.0060000  0  5 15 19 13 02 06
  25624834.696    -1614713.456 2  -1258200.240 1
  24773162.091    19357770.632 2  15083963.990 1
  24798023.294    -4756363.202 2  -3706255.769 1
  22654130.673   -10629360.482 4  -8282565.119 3
  23020442.276   -10328735.296 4  -8048310.401 2
 91  4  6  0  7 30.0060000  0  5 15 19 13 02 06
  25624437.773    -1616787.895 2  -1259816.621 1
  24782769.553    19408277.112 2  15123319.572 1
  24789949.881    -4798768.121 2  -3739298.337 1
  22656898.347   -10614830.973 4  -8271243.409 2
  23018380.306   -10339568.423 4  -8056751.751 2
 91  4  6  0  7 45.0060000  0  5 15 19 13 02 06
  25624062.437    -1618749.583 2  -1261345.168 1
  24792395.582    19458847.035 2  15162724.631 1
  24781901.352    -4841110.444 2  -3772292.535 1
  22659669.337   -10600253.471 4  -8259884.302 2
  23016329.120   -10350353.305 4  -8065155.499 2
 91  4  6  0  8  0.0060000  0  5 15 19 13 02 06
  25623717.673    -1620600.033 2  -1262786.977 1
  24802026.112    19509478.525 2  15202177.684 1
  24773850.415    -4883391.714 2  -3805238.847 1
  22662455.613   -10585629.924 4  -8248489.320 2
  23014284.844   -10361091.370 4  -8073522.782 2
 91  4  6  0  8 15.0060000  0  5 15 19 13 02 06
  25623382.210    -1622340.243 2  -1264142.853 1
  24811673.727    19560170.194 2  15241677.590 1
  24765814.188    -4925612.867 2  -3838138.616 1
  22665242.483   -10570961.636 4  -8237059.469 2
  23012251.650   -10371783.674 4  -8081854.395 2
 91  4  6  0  8 30.0060000  0  5 15 19 13 02 06
  25623066.814    -1623965.299 2  -1265409.081 1
  24821335.442    19610926.433 2  15281227.833 1
  24757792.044    -4967768.841 2  -3870987.231 1
  22668046.436   -10556244.068 4  -8225591.218 2
  23010226.552   -10382425.540 4  -8090146.704 2
 91  4  6  0  8 45.0060000  0  5 15 19 13 02 06
  25622787.419    -1625477.810 2  -1266587.564 1
  24831004.660    19661744.544 2  15320826.326 1
  24749777.089    -5009861.981 2  -3903786.905 1
  22670853.688   -10541480.203 4  -8214086.896 2
  23008211.348   -10393019.239 4  -8098401.500 2
 91  4  6  0  9  0.0060000  0  5 15 19 13 02 06
  25622516.696    -1626876.307 2  -1267677.248 1
  24840689.146    19712625.707 2  15360473.847 1
  24741783.127    -5051890.694 2  -3936536.338 1
  22673673.835   -10526668.763 4  -8202545.505 3
  23006200.036   -10403563.629 4  -8106617.860 2
 91  4  6  0  9 15.0060000  0  5 15 19 13 02 06
  25622271.172    -1628159.928 2  -1268677.372 1
  24850383.842    19763570.461 2  15400170.992 1
  24733800.542    -5093854.040 2  -3969234.853 1
  22676502.986   -10511809.122 4  -8190966.542 2
  23004206.419   -10414057.674 4  -8114794.985 2
 91  4  6  0  9 30.0060000  0  5 15 19 13 02 06
  25622051.421    -1629329.308 2  -1269588.477 1
  24860085.412    19814577.781 2  15439916.887 1
  24725825.461    -5135752.518 2  -4001883.155 1
  22679336.919   -10496902.417 4  -8179350.910 2
  23002216.396   -10424501.967 4  -8122933.348 2
 91  4  6  0  9 45.0060000  0  5 15 19 13 02 06
  25621849.068    -1630384.404 2  -1270410.540 1
  24869809.197    19865647.458 2  15479711.310 1
  24717858.181    -5177586.041 2  -4034480.560 1
  22682184.044   -10481948.631 4  -8167698.592 2
  23000238.972   -10434896.295 4  -8131032.771 2
 91  4  6  0 10  0.0060000  0  5 15 19 13 02 06
  25621671.582    -1631321.362 2  -1271140.618 1
  24879537.449    19916783.001 2  15519557.149 1
  24709912.486    -5219350.803 2  -4067024.351 1
  22685039.581   -10466944.467 4  -8156007.016 2
  22998271.129   -10445237.284 4  -8139090.636 2
 91  4  6  0 10 15.0060000  0  5 15 19 13 02 06
  25621516.886    -1632146.327 2  -1271783.375 1
  24889272.612    19967977.881 2  15559449.161 1
  24701975.184    -5261052.662 2  -4099519.205 1
  22687900.491   -10451896.438 4  -8144281.264 2
  22996314.680   -10455530.812 4  -8147111.522 2
 91  4  6  0 10 30.0060000  0  5 15 19 13 02 06
  25621373.585    -1632858.451 2  -1272338.164 1
  24899032.955    20019232.499 2  15599387.751 1
  24694048.964    -5302690.632 2  -4131964.509 1
  22690773.111   -10436803.808 4  -8132520.753 2
  22994364.234   -10465776.076 4  -8155094.807 2
 91  4  6  0 10 45.0060000  0  5 15 19 13 02 06
  25621260.577    -1633451.336 2  -1272800.067 1
  24908790.610    20070553.218 2  15639377.817 1
  24686145.533    -5344258.004 2  -4164354.678 1
  22693655.608   -10421660.353 4  -8120720.638 2
  22992425.480   -10475966.516 4  -8163035.361 2
 91  4  6  0 11  0.0060000  0  5 15 19 13 02 06
  25621171.825    -1633925.429 2  -1273169.447 1
  24918573.726    20121939.201 2  15679418.724 1
  24678243.604    -5385755.204 2  -4196690.408 1
  22696548.313   -10406466.954 4  -8108881.612 3
  22990497.214   -10486102.685 4  -8170933.639 2
 91  4  6  0 11 15.0060000  0  5 15 19 13 02 06
  25621100.786    -1634284.030 2  -1273448.802 1
  24928364.659    20173386.785 2  15719507.703 1
  24670360.573    -5427185.177 2  -4228973.311 1
  22699448.190   -10391227.368 4  -8097006.593 2
  22988575.247   -10496187.986 4  -8178792.272 2
 91  4  6  0 11 30.0060000  0  5 15 19 13 02 06
  25621055.206    -1634524.047 2  -1273635.700 1
  24938172.659    20224898.558 2  15759646.670 1
  24662493.404    -5468545.263 2  -4261201.755 1
  22702355.589   -10375938.868 4  -8085093.457 2
  22986670.067   -10506219.278 4  -8186608.814 2
 91  4  6  0 11 45.0060000  0  5 15 19 13 02 06
  25621036.028    -1634651.563 2  -1273735.056 1
  24947983.363    20276468.425 2  15799830.848 1
  24654638.851    -5509841.049 2  -4293380.069 1
  22705276.773   -10360607.612 4  -8073146.996 2
  22984766.370   -10516202.561 4  -8194387.959 2
 91  4  6  0 12  0.0060000  0  5 15 19 13 02 06
  25621028.524    -1634660.646 2  -1273742.038 1
  24957806.370    20328101.625 2  15840064.463 1
  24646787.283    -5551066.808 2  -4325503.841 1
  22708197.346   -10345228.090 4  -8061162.942 3
  22982878.291   -10526131.855 4  -8202125.037 2
 91  4  6  0 12 15.0060000  0  5 15 19 13 02 06
  25621052.518    -1634555.215 2  -1273659.822 1
  24967644.367    20379794.379 2  15880344.398 1
  24638954.613    -5592225.955 2  -4357576.154 1
  22711137.707   -10329804.363 4  -8049144.432 2
  22980997.385   -10536011.109 4  -8209823.111 2
 91  4  6  0 12 30.0060000  0  5 15 19 13 02 06
  25621096.283    -1634331.588 2  -1273485.426 1
  24977496.742    20431549.980 2  15920673.370 1
  24631143.215    -5633314.737 2  -4389593.240 1
  22714078.662   -10314333.106 4  -8037088.887 2
  22979128.187   -10545836.577 4  -8217479.288 2
 91  4  6  0 12 45.0060000  0  5 15 19 13 02 06
  25621158.336    -1633989.281 2  -1273218.681 1
  24987352.119    20483368.418 2  15961051.296 1
  24623333.928    -5674332.516 2  -4421554.903 1
  22717032.531   -10298814.243 4  -8024996.250 2
  22977269.774   -10555607.737 4  -8225093.132 2
 91  4  6  0 13  0.0060000  0  5 15 19 13 02 06
  25621251.276    -1633527.774 2  -1272858.969 1
  24997228.785    20535249.844 2  16001478.285 1
  24615538.724    -5715278.963 2  -4453461.021 1
  22719995.368   -10283247.515 4  -8012866.302 2
  22975421.255   -10565324.137 4  -8232664.314 2
 91  4  6  0 13 15.0060000  0  5 15 19 13 02 06
  25621356.204    -1632945.265 2  -1272405.019 1
  25007110.233    20587195.922 2  16041955.658 1
  24607764.495    -5756151.991 2  -4485309.939 1
  22722965.413   -10267631.274 4  -8000697.787 2
  22973581.112   -10574983.942 4  -8240191.396 2
 91  4  6  0 13 30.0060000  0  5 15 19 13 02 06
  25621493.817    -1632248.504 2  -1271861.987 1
  25017009.392    20639199.785 2  16082478.089 1
  24599987.875    -5796957.808 2  -4517106.487 1
  22725948.353   -10251972.480 4  -7988496.118 3
  22971750.288   -10584593.636 4  -8247679.432 2
 91  4  6  0 13 45.0060000  0  5 15 19 13 02 06
  25621650.904    -1631434.089 2  -1271227.291 1
  25026916.928    20691264.275 2  16123047.727 1
  24592247.535    -5837693.414 2  -4548848.289 1
  22728934.591   -10236268.264 4  -7976259.044 3
  22969934.453   -10594150.234 4  -8255126.075 2
 91  4  6  0 14  0.0060000  0  5 15 19 13 02 06
  25621831.671    -1630497.708 2  -1270497.621 1
  25036834.061    20743393.350 2  16163667.691 1
  24584506.601    -5878354.353 2  -4580532.016 1
  22731931.003   -10220514.377 4  -7963983.277 3
  22968128.198   -10603649.197 4  -8262527.838 2
 91  4  6  0 14 15.0060000  0  5 15 19 13 02 06
  25622030.743    -1629442.991 2  -1269675.615 1
  25046764.090    20795583.269 2  16204335.069 1
  24576787.846    -5918943.767 2  -4612159.946 1
  22734940.031   -10204714.719 4  -7951671.842 2
  22966329.447   -10613093.916 4  -8269887.317 2
 91  4  6  0 14 30.0060000  0  5 15 19 13 02 06
  25622251.087    -1628267.442 2  -1268759.523 1
  25056725.582    20847835.976 2  16245051.335 1
  24569072.686    -5959459.328 2  -4643730.330 1
  22737952.043   -10188867.307 4  -7939323.195 2
  22964544.779   -10622482.238 4  -8277202.840 2
 91  4  6  0 14 45.0060000  0  5 15 19 13 02 06
  25622491.812    -1626973.749 2  -1267751.374 1
  25066661.910    20900148.767 2  16285814.462 1
  24561381.502    -5999903.124 2  -4675244.741 1
  22740980.250   -10172974.894 4  -7926939.477 3
  22962766.409   -10631816.540 4  -8284476.288 2
 91  4  6  0 15  0.0060000  0  5 15 19 13 02 06
  25622764.332    -1625562.117 2  -1266651.374 1
  25076634.204    20952520.833 2  16326623.778 1
  24553696.322    -6040275.352 2  -4706703.563 1
  22744010.550   -10157038.048 4  -7914521.144 2
  22961000.622   -10641096.993 4  -8291707.771 2
 91  4  6  0 15 15.0060000  0  5 15 19 13 02 06
  25623052.139    -1624033.910 2  -1265460.516 1
  25086608.608    21004950.564 2  16367478.036 1
  24546026.148    -6080577.581 2  -4738108.078 1
  22747052.838   -10141058.436 4  -7902069.490 2
  22959245.950   -10650325.036 4  -8298898.409 2
 91  4  6  0 15 30.0060000  0  5 15 19 13 02 06
  25623372.001    -1622384.718 2  -1264175.303 1
  25096595.595    21057442.240 2  16408380.514 1
  24538370.040    -6120805.225 2  -4769454.175 1
  22750102.927   -10125031.769 4  -7889581.164 2
  22957498.450   -10659496.103 4  -8306044.648 2
 91  4  6  0 15 45.0060000  0  5 15 19 13 02 06
  25623711.076    -1620615.143 2  -1262796.350
  25106601.759    21109995.046 2  16449330.677 1
  24530731.032    -6160958.484 2  -4800742.234 1
  22753160.519   -10108958.867 4  -7877056.822 3
  22955767.459   -10668610.676 4  -8313146.877 2
 91  4  6  0 16  0.0060000  0  5 15 19 13 02 06
  25624069.033    -1618726.015 2  -1261324.236 1
  25116615.427    21162607.508 2  16490327.288 1
  24523100.419    -6201038.206 2  -4831972.942 1
  22756228.285   -10092841.007 4  -7864497.440 2
  22954041.842   -10677669.860 4  -8320205.932 2
